<?xml version="1.0" encoding="utf-8"?>
<gpx xmlns:xsi="http://www.w3.org/2001/XMLSchema-instance" xmlns:xsd="http://www.w3.org/2001/XMLSchema" version="1.1" creator="Shapelink.com" xmlns="http://www.topografix.com/GPX/1/1" xmlns:gpxtpx="http://www.garmin.com/xmlschemas/TrackPointExtension/v1">
  <metadata>
    <name>Ejecutar 21.69 km, 2020-03-21</name>
    <desc></desc>
    <author><name>Per Rooth</name></author> 
    <time>2020-03-21T08:39:48Z</time>
  </metadata>
  <trk>
    <name>Ejecutar 21.69 km, 2020-03-21</name>
    <trkseg>
      <trkpt lat="56.891071438963" lon="14.824407461203">
        <ele>174.4</ele>
        <time>2020-03-21T08:39:48Z</time>
      </trkpt>
      <trkpt lat="56.891068086203" lon="14.824429170324">
        <ele>176</ele>
        <time>2020-03-21T08:39:49Z</time>
      </trkpt>
      <trkpt lat="56.891050819489" lon="14.824455992404">
        <ele>175.6</ele>
        <time>2020-03-21T08:39:50Z</time>
      </trkpt>
      <trkpt lat="56.891050819489" lon="14.824455992404">
        <ele>174.8</ele>
        <time>2020-03-21T08:39:51Z</time>
      </trkpt>
      <trkpt lat="56.89089399414" lon="14.824654894891">
        <ele>174.4</ele>
        <time>2020-03-21T08:40:00Z</time>
      </trkpt>
      <trkpt lat="56.890866166232" lon="14.824712059449">
        <ele>173.6</ele>
        <time>2020-03-21T08:40:02Z</time>
      </trkpt>
      <trkpt lat="56.890803804896" lon="14.824870896454">
        <ele>172.6</ele>
        <time>2020-03-21T08:40:06Z</time>
      </trkpt>
      <trkpt lat="56.890701294259" lon="14.825085473094">
        <ele>171.4</ele>
        <time>2020-03-21T08:40:11Z</time>
      </trkpt>
      <trkpt lat="56.890603309848" lon="14.825243136633">
        <ele>170.8</ele>
        <time>2020-03-21T08:40:16Z</time>
      </trkpt>
      <trkpt lat="56.890485041239" lon="14.825518398229">
        <ele>170.6</ele>
        <time>2020-03-21T08:40:23Z</time>
      </trkpt>
      <trkpt lat="56.890432486726" lon="14.825716713983">
        <ele>170.2</ele>
        <time>2020-03-21T08:40:27Z</time>
      </trkpt>
      <trkpt lat="56.890357468721" lon="14.825986359706">
        <ele>169.2</ele>
        <time>2020-03-21T08:40:32Z</time>
      </trkpt>
      <trkpt lat="56.890324444035" lon="14.826137988277">
        <ele>169.2</ele>
        <time>2020-03-21T08:40:35Z</time>
      </trkpt>
      <trkpt lat="56.890284713829" lon="14.826461697255">
        <ele>169.2</ele>
        <time>2020-03-21T08:40:42Z</time>
      </trkpt>
      <trkpt lat="56.890259065215" lon="14.826815497254">
        <ele>169</ele>
        <time>2020-03-21T08:40:50Z</time>
      </trkpt>
      <trkpt lat="56.890236098809" lon="14.82712931559">
        <ele>168.4</ele>
        <time>2020-03-21T08:40:57Z</time>
      </trkpt>
      <trkpt lat="56.890215646973" lon="14.827472051481">
        <ele>168.4</ele>
        <time>2020-03-21T08:41:05Z</time>
      </trkpt>
      <trkpt lat="56.89020248739" lon="14.827606580976">
        <ele>168.2</ele>
        <time>2020-03-21T08:41:08Z</time>
      </trkpt>
      <trkpt lat="56.890139790778" lon="14.827953759274">
        <ele>168</ele>
        <time>2020-03-21T08:41:15Z</time>
      </trkpt>
      <trkpt lat="56.890134845457" lon="14.828079403955">
        <ele>168.2</ele>
        <time>2020-03-21T08:41:17Z</time>
      </trkpt>
      <trkpt lat="56.890192932024" lon="14.828302278676">
        <ele>169.2</ele>
        <time>2020-03-21T08:41:22Z</time>
      </trkpt>
      <trkpt lat="56.890199302268" lon="14.828347121841">
        <ele>169.4</ele>
        <time>2020-03-21T08:41:23Z</time>
      </trkpt>
      <trkpt lat="56.890230399117" lon="14.828500342973">
        <ele>169.2</ele>
        <time>2020-03-21T08:41:27Z</time>
      </trkpt>
      <trkpt lat="56.890237356094" lon="14.828836038068">
        <ele>168.4</ele>
        <time>2020-03-21T08:41:34Z</time>
      </trkpt>
      <trkpt lat="56.890228638918" lon="14.828934609212">
        <ele>168.4</ele>
        <time>2020-03-21T08:41:36Z</time>
      </trkpt>
      <trkpt lat="56.890278930318" lon="14.82919796851">
        <ele>170.6</ele>
        <time>2020-03-21T08:41:44Z</time>
      </trkpt>
      <trkpt lat="56.890311116814" lon="14.829321685354">
        <ele>172</ele>
        <time>2020-03-21T08:41:48Z</time>
      </trkpt>
      <trkpt lat="56.890323270569" lon="14.829341718095">
        <ele>172.2</ele>
        <time>2020-03-21T08:41:49Z</time>
      </trkpt>
      <trkpt lat="56.890381943869" lon="14.829406091087">
        <ele>173.2</ele>
        <time>2020-03-21T08:41:52Z</time>
      </trkpt>
      <trkpt lat="56.890458722073" lon="14.829509188457">
        <ele>173.8</ele>
        <time>2020-03-21T08:41:56Z</time>
      </trkpt>
      <trkpt lat="56.890580846356" lon="14.829736505585">
        <ele>174</ele>
        <time>2020-03-21T08:42:04Z</time>
      </trkpt>
      <trkpt lat="56.890629461376" lon="14.829785455881">
        <ele>174.6</ele>
        <time>2020-03-21T08:42:07Z</time>
      </trkpt>
      <trkpt lat="56.890645973719" lon="14.829803644604">
        <ele>174.8</ele>
        <time>2020-03-21T08:42:08Z</time>
      </trkpt>
      <trkpt lat="56.890724260665" lon="14.829904814137">
        <ele>175.6</ele>
        <time>2020-03-21T08:42:13Z</time>
      </trkpt>
      <trkpt lat="56.890793495159" lon="14.829979748323">
        <ele>176.8</ele>
        <time>2020-03-21T08:42:17Z</time>
      </trkpt>
      <trkpt lat="56.890832554813" lon="14.830028195705">
        <ele>177.6</ele>
        <time>2020-03-21T08:42:19Z</time>
      </trkpt>
      <trkpt lat="56.890847139319" lon="14.830060717477">
        <ele>177.8</ele>
        <time>2020-03-21T08:42:20Z</time>
      </trkpt>
      <trkpt lat="56.89086130473" lon="14.830091395231">
        <ele>177.8</ele>
        <time>2020-03-21T08:42:21Z</time>
      </trkpt>
      <trkpt lat="56.890896927805" lon="14.830229528943">
        <ele>178.8</ele>
        <time>2020-03-21T08:42:25Z</time>
      </trkpt>
      <trkpt lat="56.890919307478" lon="14.830310581916">
        <ele>179.6</ele>
        <time>2020-03-21T08:42:27Z</time>
      </trkpt>
      <trkpt lat="56.890949398499" lon="14.830389204138">
        <ele>180</ele>
        <time>2020-03-21T08:42:29Z</time>
      </trkpt>
      <trkpt lat="56.891017627165" lon="14.830637895111">
        <ele>181</ele>
        <time>2020-03-21T08:42:35Z</time>
      </trkpt>
      <trkpt lat="56.891081832519" lon="14.830993622947">
        <ele>181.2</ele>
        <time>2020-03-21T08:42:42Z</time>
      </trkpt>
      <trkpt lat="56.891134973765" lon="14.831345998023">
        <ele>180.8</ele>
        <time>2020-03-21T08:42:49Z</time>
      </trkpt>
      <trkpt lat="56.891154000678" lon="14.831388913351">
        <ele>180.6</ele>
        <time>2020-03-21T08:42:50Z</time>
      </trkpt>
      <trkpt lat="56.891276711694" lon="14.831685129697">
        <ele>180.6</ele>
        <time>2020-03-21T08:42:58Z</time>
      </trkpt>
      <trkpt lat="56.891415767415" lon="14.831942956941">
        <ele>181.8</ele>
        <time>2020-03-21T08:43:06Z</time>
      </trkpt>
      <trkpt lat="56.891435045785" lon="14.831979837301">
        <ele>182.2</ele>
        <time>2020-03-21T08:43:07Z</time>
      </trkpt>
      <trkpt lat="56.891558930267" lon="14.832230959025">
        <ele>182.4</ele>
        <time>2020-03-21T08:43:14Z</time>
      </trkpt>
      <trkpt lat="56.891657333773" lon="14.832402201242">
        <ele>182.4</ele>
        <time>2020-03-21T08:43:19Z</time>
      </trkpt>
      <trkpt lat="56.891780463884" lon="14.832660866676">
        <ele>183</ele>
        <time>2020-03-21T08:43:26Z</time>
      </trkpt>
      <trkpt lat="56.891779374237" lon="14.832859601525">
        <ele>183</ele>
        <time>2020-03-21T08:43:32Z</time>
      </trkpt>
      <trkpt lat="56.891780966798" lon="14.832893715858">
        <ele>183.2</ele>
        <time>2020-03-21T08:43:33Z</time>
      </trkpt>
      <trkpt lat="56.891786415033" lon="14.832984994749">
        <ele>183.6</ele>
        <time>2020-03-21T08:43:35Z</time>
      </trkpt>
      <trkpt lat="56.891803514109" lon="14.8331466816">
        <ele>184.4</ele>
        <time>2020-03-21T08:43:39Z</time>
      </trkpt>
      <trkpt lat="56.891827905438" lon="14.833287916615">
        <ele>185.4</ele>
        <time>2020-03-21T08:43:42Z</time>
      </trkpt>
      <trkpt lat="56.891862690323" lon="14.833614978353">
        <ele>186.2</ele>
        <time>2020-03-21T08:43:49Z</time>
      </trkpt>
      <trkpt lat="56.891857577364" lon="14.833724026872">
        <ele>186.4</ele>
        <time>2020-03-21T08:43:50Z</time>
      </trkpt>
      <trkpt lat="56.891861013943" lon="14.833778844498">
        <ele>186.6</ele>
        <time>2020-03-21T08:43:51Z</time>
      </trkpt>
      <trkpt lat="56.891845842704" lon="14.83403683938">
        <ele>187.4</ele>
        <time>2020-03-21T08:43:58Z</time>
      </trkpt>
      <trkpt lat="56.891838969546" lon="14.83406114689">
        <ele>187.6</ele>
        <time>2020-03-21T08:43:59Z</time>
      </trkpt>
      <trkpt lat="56.891837460804" lon="14.834088471884">
        <ele>188</ele>
        <time>2020-03-21T08:44:00Z</time>
      </trkpt>
      <trkpt lat="56.891841400297" lon="14.834145049709">
        <ele>188.8</ele>
        <time>2020-03-21T08:44:02Z</time>
      </trkpt>
      <trkpt lat="56.891834275682" lon="14.83423716679">
        <ele>190.2</ele>
        <time>2020-03-21T08:44:05Z</time>
      </trkpt>
      <trkpt lat="56.891818601529" lon="14.834363230566">
        <ele>191.2</ele>
        <time>2020-03-21T08:44:09Z</time>
      </trkpt>
      <trkpt lat="56.891811560733" lon="14.834388460085">
        <ele>191.6</ele>
        <time>2020-03-21T08:44:10Z</time>
      </trkpt>
      <trkpt lat="56.89179337201" lon="14.834435482544">
        <ele>192.6</ele>
        <time>2020-03-21T08:44:12Z</time>
      </trkpt>
      <trkpt lat="56.89174727156" lon="14.834509494721">
        <ele>193.4</ele>
        <time>2020-03-21T08:44:16Z</time>
      </trkpt>
      <trkpt lat="56.891719192195" lon="14.834559953759">
        <ele>193.8</ele>
        <time>2020-03-21T08:44:18Z</time>
      </trkpt>
      <trkpt lat="56.891702260757" lon="14.834572861885">
        <ele>193.8</ele>
        <time>2020-03-21T08:44:19Z</time>
      </trkpt>
      <trkpt lat="56.891610981866" lon="14.834669505192">
        <ele>193.6</ele>
        <time>2020-03-21T08:44:25Z</time>
      </trkpt>
      <trkpt lat="56.891515763482" lon="14.834794227864">
        <ele>192.8</ele>
        <time>2020-03-21T08:44:30Z</time>
      </trkpt>
      <trkpt lat="56.891434207595" lon="14.835037470602">
        <ele>191.6</ele>
        <time>2020-03-21T08:44:35Z</time>
      </trkpt>
      <trkpt lat="56.891287440526" lon="14.83526646411">
        <ele>191</ele>
        <time>2020-03-21T08:44:42Z</time>
      </trkpt>
      <trkpt lat="56.891268832708" lon="14.835299404977">
        <ele>191</ele>
        <time>2020-03-21T08:44:43Z</time>
      </trkpt>
      <trkpt lat="56.891209237399" lon="14.835399149587">
        <ele>190.4</ele>
        <time>2020-03-21T08:44:46Z</time>
      </trkpt>
      <trkpt lat="56.891118209965" lon="14.835528733761">
        <ele>189</ele>
        <time>2020-03-21T08:44:51Z</time>
      </trkpt>
      <trkpt lat="56.891082419252" lon="14.835577516419">
        <ele>189</ele>
        <time>2020-03-21T08:44:53Z</time>
      </trkpt>
      <trkpt lat="56.890985692126" lon="14.835904745795">
        <ele>188.8</ele>
        <time>2020-03-21T08:45:00Z</time>
      </trkpt>
      <trkpt lat="56.890847306957" lon="14.836150586922">
        <ele>188.8</ele>
        <time>2020-03-21T08:45:05Z</time>
      </trkpt>
      <trkpt lat="56.890812438253" lon="14.836243374555">
        <ele>188</ele>
        <time>2020-03-21T08:45:07Z</time>
      </trkpt>
      <trkpt lat="56.890761643939" lon="14.836406486329">
        <ele>186.8</ele>
        <time>2020-03-21T08:45:11Z</time>
      </trkpt>
      <trkpt lat="56.890721494638" lon="14.83650866169">
        <ele>185.6</ele>
        <time>2020-03-21T08:45:14Z</time>
      </trkpt>
      <trkpt lat="56.890607668436" lon="14.83678107344">
        <ele>185</ele>
        <time>2020-03-21T08:45:21Z</time>
      </trkpt>
      <trkpt lat="56.890493255501" lon="14.837044013643">
        <ele>186</ele>
        <time>2020-03-21T08:45:29Z</time>
      </trkpt>
      <trkpt lat="56.89042293136" lon="14.837193546739">
        <ele>185.4</ele>
        <time>2020-03-21T08:45:33Z</time>
      </trkpt>
      <trkpt lat="56.890402982438" lon="14.837273510065">
        <ele>184.4</ele>
        <time>2020-03-21T08:45:35Z</time>
      </trkpt>
      <trkpt lat="56.890330311365" lon="14.837608199332">
        <ele>183.4</ele>
        <time>2020-03-21T08:45:42Z</time>
      </trkpt>
      <trkpt lat="56.890332323021" lon="14.837876923046">
        <ele>183</ele>
        <time>2020-03-21T08:45:47Z</time>
      </trkpt>
      <trkpt lat="56.890360821481" lon="14.838206583173">
        <ele>183</ele>
        <time>2020-03-21T08:45:53Z</time>
      </trkpt>
      <trkpt lat="56.890437767323" lon="14.838551498358">
        <ele>182.8</ele>
        <time>2020-03-21T08:46:00Z</time>
      </trkpt>
      <trkpt lat="56.890489399827" lon="14.838723327308">
        <ele>184.4</ele>
        <time>2020-03-21T08:46:04Z</time>
      </trkpt>
      <trkpt lat="56.890569111696" lon="14.839015771799">
        <ele>185</ele>
        <time>2020-03-21T08:46:10Z</time>
      </trkpt>
      <trkpt lat="56.890583696202" lon="14.839153654054">
        <ele>185.6</ele>
        <time>2020-03-21T08:46:13Z</time>
      </trkpt>
      <trkpt lat="56.890642788597" lon="14.839515416858">
        <ele>185.6</ele>
        <time>2020-03-21T08:46:20Z</time>
      </trkpt>
      <trkpt lat="56.890648739746" lon="14.83956218786">
        <ele>185.4</ele>
        <time>2020-03-21T08:46:21Z</time>
      </trkpt>
      <trkpt lat="56.890605489142" lon="14.83990919852">
        <ele>185</ele>
        <time>2020-03-21T08:46:29Z</time>
      </trkpt>
      <trkpt lat="56.890611607929" lon="14.839997040832">
        <ele>184.6</ele>
        <time>2020-03-21T08:46:31Z</time>
      </trkpt>
      <trkpt lat="56.890631053937" lon="14.840360899111">
        <ele>183.8</ele>
        <time>2020-03-21T08:46:39Z</time>
      </trkpt>
      <trkpt lat="56.890626443892" lon="14.840415046185">
        <ele>183.4</ele>
        <time>2020-03-21T08:46:40Z</time>
      </trkpt>
      <trkpt lat="56.890628707005" lon="14.840569356964">
        <ele>182.4</ele>
        <time>2020-03-21T08:46:43Z</time>
      </trkpt>
      <trkpt lat="56.890624432236" lon="14.840828609131">
        <ele>181.2</ele>
        <time>2020-03-21T08:46:48Z</time>
      </trkpt>
      <trkpt lat="56.890635915439" lon="14.840870937726">
        <ele>181.2</ele>
        <time>2020-03-21T08:46:49Z</time>
      </trkpt>
      <trkpt lat="56.890665838822" lon="14.841067241824">
        <ele>180</ele>
        <time>2020-03-21T08:46:53Z</time>
      </trkpt>
      <trkpt lat="56.890670951781" lon="14.841321716308">
        <ele>179</ele>
        <time>2020-03-21T08:46:58Z</time>
      </trkpt>
      <trkpt lat="56.890628455548" lon="14.841557163879">
        <ele>180.4</ele>
        <time>2020-03-21T08:47:04Z</time>
      </trkpt>
      <trkpt lat="56.890665503546" lon="14.841667888778">
        <ele>181.2</ele>
        <time>2020-03-21T08:47:07Z</time>
      </trkpt>
      <trkpt lat="56.890771199305" lon="14.841925464565">
        <ele>182.4</ele>
        <time>2020-03-21T08:47:14Z</time>
      </trkpt>
      <trkpt lat="56.89088477405" lon="14.842222519101">
        <ele>181.4</ele>
        <time>2020-03-21T08:47:21Z</time>
      </trkpt>
      <trkpt lat="56.890900029108" lon="14.84227540889">
        <ele>181</ele>
        <time>2020-03-21T08:47:22Z</time>
      </trkpt>
      <trkpt lat="56.890929365758" lon="14.842373309482">
        <ele>180</ele>
        <time>2020-03-21T08:47:24Z</time>
      </trkpt>
      <trkpt lat="56.89099541513" lon="14.842532146487">
        <ele>178.8</ele>
        <time>2020-03-21T08:47:27Z</time>
      </trkpt>
      <trkpt lat="56.89106247033" lon="14.842730210784">
        <ele>177.8</ele>
        <time>2020-03-21T08:47:31Z</time>
      </trkpt>
      <trkpt lat="56.891168836641" lon="14.843030869537">
        <ele>177.4</ele>
        <time>2020-03-21T08:47:38Z</time>
      </trkpt>
      <trkpt lat="56.891235053651" lon="14.843349800832">
        <ele>177.2</ele>
        <time>2020-03-21T08:47:44Z</time>
      </trkpt>
      <trkpt lat="56.891285177413" lon="14.843708546152">
        <ele>177.8</ele>
        <time>2020-03-21T08:47:51Z</time>
      </trkpt>
      <trkpt lat="56.891309904018" lon="14.843941562972">
        <ele>179.2</ele>
        <time>2020-03-21T08:47:56Z</time>
      </trkpt>
      <trkpt lat="56.891326835456" lon="14.844175669439">
        <ele>180.4</ele>
        <time>2020-03-21T08:48:01Z</time>
      </trkpt>
      <trkpt lat="56.891387520412" lon="14.844499546055">
        <ele>181</ele>
        <time>2020-03-21T08:48:07Z</time>
      </trkpt>
      <trkpt lat="56.891456000535" lon="14.844803725206">
        <ele>179.8</ele>
        <time>2020-03-21T08:48:13Z</time>
      </trkpt>
      <trkpt lat="56.891510231428" lon="14.844947642429">
        <ele>179</ele>
        <time>2020-03-21T08:48:16Z</time>
      </trkpt>
      <trkpt lat="56.891582651044" lon="14.845102456122">
        <ele>178</ele>
        <time>2020-03-21T08:48:20Z</time>
      </trkpt>
      <trkpt lat="56.891610562771" lon="14.845172277349">
        <ele>177.6</ele>
        <time>2020-03-21T08:48:22Z</time>
      </trkpt>
      <trkpt lat="56.891779877151" lon="14.845344357756">
        <ele>177</ele>
        <time>2020-03-21T08:48:30Z</time>
      </trkpt>
      <trkpt lat="56.891831006741" lon="14.845353158751">
        <ele>177</ele>
        <time>2020-03-21T08:48:32Z</time>
      </trkpt>
      <trkpt lat="56.892017420197" lon="14.845300520419">
        <ele>178</ele>
        <time>2020-03-21T08:48:40Z</time>
      </trkpt>
      <trkpt lat="56.892193523916" lon="14.845359277538">
        <ele>178.8</ele>
        <time>2020-03-21T08:48:46Z</time>
      </trkpt>
      <trkpt lat="56.892309780869" lon="14.845656415893">
        <ele>179.2</ele>
        <time>2020-03-21T08:48:52Z</time>
      </trkpt>
      <trkpt lat="56.892415895723" lon="14.845986243658">
        <ele>180</ele>
        <time>2020-03-21T08:48:58Z</time>
      </trkpt>
      <trkpt lat="56.892461241802" lon="14.846197718995">
        <ele>180.2</ele>
        <time>2020-03-21T08:49:02Z</time>
      </trkpt>
      <trkpt lat="56.892543132965" lon="14.846525451285">
        <ele>180</ele>
        <time>2020-03-21T08:49:09Z</time>
      </trkpt>
      <trkpt lat="56.892665592524" lon="14.846762575236">
        <ele>180.6</ele>
        <time>2020-03-21T08:49:16Z</time>
      </trkpt>
      <trkpt lat="56.892829793945" lon="14.846809765333">
        <ele>181.2</ele>
        <time>2020-03-21T08:49:23Z</time>
      </trkpt>
      <trkpt lat="56.893023080559" lon="14.846869360642">
        <ele>182.2</ele>
        <time>2020-03-21T08:49:31Z</time>
      </trkpt>
      <trkpt lat="56.893203459047" lon="14.846918813852">
        <ele>180.8</ele>
        <time>2020-03-21T08:49:38Z</time>
      </trkpt>
      <trkpt lat="56.893378976033" lon="14.846988299803">
        <ele>180.6</ele>
        <time>2020-03-21T08:49:45Z</time>
      </trkpt>
      <trkpt lat="56.893495400624" lon="14.847032220959">
        <ele>180.2</ele>
        <time>2020-03-21T08:49:50Z</time>
      </trkpt>
      <trkpt lat="56.893647196833" lon="14.847176389639">
        <ele>181.4</ele>
        <time>2020-03-21T08:49:57Z</time>
      </trkpt>
      <trkpt lat="56.893712240377" lon="14.847303962157">
        <ele>182.4</ele>
        <time>2020-03-21T08:50:01Z</time>
      </trkpt>
      <trkpt lat="56.893821372715" lon="14.847569919844">
        <ele>183.2</ele>
        <time>2020-03-21T08:50:07Z</time>
      </trkpt>
      <trkpt lat="56.893901922774" lon="14.847729846496">
        <ele>183.4</ele>
        <time>2020-03-21T08:50:11Z</time>
      </trkpt>
      <trkpt lat="56.894034608251" lon="14.84798096822">
        <ele>184.2</ele>
        <time>2020-03-21T08:50:18Z</time>
      </trkpt>
      <trkpt lat="56.894043576884" lon="14.848014831096">
        <ele>184.6</ele>
        <time>2020-03-21T08:50:19Z</time>
      </trkpt>
      <trkpt lat="56.894076685389" lon="14.848088424178">
        <ele>186</ele>
        <time>2020-03-21T08:50:21Z</time>
      </trkpt>
      <trkpt lat="56.894103256012" lon="14.848171069712">
        <ele>187</ele>
        <time>2020-03-21T08:50:23Z</time>
      </trkpt>
      <trkpt lat="56.894207107753" lon="14.848515817259">
        <ele>188</ele>
        <time>2020-03-21T08:50:30Z</time>
      </trkpt>
      <trkpt lat="56.894223368639" lon="14.848626290701">
        <ele>188.2</ele>
        <time>2020-03-21T08:50:32Z</time>
      </trkpt>
      <trkpt lat="56.894228230141" lon="14.848980174519">
        <ele>187.2</ele>
        <time>2020-03-21T08:50:38Z</time>
      </trkpt>
      <trkpt lat="56.894210125237" lon="14.849144711216">
        <ele>185.8</ele>
        <time>2020-03-21T08:50:41Z</time>
      </trkpt>
      <trkpt lat="56.894173328696" lon="14.849367669756">
        <ele>184.4</ele>
        <time>2020-03-21T08:50:45Z</time>
      </trkpt>
      <trkpt lat="56.89417215523" lon="14.849674279658">
        <ele>183.2</ele>
        <time>2020-03-21T08:50:50Z</time>
      </trkpt>
      <trkpt lat="56.894192104152" lon="14.849793889371">
        <ele>182</ele>
        <time>2020-03-21T08:50:52Z</time>
      </trkpt>
      <trkpt lat="56.89422915215" lon="14.849958342249">
        <ele>180.8</ele>
        <time>2020-03-21T08:50:55Z</time>
      </trkpt>
      <trkpt lat="56.894304086336" lon="14.850109635544">
        <ele>179.8</ele>
        <time>2020-03-21T08:50:59Z</time>
      </trkpt>
      <trkpt lat="56.89444708155" lon="14.850322535804">
        <ele>178.8</ele>
        <time>2020-03-21T08:51:06Z</time>
      </trkpt>
      <trkpt lat="56.894532074016" lon="14.850637108511">
        <ele>180.4</ele>
        <time>2020-03-21T08:51:13Z</time>
      </trkpt>
      <trkpt lat="56.89455269349" lon="14.850669714102">
        <ele>180.6</ele>
        <time>2020-03-21T08:51:14Z</time>
      </trkpt>
      <trkpt lat="56.894692503582" lon="14.850699805123">
        <ele>180.8</ele>
        <time>2020-03-21T08:51:19Z</time>
      </trkpt>
      <trkpt lat="56.894895261743" lon="14.850702403512">
        <ele>181</ele>
        <time>2020-03-21T08:51:26Z</time>
      </trkpt>
      <trkpt lat="56.89507656224" lon="14.850792006023">
        <ele>180.8</ele>
        <time>2020-03-21T08:51:33Z</time>
      </trkpt>
      <trkpt lat="56.895276973469" lon="14.850856211377">
        <ele>181</ele>
        <time>2020-03-21T08:51:40Z</time>
      </trkpt>
      <trkpt lat="56.895487442978" lon="14.850874148643">
        <ele>180</ele>
        <time>2020-03-21T08:51:46Z</time>
      </trkpt>
      <trkpt lat="56.895627588346" lon="14.850896444497">
        <ele>179.8</ele>
        <time>2020-03-21T08:51:50Z</time>
      </trkpt>
      <trkpt lat="56.895814001802" lon="14.851053437484">
        <ele>179.2</ele>
        <time>2020-03-21T08:51:56Z</time>
      </trkpt>
      <trkpt lat="56.895945597632" lon="14.851325765415">
        <ele>179.6</ele>
        <time>2020-03-21T08:52:03Z</time>
      </trkpt>
      <trkpt lat="56.896026985881" lon="14.851634386973">
        <ele>180</ele>
        <time>2020-03-21T08:52:09Z</time>
      </trkpt>
      <trkpt lat="56.896144583938" lon="14.851944936368">
        <ele>179.4</ele>
        <time>2020-03-21T08:52:15Z</time>
      </trkpt>
      <trkpt lat="56.896266875859" lon="14.852244254017">
        <ele>178.8</ele>
        <time>2020-03-21T08:52:21Z</time>
      </trkpt>
      <trkpt lat="56.896274419569" lon="14.852301250937">
        <ele>178.8</ele>
        <time>2020-03-21T08:52:22Z</time>
      </trkpt>
      <trkpt lat="56.896299146174" lon="14.852450029662">
        <ele>178.6</ele>
        <time>2020-03-21T08:52:25Z</time>
      </trkpt>
      <trkpt lat="56.896355975456" lon="14.852775834115">
        <ele>179.6</ele>
        <time>2020-03-21T08:52:31Z</time>
      </trkpt>
      <trkpt lat="56.896366117555" lon="14.852832495759">
        <ele>180</ele>
        <time>2020-03-21T08:52:32Z</time>
      </trkpt>
      <trkpt lat="56.896422276285" lon="14.853152516701">
        <ele>180.4</ele>
        <time>2020-03-21T08:52:38Z</time>
      </trkpt>
      <trkpt lat="56.896468292916" lon="14.853496426058">
        <ele>180.2</ele>
        <time>2020-03-21T08:52:44Z</time>
      </trkpt>
      <trkpt lat="56.896480362852" lon="14.853862715088">
        <ele>180.6</ele>
        <time>2020-03-21T08:52:51Z</time>
      </trkpt>
      <trkpt lat="56.896523361999" lon="14.85418692698">
        <ele>179.6</ele>
        <time>2020-03-21T08:52:56Z</time>
      </trkpt>
      <trkpt lat="56.896531408623" lon="14.854539218237">
        <ele>178.8</ele>
        <time>2020-03-21T08:53:02Z</time>
      </trkpt>
      <trkpt lat="56.896529396967" lon="14.854853623306">
        <ele>178.8</ele>
        <time>2020-03-21T08:53:07Z</time>
      </trkpt>
      <trkpt lat="56.896369554134" lon="14.854985219136">
        <ele>179.4</ele>
        <time>2020-03-21T08:53:13Z</time>
      </trkpt>
      <trkpt lat="56.896260421796" lon="14.85497063463">
        <ele>179.8</ele>
        <time>2020-03-21T08:53:17Z</time>
      </trkpt>
      <trkpt lat="56.896060345843" lon="14.854928306035">
        <ele>180.6</ele>
        <time>2020-03-21T08:53:24Z</time>
      </trkpt>
      <trkpt lat="56.895937299551" lon="14.854923779809">
        <ele>181</ele>
        <time>2020-03-21T08:53:28Z</time>
      </trkpt>
      <trkpt lat="56.895766141153" lon="14.855019584926">
        <ele>181</ele>
        <time>2020-03-21T08:53:34Z</time>
      </trkpt>
      <trkpt lat="56.895588444873" lon="14.855119161898">
        <ele>181.2</ele>
        <time>2020-03-21T08:53:41Z</time>
      </trkpt>
      <trkpt lat="56.895414268991" lon="14.855259391085">
        <ele>181.4</ele>
        <time>2020-03-21T08:53:47Z</time>
      </trkpt>
      <trkpt lat="56.895245373706" lon="14.85541655171">
        <ele>181.4</ele>
        <time>2020-03-21T08:53:54Z</time>
      </trkpt>
      <trkpt lat="56.895096259705" lon="14.855622830269">
        <ele>181.6</ele>
        <time>2020-03-21T08:54:00Z</time>
      </trkpt>
      <trkpt lat="56.895000203131" lon="14.855803376395">
        <ele>182</ele>
        <time>2020-03-21T08:54:04Z</time>
      </trkpt>
      <trkpt lat="56.894889478232" lon="14.856006134556">
        <ele>183.2</ele>
        <time>2020-03-21T08:54:10Z</time>
      </trkpt>
      <trkpt lat="56.894743968448" lon="14.856258178289">
        <ele>184</ele>
        <time>2020-03-21T08:54:17Z</time>
      </trkpt>
      <trkpt lat="56.894667190244" lon="14.856359766917">
        <ele>184.4</ele>
        <time>2020-03-21T08:54:20Z</time>
      </trkpt>
      <trkpt lat="56.894485303014" lon="14.856562441259">
        <ele>185.4</ele>
        <time>2020-03-21T08:54:27Z</time>
      </trkpt>
      <trkpt lat="56.894316407729" lon="14.856686493379">
        <ele>186</ele>
        <time>2020-03-21T08:54:33Z</time>
      </trkpt>
      <trkpt lat="56.894131335377" lon="14.856802331237">
        <ele>186.2</ele>
        <time>2020-03-21T08:54:39Z</time>
      </trkpt>
      <trkpt lat="56.893941904437" lon="14.856909787195">
        <ele>186.2</ele>
        <time>2020-03-21T08:54:45Z</time>
      </trkpt>
      <trkpt lat="56.893915585271" lon="14.856925461348">
        <ele>186.4</ele>
        <time>2020-03-21T08:54:46Z</time>
      </trkpt>
      <trkpt lat="56.893730596738" lon="14.857024870682">
        <ele>187</ele>
        <time>2020-03-21T08:54:53Z</time>
      </trkpt>
      <trkpt lat="56.893546446395" lon="14.857113215908">
        <ele>187.4</ele>
        <time>2020-03-21T08:55:00Z</time>
      </trkpt>
      <trkpt lat="56.893488778923" lon="14.857136852866">
        <ele>187.6</ele>
        <time>2020-03-21T08:55:02Z</time>
      </trkpt>
      <trkpt lat="56.893407390674" lon="14.857182953316">
        <ele>188.2</ele>
        <time>2020-03-21T08:55:05Z</time>
      </trkpt>
      <trkpt lat="56.893348885012" lon="14.857227461205">
        <ele>188.6</ele>
        <time>2020-03-21T08:55:07Z</time>
      </trkpt>
      <trkpt lat="56.89315291619" lon="14.857363415623">
        <ele>189.6</ele>
        <time>2020-03-21T08:55:13Z</time>
      </trkpt>
      <trkpt lat="56.893124333911" lon="14.857383951278">
        <ele>189.8</ele>
        <time>2020-03-21T08:55:14Z</time>
      </trkpt>
      <trkpt lat="56.892949152201" lon="14.857495346729">
        <ele>190.2</ele>
        <time>2020-03-21T08:55:20Z</time>
      </trkpt>
      <trkpt lat="56.892826105909" lon="14.857558713893">
        <ele>190.8</ele>
        <time>2020-03-21T08:55:25Z</time>
      </trkpt>
      <trkpt lat="56.892641033557" lon="14.85760674218">
        <ele>191</ele>
        <time>2020-03-21T08:55:33Z</time>
      </trkpt>
      <trkpt lat="56.8924479984" lon="14.857681424909">
        <ele>191.6</ele>
        <time>2020-03-21T08:55:41Z</time>
      </trkpt>
      <trkpt lat="56.892349511075" lon="14.85771905964">
        <ele>191.2</ele>
        <time>2020-03-21T08:55:44Z</time>
      </trkpt>
      <trkpt lat="56.892187656586" lon="14.857544213206">
        <ele>191.4</ele>
        <time>2020-03-21T08:55:50Z</time>
      </trkpt>
      <trkpt lat="56.892073495108" lon="14.857262916642">
        <ele>190.8</ele>
        <time>2020-03-21T08:55:56Z</time>
      </trkpt>
      <trkpt lat="56.891977103258" lon="14.856965107735">
        <ele>190.8</ele>
        <time>2020-03-21T08:56:03Z</time>
      </trkpt>
      <trkpt lat="56.891933685016" lon="14.856813143888">
        <ele>191.8</ele>
        <time>2020-03-21T08:56:07Z</time>
      </trkpt>
      <trkpt lat="56.891852296767" lon="14.856515837895">
        <ele>192.8</ele>
        <time>2020-03-21T08:56:15Z</time>
      </trkpt>
      <trkpt lat="56.891839053365" lon="14.856468899255">
        <ele>193</ele>
        <time>2020-03-21T08:56:16Z</time>
      </trkpt>
      <trkpt lat="56.891719527471" lon="14.856203193025">
        <ele>193.4</ele>
        <time>2020-03-21T08:56:23Z</time>
      </trkpt>
      <trkpt lat="56.891531437635" lon="14.856224985965">
        <ele>194</ele>
        <time>2020-03-21T08:56:30Z</time>
      </trkpt>
      <trkpt lat="56.891506627211" lon="14.856235882435">
        <ele>194.2</ele>
        <time>2020-03-21T08:56:31Z</time>
      </trkpt>
      <trkpt lat="56.891338067202" lon="14.856361108021">
        <ele>194.6</ele>
        <time>2020-03-21T08:56:37Z</time>
      </trkpt>
      <trkpt lat="56.891187528278" lon="14.856560597241">
        <ele>194.4</ele>
        <time>2020-03-21T08:56:43Z</time>
      </trkpt>
      <trkpt lat="56.891007736523" lon="14.856699904419">
        <ele>194.8</ele>
        <time>2020-03-21T08:56:49Z</time>
      </trkpt>
      <trkpt lat="56.890820903972" lon="14.856760254099">
        <ele>194.4</ele>
        <time>2020-03-21T08:56:55Z</time>
      </trkpt>
      <trkpt lat="56.89062409696" lon="14.856790764215">
        <ele>193.6</ele>
        <time>2020-03-21T08:57:02Z</time>
      </trkpt>
      <trkpt lat="56.890433744011" lon="14.856741813919">
        <ele>193.2</ele>
        <time>2020-03-21T08:57:09Z</time>
      </trkpt>
      <trkpt lat="56.890412370166" lon="14.856721948816">
        <ele>193</ele>
        <time>2020-03-21T08:57:10Z</time>
      </trkpt>
      <trkpt lat="56.890336094876" lon="14.856687834483">
        <ele>192.6</ele>
        <time>2020-03-21T08:57:13Z</time>
      </trkpt>
      <trkpt lat="56.890142640624" lon="14.856764193592">
        <ele>192.4</ele>
        <time>2020-03-21T08:57:20Z</time>
      </trkpt>
      <trkpt lat="56.889971649864" lon="14.856865614582">
        <ele>192</ele>
        <time>2020-03-21T08:57:26Z</time>
      </trkpt>
      <trkpt lat="56.889806358796" lon="14.856979692241">
        <ele>191.2</ele>
        <time>2020-03-21T08:57:32Z</time>
      </trkpt>
      <trkpt lat="56.889651461284" lon="14.857178091814">
        <ele>191.8</ele>
        <time>2020-03-21T08:57:37Z</time>
      </trkpt>
      <trkpt lat="56.889468065312" lon="14.857181863669">
        <ele>191.8</ele>
        <time>2020-03-21T08:57:43Z</time>
      </trkpt>
      <trkpt lat="56.889312497248" lon="14.857184378239">
        <ele>192.2</ele>
        <time>2020-03-21T08:57:48Z</time>
      </trkpt>
      <trkpt lat="56.889129436552" lon="14.857304742323">
        <ele>193</ele>
        <time>2020-03-21T08:57:55Z</time>
      </trkpt>
      <trkpt lat="56.888963055837" lon="14.857365678736">
        <ele>193</ele>
        <time>2020-03-21T08:58:01Z</time>
      </trkpt>
      <trkpt lat="56.888773038164" lon="14.857397781413">
        <ele>192.8</ele>
        <time>2020-03-21T08:58:09Z</time>
      </trkpt>
      <trkpt lat="56.88860405906" lon="14.857608250922">
        <ele>193.4</ele>
        <time>2020-03-21T08:58:15Z</time>
      </trkpt>
      <trkpt lat="56.888431978653" lon="14.857813691291">
        <ele>194</ele>
        <time>2020-03-21T08:58:22Z</time>
      </trkpt>
      <trkpt lat="56.88827967953" lon="14.857999937109">
        <ele>194</ele>
        <time>2020-03-21T08:58:28Z</time>
      </trkpt>
      <trkpt lat="56.888110281331" lon="14.858144524884">
        <ele>194.4</ele>
        <time>2020-03-21T08:58:36Z</time>
      </trkpt>
      <trkpt lat="56.88793350706" lon="14.858246951702">
        <ele>194.4</ele>
        <time>2020-03-21T08:58:43Z</time>
      </trkpt>
      <trkpt lat="56.887738292609" lon="14.858358179515">
        <ele>194</ele>
        <time>2020-03-21T08:58:50Z</time>
      </trkpt>
      <trkpt lat="56.887562272709" lon="14.858439483945">
        <ele>194.6</ele>
        <time>2020-03-21T08:58:56Z</time>
      </trkpt>
      <trkpt lat="56.887363789317" lon="14.858451218605">
        <ele>195.2</ele>
        <time>2020-03-21T08:59:03Z</time>
      </trkpt>
      <trkpt lat="56.887171173255" lon="14.858467228034">
        <ele>194.4</ele>
        <time>2020-03-21T08:59:10Z</time>
      </trkpt>
      <trkpt lat="56.886988615473" lon="14.858533947958">
        <ele>194.8</ele>
        <time>2020-03-21T08:59:16Z</time>
      </trkpt>
      <trkpt lat="56.886791305547" lon="14.858606870488">
        <ele>195.2</ele>
        <time>2020-03-21T08:59:22Z</time>
      </trkpt>
      <trkpt lat="56.886601706969" lon="14.858667723082">
        <ele>195.6</ele>
        <time>2020-03-21T08:59:28Z</time>
      </trkpt>
      <trkpt lat="56.886463489438" lon="14.858726061106">
        <ele>196.2</ele>
        <time>2020-03-21T08:59:33Z</time>
      </trkpt>
      <trkpt lat="56.886265844236" lon="14.858662526304">
        <ele>196.6</ele>
        <time>2020-03-21T08:59:40Z</time>
      </trkpt>
      <trkpt lat="56.886061577333" lon="14.858583484987">
        <ele>196.6</ele>
        <time>2020-03-21T08:59:47Z</time>
      </trkpt>
      <trkpt lat="56.885860327914" lon="14.858550460301">
        <ele>197</ele>
        <time>2020-03-21T08:59:54Z</time>
      </trkpt>
      <trkpt lat="56.885671148431" lon="14.858429760941">
        <ele>197</ele>
        <time>2020-03-21T09:00:01Z</time>
      </trkpt>
      <trkpt lat="56.885507952838" lon="14.858288609745">
        <ele>196.8</ele>
        <time>2020-03-21T09:00:07Z</time>
      </trkpt>
      <trkpt lat="56.885336207707" lon="14.858316018558">
        <ele>196.6</ele>
        <time>2020-03-21T09:00:13Z</time>
      </trkpt>
      <trkpt lat="56.8851557454" lon="14.858426911095">
        <ele>197.2</ele>
        <time>2020-03-21T09:00:19Z</time>
      </trkpt>
      <trkpt lat="56.88512724694" lon="14.858451553881">
        <ele>197.2</ele>
        <time>2020-03-21T09:00:20Z</time>
      </trkpt>
      <trkpt lat="56.884991041065" lon="14.858655653146">
        <ele>198.2</ele>
        <time>2020-03-21T09:00:27Z</time>
      </trkpt>
      <trkpt lat="56.885060862292" lon="14.858997215571">
        <ele>198.6</ele>
        <time>2020-03-21T09:00:34Z</time>
      </trkpt>
      <trkpt lat="56.885134287736" lon="14.859255126634">
        <ele>199.6</ele>
        <time>2020-03-21T09:00:40Z</time>
      </trkpt>
      <trkpt lat="56.885138897781" lon="14.859459309718">
        <ele>200.6</ele>
        <time>2020-03-21T09:00:44Z</time>
      </trkpt>
      <trkpt lat="56.88509036658" lon="14.859829119146">
        <ele>201.6</ele>
        <time>2020-03-21T09:00:51Z</time>
      </trkpt>
      <trkpt lat="56.885053402401" lon="14.860133968849">
        <ele>202.2</ele>
        <time>2020-03-21T09:00:57Z</time>
      </trkpt>
      <trkpt lat="56.885105705457" lon="14.86049598311">
        <ele>201.8</ele>
        <time>2020-03-21T09:01:03Z</time>
      </trkpt>
      <trkpt lat="56.885078296644" lon="14.86085975757">
        <ele>201.2</ele>
        <time>2020-03-21T09:01:10Z</time>
      </trkpt>
      <trkpt lat="56.885067483993" lon="14.861207522601">
        <ele>200.4</ele>
        <time>2020-03-21T09:01:17Z</time>
      </trkpt>
      <trkpt lat="56.885040494275" lon="14.861522179127">
        <ele>199.8</ele>
        <time>2020-03-21T09:01:24Z</time>
      </trkpt>
      <trkpt lat="56.885020964448" lon="14.861630473275">
        <ele>199.6</ele>
        <time>2020-03-21T09:01:27Z</time>
      </trkpt>
      <trkpt lat="56.884997746585" lon="14.861676909001">
        <ele>199.6</ele>
        <time>2020-03-21T09:01:29Z</time>
      </trkpt>
      <trkpt lat="56.884956507637" lon="14.861788555909">
        <ele>199.4</ele>
        <time>2020-03-21T09:01:32Z</time>
      </trkpt>
      <trkpt lat="56.884844190177" lon="14.862052921035">
        <ele>199.6</ele>
        <time>2020-03-21T09:01:38Z</time>
      </trkpt>
      <trkpt lat="56.884754168571" lon="14.862323488767">
        <ele>199.4</ele>
        <time>2020-03-21T09:01:44Z</time>
      </trkpt>
      <trkpt lat="56.884702787524" lon="14.862679216603">
        <ele>199.6</ele>
        <time>2020-03-21T09:01:51Z</time>
      </trkpt>
      <trkpt lat="56.884720892428" lon="14.862880382203">
        <ele>199.6</ele>
        <time>2020-03-21T09:01:56Z</time>
      </trkpt>
      <trkpt lat="56.884747630689" lon="14.862926901748">
        <ele>199.6</ele>
        <time>2020-03-21T09:01:58Z</time>
      </trkpt>
      <trkpt lat="56.884574376816" lon="14.86278424181">
        <ele>200</ele>
        <time>2020-03-21T09:02:08Z</time>
      </trkpt>
      <trkpt lat="56.884521403208" lon="14.862757587368">
        <ele>200.4</ele>
        <time>2020-03-21T09:02:10Z</time>
      </trkpt>
      <trkpt lat="56.884340521806" lon="14.862722886302">
        <ele>200.8</ele>
        <time>2020-03-21T09:02:16Z</time>
      </trkpt>
      <trkpt lat="56.884161735879" lon="14.862633535248">
        <ele>201.2</ele>
        <time>2020-03-21T09:02:22Z</time>
      </trkpt>
      <trkpt lat="56.884141451681" lon="14.862302198741">
        <ele>200.6</ele>
        <time>2020-03-21T09:02:29Z</time>
      </trkpt>
      <trkpt lat="56.884128292098" lon="14.862122239348">
        <ele>200.6</ele>
        <time>2020-03-21T09:02:33Z</time>
      </trkpt>
      <trkpt lat="56.883975406242" lon="14.861887294691">
        <ele>200.8</ele>
        <time>2020-03-21T09:02:41Z</time>
      </trkpt>
      <trkpt lat="56.883856969995" lon="14.86163089237">
        <ele>201</ele>
        <time>2020-03-21T09:02:48Z</time>
      </trkpt>
      <trkpt lat="56.883789663338" lon="14.861352026557">
        <ele>201.4</ele>
        <time>2020-03-21T09:02:55Z</time>
      </trkpt>
      <trkpt lat="56.883667539055" lon="14.861073663658">
        <ele>201.6</ele>
        <time>2020-03-21T09:03:02Z</time>
      </trkpt>
      <trkpt lat="56.883538290157" lon="14.860810639636">
        <ele>201.2</ele>
        <time>2020-03-21T09:03:08Z</time>
      </trkpt>
      <trkpt lat="56.883496380657" lon="14.86076420391">
        <ele>200.8</ele>
        <time>2020-03-21T09:03:10Z</time>
      </trkpt>
      <trkpt lat="56.883300160378" lon="14.86082622997">
        <ele>200.6</ele>
        <time>2020-03-21T09:03:16Z</time>
      </trkpt>
      <trkpt lat="56.883156829888" lon="14.860832348757">
        <ele>200.2</ele>
        <time>2020-03-21T09:03:21Z</time>
      </trkpt>
      <trkpt lat="56.882971673717" lon="14.860758420399">
        <ele>200</ele>
        <time>2020-03-21T09:03:28Z</time>
      </trkpt>
      <trkpt lat="56.882768915556" lon="14.860751882517">
        <ele>200.6</ele>
        <time>2020-03-21T09:03:36Z</time>
      </trkpt>
      <trkpt lat="56.882566827947" lon="14.860834779508">
        <ele>200.6</ele>
        <time>2020-03-21T09:03:42Z</time>
      </trkpt>
      <trkpt lat="56.882363231596" lon="14.860912982635">
        <ele>200.8</ele>
        <time>2020-03-21T09:03:48Z</time>
      </trkpt>
      <trkpt lat="56.882167262774" lon="14.860976685075">
        <ele>201</ele>
        <time>2020-03-21T09:03:54Z</time>
      </trkpt>
      <trkpt lat="56.882055196771" lon="14.861011972874">
        <ele>201.4</ele>
        <time>2020-03-21T09:03:58Z</time>
      </trkpt>
      <trkpt lat="56.881875991749" lon="14.861068550699">
        <ele>201.4</ele>
        <time>2020-03-21T09:04:04Z</time>
      </trkpt>
      <trkpt lat="56.881684968248" lon="14.861138120469">
        <ele>201.6</ele>
        <time>2020-03-21T09:04:10Z</time>
      </trkpt>
      <trkpt lat="56.881499057706" lon="14.861206935868">
        <ele>201.6</ele>
        <time>2020-03-21T09:04:16Z</time>
      </trkpt>
      <trkpt lat="56.881314655906" lon="14.861294694361">
        <ele>201.4</ele>
        <time>2020-03-21T09:04:22Z</time>
      </trkpt>
      <trkpt lat="56.881116759247" lon="14.861362252475">
        <ele>201.4</ele>
        <time>2020-03-21T09:04:31Z</time>
      </trkpt>
      <trkpt lat="56.880905619186" lon="14.861362001018">
        <ele>201.2</ele>
        <time>2020-03-21T09:04:39Z</time>
      </trkpt>
      <trkpt lat="56.88077955541" lon="14.861141305591">
        <ele>200.6</ele>
        <time>2020-03-21T09:04:45Z</time>
      </trkpt>
      <trkpt lat="56.880756169909" lon="14.861032340891">
        <ele>200.2</ele>
        <time>2020-03-21T09:04:47Z</time>
      </trkpt>
      <trkpt lat="56.88071166202" lon="14.860947013149">
        <ele>200.4</ele>
        <time>2020-03-21T09:04:50Z</time>
      </trkpt>
      <trkpt lat="56.880514519732" lon="14.861031251244">
        <ele>200</ele>
        <time>2020-03-21T09:04:56Z</time>
      </trkpt>
      <trkpt lat="56.880339002746" lon="14.861274242525">
        <ele>199.8</ele>
        <time>2020-03-21T09:05:01Z</time>
      </trkpt>
      <trkpt lat="56.880248394407" lon="14.861358732077">
        <ele>199.8</ele>
        <time>2020-03-21T09:05:04Z</time>
      </trkpt>
      <trkpt lat="56.880051503576" lon="14.861478593247">
        <ele>199.8</ele>
        <time>2020-03-21T09:05:10Z</time>
      </trkpt>
      <trkpt lat="56.879878668798" lon="14.861614380027">
        <ele>200</ele>
        <time>2020-03-21T09:05:16Z</time>
      </trkpt>
      <trkpt lat="56.879712120445" lon="14.861741701088">
        <ele>200</ele>
        <time>2020-03-21T09:05:25Z</time>
      </trkpt>
      <trkpt lat="56.879525706989" lon="14.861828202296">
        <ele>199.2</ele>
        <time>2020-03-21T09:05:34Z</time>
      </trkpt>
      <trkpt lat="56.879385813078" lon="14.861925432336">
        <ele>199.2</ele>
        <time>2020-03-21T09:05:39Z</time>
      </trkpt>
      <trkpt lat="56.8791962145" lon="14.861839517861">
        <ele>198.8</ele>
        <time>2020-03-21T09:05:46Z</time>
      </trkpt>
      <trkpt lat="56.878999407488" lon="14.861777324163">
        <ele>198.4</ele>
        <time>2020-03-21T09:05:53Z</time>
      </trkpt>
      <trkpt lat="56.878927742243" lon="14.861703647262">
        <ele>198.2</ele>
        <time>2020-03-21T09:05:56Z</time>
      </trkpt>
      <trkpt lat="56.87880310339" lon="14.861418578843">
        <ele>198.8</ele>
        <time>2020-03-21T09:06:04Z</time>
      </trkpt>
      <trkpt lat="56.878746525565" lon="14.861339705164">
        <ele>198.2</ele>
        <time>2020-03-21T09:06:07Z</time>
      </trkpt>
      <trkpt lat="56.878676452881" lon="14.86100057349">
        <ele>197.8</ele>
        <time>2020-03-21T09:06:16Z</time>
      </trkpt>
      <trkpt lat="56.878717356553" lon="14.86065356283">
        <ele>198.6</ele>
        <time>2020-03-21T09:06:22Z</time>
      </trkpt>
      <trkpt lat="56.878718781476" lon="14.860361202158">
        <ele>198.4</ele>
        <time>2020-03-21T09:06:28Z</time>
      </trkpt>
      <trkpt lat="56.878586347456" lon="14.860098094317">
        <ele>198.2</ele>
        <time>2020-03-21T09:06:35Z</time>
      </trkpt>
      <trkpt lat="56.878467911209" lon="14.859879745822">
        <ele>197</ele>
        <time>2020-03-21T09:06:44Z</time>
      </trkpt>
      <trkpt lat="56.87844351988" lon="14.859566095124">
        <ele>197.8</ele>
        <time>2020-03-21T09:06:53Z</time>
      </trkpt>
      <trkpt lat="56.878426085528" lon="14.859499878114">
        <ele>198</ele>
        <time>2020-03-21T09:06:54Z</time>
      </trkpt>
      <trkpt lat="56.878374369205" lon="14.859184299579">
        <ele>197.8</ele>
        <time>2020-03-21T09:07:02Z</time>
      </trkpt>
      <trkpt lat="56.878280408106" lon="14.858908870345">
        <ele>197.6</ele>
        <time>2020-03-21T09:07:06Z</time>
      </trkpt>
      <trkpt lat="56.878239252977" lon="14.858640146631">
        <ele>197.6</ele>
        <time>2020-03-21T09:07:12Z</time>
      </trkpt>
      <trkpt lat="56.878126600241" lon="14.858376871152">
        <ele>198.6</ele>
        <time>2020-03-21T09:07:21Z</time>
      </trkpt>
      <trkpt lat="56.8780395123" lon="14.858202527632">
        <ele>199</ele>
        <time>2020-03-21T09:07:25Z</time>
      </trkpt>
      <trkpt lat="56.878003553949" lon="14.858049977052">
        <ele>199.6</ele>
        <time>2020-03-21T09:07:29Z</time>
      </trkpt>
      <trkpt lat="56.877969355797" lon="14.857927433674">
        <ele>200.2</ele>
        <time>2020-03-21T09:07:31Z</time>
      </trkpt>
      <trkpt lat="56.877906072452" lon="14.857763818986">
        <ele>200.6</ele>
        <time>2020-03-21T09:07:34Z</time>
      </trkpt>
      <trkpt lat="56.8777461458" lon="14.857566173784">
        <ele>200.6</ele>
        <time>2020-03-21T09:07:39Z</time>
      </trkpt>
      <trkpt lat="56.877629385933" lon="14.857484031164">
        <ele>199.8</ele>
        <time>2020-03-21T09:07:43Z</time>
      </trkpt>
      <trkpt lat="56.877482786502" lon="14.857545135215">
        <ele>200.6</ele>
        <time>2020-03-21T09:07:49Z</time>
      </trkpt>
      <trkpt lat="56.877357896192" lon="14.857388728961">
        <ele>199.2</ele>
        <time>2020-03-21T09:07:56Z</time>
      </trkpt>
      <trkpt lat="56.877353202328" lon="14.857348747298">
        <ele>199</ele>
        <time>2020-03-21T09:07:57Z</time>
      </trkpt>
      <trkpt lat="56.877464681598" lon="14.857076754643">
        <ele>198.4</ele>
        <time>2020-03-21T09:08:06Z</time>
      </trkpt>
      <trkpt lat="56.877558977973" lon="14.856958653672">
        <ele>200.2</ele>
        <time>2020-03-21T09:08:11Z</time>
      </trkpt>
      <trkpt lat="56.877648245208" lon="14.856655480349">
        <ele>199.8</ele>
        <time>2020-03-21T09:08:18Z</time>
      </trkpt>
      <trkpt lat="56.877736841891" lon="14.856316181037">
        <ele>199.4</ele>
        <time>2020-03-21T09:08:26Z</time>
      </trkpt>
      <trkpt lat="56.877772381147" lon="14.856114177247">
        <ele>199</ele>
        <time>2020-03-21T09:08:30Z</time>
      </trkpt>
      <trkpt lat="56.877812865724" lon="14.855996914466">
        <ele>197.8</ele>
        <time>2020-03-21T09:08:33Z</time>
      </trkpt>
      <trkpt lat="56.87780314272" lon="14.855767585682">
        <ele>196.8</ele>
        <time>2020-03-21T09:08:36Z</time>
      </trkpt>
      <trkpt lat="56.8777629096" lon="14.855431890587">
        <ele>196.2</ele>
        <time>2020-03-21T09:08:42Z</time>
      </trkpt>
      <trkpt lat="56.877660901877" lon="14.855145732521">
        <ele>195.8</ele>
        <time>2020-03-21T09:08:50Z</time>
      </trkpt>
      <trkpt lat="56.877574484488" lon="14.854825963036">
        <ele>197</ele>
        <time>2020-03-21T09:08:58Z</time>
      </trkpt>
      <trkpt lat="56.877559648525" lon="14.854467050078">
        <ele>196.6</ele>
        <time>2020-03-21T09:09:05Z</time>
      </trkpt>
      <trkpt lat="56.877546321304" lon="14.854134875381">
        <ele>195.8</ele>
        <time>2020-03-21T09:09:12Z</time>
      </trkpt>
      <trkpt lat="56.877449175083" lon="14.853972853254">
        <ele>197</ele>
        <time>2020-03-21T09:09:16Z</time>
      </trkpt>
      <trkpt lat="56.877348257007" lon="14.853648557543">
        <ele>197.8</ele>
        <time>2020-03-21T09:09:22Z</time>
      </trkpt>
      <trkpt lat="56.87728597949" lon="14.853318981235">
        <ele>198</ele>
        <time>2020-03-21T09:09:28Z</time>
      </trkpt>
      <trkpt lat="56.877208698372" lon="14.852994350248">
        <ele>198.4</ele>
        <time>2020-03-21T09:09:35Z</time>
      </trkpt>
      <trkpt lat="56.87715354547" lon="14.852723028145">
        <ele>199</ele>
        <time>2020-03-21T09:09:41Z</time>
      </trkpt>
      <trkpt lat="56.877057656534" lon="14.852442066857">
        <ele>199.4</ele>
        <time>2020-03-21T09:09:48Z</time>
      </trkpt>
      <trkpt lat="56.876910805646" lon="14.852232435538">
        <ele>199.6</ele>
        <time>2020-03-21T09:09:55Z</time>
      </trkpt>
      <trkpt lat="56.876805361344" lon="14.852149957642">
        <ele>200</ele>
        <time>2020-03-21T09:09:59Z</time>
      </trkpt>
      <trkpt lat="56.876657756085" lon="14.851930016586">
        <ele>200.2</ele>
        <time>2020-03-21T09:10:06Z</time>
      </trkpt>
      <trkpt lat="56.87649556632" lon="14.851778388015">
        <ele>200</ele>
        <time>2020-03-21T09:10:12Z</time>
      </trkpt>
      <trkpt lat="56.876370340734" lon="14.851480746746">
        <ele>199.2</ele>
        <time>2020-03-21T09:10:19Z</time>
      </trkpt>
      <trkpt lat="56.876281324956" lon="14.851299613887">
        <ele>199</ele>
        <time>2020-03-21T09:10:23Z</time>
      </trkpt>
      <trkpt lat="56.876129864023" lon="14.851071290931">
        <ele>198.4</ele>
        <time>2020-03-21T09:10:29Z</time>
      </trkpt>
      <trkpt lat="56.87605803114" lon="14.850976240185">
        <ele>197.8</ele>
        <time>2020-03-21T09:10:32Z</time>
      </trkpt>
      <trkpt lat="56.875890309321" lon="14.851023933196">
        <ele>197.2</ele>
        <time>2020-03-21T09:10:38Z</time>
      </trkpt>
      <trkpt lat="56.875768771771" lon="14.851282263354">
        <ele>197.4</ele>
        <time>2020-03-21T09:10:44Z</time>
      </trkpt>
      <trkpt lat="56.875613706621" lon="14.851528858852">
        <ele>197.6</ele>
        <time>2020-03-21T09:10:51Z</time>
      </trkpt>
      <trkpt lat="56.875460820765" lon="14.851711165177">
        <ele>197.8</ele>
        <time>2020-03-21T09:10:57Z</time>
      </trkpt>
      <trkpt lat="56.875323106148" lon="14.851845610853">
        <ele>197.8</ele>
        <time>2020-03-21T09:11:02Z</time>
      </trkpt>
      <trkpt lat="56.875153875587" lon="14.851993551388">
        <ele>197.8</ele>
        <time>2020-03-21T09:11:08Z</time>
      </trkpt>
      <trkpt lat="56.875036780444" lon="14.852005202229">
        <ele>197.8</ele>
        <time>2020-03-21T09:11:12Z</time>
      </trkpt>
      <trkpt lat="56.874926223183" lon="14.851721474914">
        <ele>197.6</ele>
        <time>2020-03-21T09:11:18Z</time>
      </trkpt>
      <trkpt lat="56.874830418066" lon="14.851462558023">
        <ele>196.8</ele>
        <time>2020-03-21T09:11:23Z</time>
      </trkpt>
      <trkpt lat="56.874719944624" lon="14.85118872135">
        <ele>196</ele>
        <time>2020-03-21T09:11:29Z</time>
      </trkpt>
      <trkpt lat="56.874697145856" lon="14.851093586785">
        <ele>195.6</ele>
        <time>2020-03-21T09:11:31Z</time>
      </trkpt>
      <trkpt lat="56.874603687671" lon="14.85080399214">
        <ele>195.2</ele>
        <time>2020-03-21T09:11:37Z</time>
      </trkpt>
      <trkpt lat="56.874514504255" lon="14.850503417206">
        <ele>195</ele>
        <time>2020-03-21T09:11:43Z</time>
      </trkpt>
      <trkpt lat="56.874435379119" lon="14.85015439489">
        <ele>194.6</ele>
        <time>2020-03-21T09:11:50Z</time>
      </trkpt>
      <trkpt lat="56.874309399162" lon="14.849917857672">
        <ele>194.2</ele>
        <time>2020-03-21T09:11:56Z</time>
      </trkpt>
      <trkpt lat="56.874142850809" lon="14.849777712304">
        <ele>194.4</ele>
        <time>2020-03-21T09:12:02Z</time>
      </trkpt>
      <trkpt lat="56.874039166706" lon="14.849477388827">
        <ele>193.8</ele>
        <time>2020-03-21T09:12:09Z</time>
      </trkpt>
      <trkpt lat="56.873925591961" lon="14.849202546326">
        <ele>194.2</ele>
        <time>2020-03-21T09:12:16Z</time>
      </trkpt>
      <trkpt lat="56.873817633089" lon="14.848935498992">
        <ele>194.6</ele>
        <time>2020-03-21T09:12:23Z</time>
      </trkpt>
      <trkpt lat="56.87371780466" lon="14.848625620149">
        <ele>194.4</ele>
        <time>2020-03-21T09:12:29Z</time>
      </trkpt>
      <trkpt lat="56.873598865499" lon="14.848359075729">
        <ele>194</ele>
        <time>2020-03-21T09:12:35Z</time>
      </trkpt>
      <trkpt lat="56.873471795895" lon="14.848103176322">
        <ele>193.8</ele>
        <time>2020-03-21T09:12:41Z</time>
      </trkpt>
      <trkpt lat="56.873435753725" lon="14.848021704254">
        <ele>193.4</ele>
        <time>2020-03-21T09:12:43Z</time>
      </trkpt>
      <trkpt lat="56.873306504827" lon="14.847772175091">
        <ele>193.2</ele>
        <time>2020-03-21T09:12:50Z</time>
      </trkpt>
      <trkpt lat="56.873265601155" lon="14.847621217072">
        <ele>192.8</ele>
        <time>2020-03-21T09:12:55Z</time>
      </trkpt>
      <trkpt lat="56.873250765192" lon="14.847606632566">
        <ele>192.6</ele>
        <time>2020-03-21T09:12:56Z</time>
      </trkpt>
      <trkpt lat="56.873235593953" lon="14.847603363625">
        <ele>192.4</ele>
        <time>2020-03-21T09:12:57Z</time>
      </trkpt>
      <trkpt lat="56.873179016128" lon="14.84761467919">
        <ele>192</ele>
        <time>2020-03-21T09:13:00Z</time>
      </trkpt>
      <trkpt lat="56.873143560691" lon="14.84752415467">
        <ele>192.6</ele>
        <time>2020-03-21T09:13:04Z</time>
      </trkpt>
      <trkpt lat="56.873087234323" lon="14.847470845786">
        <ele>192.4</ele>
        <time>2020-03-21T09:13:08Z</time>
      </trkpt>
      <trkpt lat="56.873075248206" lon="14.847408903545">
        <ele>192.2</ele>
        <time>2020-03-21T09:13:12Z</time>
      </trkpt>
      <trkpt lat="56.873063513546" lon="14.847389960451">
        <ele>192.2</ele>
        <time>2020-03-21T09:13:14Z</time>
      </trkpt>
      <trkpt lat="56.87301456325" lon="14.84731460717">
        <ele>192.2</ele>
        <time>2020-03-21T09:13:18Z</time>
      </trkpt>
      <trkpt lat="56.872988327903" lon="14.847301866682">
        <ele>192.2</ele>
        <time>2020-03-21T09:13:20Z</time>
      </trkpt>
      <trkpt lat="56.87297852108" lon="14.847167756282">
        <ele>192.4</ele>
        <time>2020-03-21T09:13:25Z</time>
      </trkpt>
      <trkpt lat="56.872863269955" lon="14.846889980116">
        <ele>192.6</ele>
        <time>2020-03-21T09:13:33Z</time>
      </trkpt>
      <trkpt lat="56.872759166757" lon="14.846617149271">
        <ele>192</ele>
        <time>2020-03-21T09:13:43Z</time>
      </trkpt>
      <trkpt lat="56.872691943919" lon="14.846555793763">
        <ele>192.2</ele>
        <time>2020-03-21T09:13:46Z</time>
      </trkpt>
      <trkpt lat="56.872595552069" lon="14.846525702742">
        <ele>192.4</ele>
        <time>2020-03-21T09:13:50Z</time>
      </trkpt>
      <trkpt lat="56.872410144441" lon="14.846397208215">
        <ele>192.6</ele>
        <time>2020-03-21T09:13:58Z</time>
      </trkpt>
      <trkpt lat="56.872272429824" lon="14.84641606749">
        <ele>192.2</ele>
        <time>2020-03-21T09:14:02Z</time>
      </trkpt>
      <trkpt lat="56.87208752511" lon="14.846429394711">
        <ele>192.6</ele>
        <time>2020-03-21T09:14:08Z</time>
      </trkpt>
      <trkpt lat="56.87193832729" lon="14.846427466874">
        <ele>192.6</ele>
        <time>2020-03-21T09:14:14Z</time>
      </trkpt>
      <trkpt lat="56.871747722884" lon="14.846350521032">
        <ele>192.4</ele>
        <time>2020-03-21T09:14:21Z</time>
      </trkpt>
      <trkpt lat="56.871556447926" lon="14.846268294593">
        <ele>192.2</ele>
        <time>2020-03-21T09:14:29Z</time>
      </trkpt>
      <trkpt lat="56.871378584008" lon="14.846233677346">
        <ele>192.6</ele>
        <time>2020-03-21T09:14:37Z</time>
      </trkpt>
      <trkpt lat="56.871207509429" lon="14.846130077062">
        <ele>192</ele>
        <time>2020-03-21T09:14:47Z</time>
      </trkpt>
      <trkpt lat="56.871175490571" lon="14.846118593859">
        <ele>191.8</ele>
        <time>2020-03-21T09:14:49Z</time>
      </trkpt>
      <trkpt lat="56.871082032386" lon="14.84608162968">
        <ele>192</ele>
        <time>2020-03-21T09:14:55Z</time>
      </trkpt>
      <trkpt lat="56.871040877257" lon="14.846060172016">
        <ele>192.4</ele>
        <time>2020-03-21T09:14:57Z</time>
      </trkpt>
      <trkpt lat="56.870861336959" lon="14.846035696868">
        <ele>192.8</ele>
        <time>2020-03-21T09:15:02Z</time>
      </trkpt>
      <trkpt lat="56.870767292041" lon="14.845686255457">
        <ele>192.6</ele>
        <time>2020-03-21T09:15:11Z</time>
      </trkpt>
      <trkpt lat="56.870666206327" lon="14.845401941409">
        <ele>193</ele>
        <time>2020-03-21T09:15:17Z</time>
      </trkpt>
      <trkpt lat="56.870627314311" lon="14.845308064129">
        <ele>193</ele>
        <time>2020-03-21T09:15:20Z</time>
      </trkpt>
      <trkpt lat="56.870439475932" lon="14.845263472421">
        <ele>192.6</ele>
        <time>2020-03-21T09:15:28Z</time>
      </trkpt>
      <trkpt lat="56.870423047408" lon="14.845259030014">
        <ele>192.8</ele>
        <time>2020-03-21T09:15:29Z</time>
      </trkpt>
      <trkpt lat="56.870334366906" lon="14.845251653942">
        <ele>193.4</ele>
        <time>2020-03-21T09:15:33Z</time>
      </trkpt>
      <trkpt lat="56.87015130621" lon="14.845064318477">
        <ele>193.8</ele>
        <time>2020-03-21T09:15:40Z</time>
      </trkpt>
      <trkpt lat="56.870046700098" lon="14.844941439823">
        <ele>194.2</ele>
        <time>2020-03-21T09:15:46Z</time>
      </trkpt>
      <trkpt lat="56.870003952408" lon="14.844919311607">
        <ele>194.6</ele>
        <time>2020-03-21T09:15:48Z</time>
      </trkpt>
      <trkpt lat="56.869990541368" lon="14.844901122884">
        <ele>194.8</ele>
        <time>2020-03-21T09:15:49Z</time>
      </trkpt>
      <trkpt lat="56.869846288869" lon="14.844702471854">
        <ele>195.2</ele>
        <time>2020-03-21T09:15:57Z</time>
      </trkpt>
      <trkpt lat="56.869670688064" lon="14.844539695356">
        <ele>194.8</ele>
        <time>2020-03-21T09:16:04Z</time>
      </trkpt>
      <trkpt lat="56.869508833575" lon="14.844390497536">
        <ele>194.6</ele>
        <time>2020-03-21T09:16:09Z</time>
      </trkpt>
      <trkpt lat="56.869352930235" lon="14.84421414236">
        <ele>195.4</ele>
        <time>2020-03-21T09:16:14Z</time>
      </trkpt>
      <trkpt lat="56.869291574727" lon="14.844178016371">
        <ele>195.6</ele>
        <time>2020-03-21T09:16:17Z</time>
      </trkpt>
      <trkpt lat="56.869265842294" lon="14.844159408553">
        <ele>195.8</ele>
        <time>2020-03-21T09:16:18Z</time>
      </trkpt>
      <trkpt lat="56.869247988847" lon="14.844157732173">
        <ele>195.6</ele>
        <time>2020-03-21T09:16:19Z</time>
      </trkpt>
      <trkpt lat="56.869063251771" lon="14.844097801588">
        <ele>195.4</ele>
        <time>2020-03-21T09:16:27Z</time>
      </trkpt>
      <trkpt lat="56.869082865417" lon="14.843756155344">
        <ele>196</ele>
        <time>2020-03-21T09:16:36Z</time>
      </trkpt>
      <trkpt lat="56.869147070771" lon="14.843446779415">
        <ele>196.4</ele>
        <time>2020-03-21T09:16:43Z</time>
      </trkpt>
      <trkpt lat="56.869311691287" lon="14.843304873848">
        <ele>196.2</ele>
        <time>2020-03-21T09:16:52Z</time>
      </trkpt>
      <trkpt lat="56.869502295693" lon="14.843269334592">
        <ele>195.2</ele>
        <time>2020-03-21T09:17:00Z</time>
      </trkpt>
      <trkpt lat="56.869626850727" lon="14.843203955772">
        <ele>197</ele>
        <time>2020-03-21T09:17:06Z</time>
      </trkpt>
      <trkpt lat="56.86966180325" lon="14.843188952171">
        <ele>198.2</ele>
        <time>2020-03-21T09:17:08Z</time>
      </trkpt>
      <trkpt lat="56.869696839592" lon="14.843173864751">
        <ele>199.6</ele>
        <time>2020-03-21T09:17:10Z</time>
      </trkpt>
      <trkpt lat="56.86975735691" lon="14.843147210309">
        <ele>200.6</ele>
        <time>2020-03-21T09:17:13Z</time>
      </trkpt>
      <trkpt lat="56.869849222534" lon="14.843136565296">
        <ele>202</ele>
        <time>2020-03-21T09:17:18Z</time>
      </trkpt>
      <trkpt lat="56.869898927201" lon="14.843137319667">
        <ele>203.2</ele>
        <time>2020-03-21T09:17:20Z</time>
      </trkpt>
      <trkpt lat="56.869982997658" lon="14.843146623576">
        <ele>204.4</ele>
        <time>2020-03-21T09:17:24Z</time>
      </trkpt>
      <trkpt lat="56.869997833621" lon="14.843157268589">
        <ele>204.4</ele>
        <time>2020-03-21T09:17:25Z</time>
      </trkpt>
      <trkpt lat="56.870055501093" lon="14.843186772877">
        <ele>205.4</ele>
        <time>2020-03-21T09:17:29Z</time>
      </trkpt>
      <trkpt lat="56.870223977283" lon="14.843190125637">
        <ele>204</ele>
        <time>2020-03-21T09:17:38Z</time>
      </trkpt>
      <trkpt lat="56.870241076359" lon="14.843173613294">
        <ele>203.6</ele>
        <time>2020-03-21T09:17:39Z</time>
      </trkpt>
      <trkpt lat="56.870275525968" lon="14.843153496734">
        <ele>202.8</ele>
        <time>2020-03-21T09:17:40Z</time>
      </trkpt>
      <trkpt lat="56.870305114075" lon="14.843122735161">
        <ele>201.6</ele>
        <time>2020-03-21T09:17:42Z</time>
      </trkpt>
      <trkpt lat="56.870366637221" lon="14.843083088774">
        <ele>200.6</ele>
        <time>2020-03-21T09:17:45Z</time>
      </trkpt>
      <trkpt lat="56.870419946105" lon="14.843031540089">
        <ele>199.2</ele>
        <time>2020-03-21T09:17:47Z</time>
      </trkpt>
      <trkpt lat="56.870445762357" lon="14.842995917014">
        <ele>198.2</ele>
        <time>2020-03-21T09:17:48Z</time>
      </trkpt>
      <trkpt lat="56.870484989649" lon="14.842927939805">
        <ele>196.6</ele>
        <time>2020-03-21T09:17:50Z</time>
      </trkpt>
      <trkpt lat="56.870548859727" lon="14.842843534072">
        <ele>195.4</ele>
        <time>2020-03-21T09:17:53Z</time>
      </trkpt>
      <trkpt lat="56.870577861101" lon="14.842794919052">
        <ele>195.2</ele>
        <time>2020-03-21T09:17:55Z</time>
      </trkpt>
      <trkpt lat="56.870631756718" lon="14.842769018981">
        <ele>194.8</ele>
        <time>2020-03-21T09:17:57Z</time>
      </trkpt>
      <trkpt lat="56.870702080859" lon="14.8426433743">
        <ele>194.2</ele>
        <time>2020-03-21T09:18:00Z</time>
      </trkpt>
      <trkpt lat="56.870719766668" lon="14.84253524779">
        <ele>193</ele>
        <time>2020-03-21T09:18:02Z</time>
      </trkpt>
      <trkpt lat="56.870728902939" lon="14.842396778802">
        <ele>192.4</ele>
        <time>2020-03-21T09:18:05Z</time>
      </trkpt>
      <trkpt lat="56.870770058068" lon="14.842177759755">
        <ele>192.6</ele>
        <time>2020-03-21T09:18:10Z</time>
      </trkpt>
      <trkpt lat="56.870886985573" lon="14.841891685508">
        <ele>192.6</ele>
        <time>2020-03-21T09:18:17Z</time>
      </trkpt>
      <trkpt lat="56.871044313836" lon="14.841690100813">
        <ele>193.4</ele>
        <time>2020-03-21T09:18:25Z</time>
      </trkpt>
      <trkpt lat="56.871099885833" lon="14.841677444144">
        <ele>192.8</ele>
        <time>2020-03-21T09:18:29Z</time>
      </trkpt>
      <trkpt lat="56.871184459204" lon="14.841961674373">
        <ele>193.6</ele>
        <time>2020-03-21T09:18:41Z</time>
      </trkpt>
      <trkpt lat="56.871192254371" lon="14.841994196145">
        <ele>193.6</ele>
        <time>2020-03-21T09:18:42Z</time>
      </trkpt>
      <trkpt lat="56.871238773916" lon="14.842062089535">
        <ele>194</ele>
        <time>2020-03-21T09:18:45Z</time>
      </trkpt>
      <trkpt lat="56.871403645889" lon="14.842248167715">
        <ele>194.8</ele>
        <time>2020-03-21T09:18:53Z</time>
      </trkpt>
      <trkpt lat="56.871561477066" lon="14.842239953453">
        <ele>194.6</ele>
        <time>2020-03-21T09:18:59Z</time>
      </trkpt>
      <trkpt lat="56.871753506395" lon="14.842247329525">
        <ele>194.8</ele>
        <time>2020-03-21T09:19:07Z</time>
      </trkpt>
      <trkpt lat="56.871918797463" lon="14.8423080983">
        <ele>195</ele>
        <time>2020-03-21T09:19:10Z</time>
      </trkpt>
      <trkpt lat="56.872116945579" lon="14.84238437359">
        <ele>195.4</ele>
        <time>2020-03-21T09:19:14Z</time>
      </trkpt>
      <trkpt lat="56.87216966773" lon="14.842421337769">
        <ele>195.2</ele>
        <time>2020-03-21T09:19:16Z</time>
      </trkpt>
      <trkpt lat="56.87233646754" lon="14.842602638266">
        <ele>194.4</ele>
        <time>2020-03-21T09:19:23Z</time>
      </trkpt>
      <trkpt lat="56.872368821674" lon="14.842638764255">
        <ele>193.8</ele>
        <time>2020-03-21T09:19:25Z</time>
      </trkpt>
      <trkpt lat="56.872559845175" lon="14.842636584961">
        <ele>193.6</ele>
        <time>2020-03-21T09:19:34Z</time>
      </trkpt>
      <trkpt lat="56.872699822905" lon="14.842405160702">
        <ele>193.4</ele>
        <time>2020-03-21T09:19:41Z</time>
      </trkpt>
      <trkpt lat="56.872827898337" lon="14.842115733695">
        <ele>193.8</ele>
        <time>2020-03-21T09:19:48Z</time>
      </trkpt>
      <trkpt lat="56.872920602151" lon="14.841825971412">
        <ele>194.2</ele>
        <time>2020-03-21T09:19:54Z</time>
      </trkpt>
      <trkpt lat="56.873043732262" lon="14.841560516639">
        <ele>194</ele>
        <time>2020-03-21T09:20:01Z</time>
      </trkpt>
      <trkpt lat="56.873076673129" lon="14.841436464519">
        <ele>192.4</ele>
        <time>2020-03-21T09:20:04Z</time>
      </trkpt>
      <trkpt lat="56.873179351404" lon="14.841167405529">
        <ele>191.4</ele>
        <time>2020-03-21T09:20:11Z</time>
      </trkpt>
      <trkpt lat="56.87319058315" lon="14.841134883757">
        <ele>191.2</ele>
        <time>2020-03-21T09:20:12Z</time>
      </trkpt>
      <trkpt lat="56.873224362207" lon="14.841010915456">
        <ele>189.8</ele>
        <time>2020-03-21T09:20:15Z</time>
      </trkpt>
      <trkpt lat="56.873303654981" lon="14.840813354073">
        <ele>188.6</ele>
        <time>2020-03-21T09:20:20Z</time>
      </trkpt>
      <trkpt lat="56.873324777369" lon="14.840665664995">
        <ele>188.2</ele>
        <time>2020-03-21T09:20:23Z</time>
      </trkpt>
      <trkpt lat="56.873456457018" lon="14.840577403588">
        <ele>187.6</ele>
        <time>2020-03-21T09:20:29Z</time>
      </trkpt>
      <trkpt lat="56.873577407835" lon="14.840512779139">
        <ele>186.4</ele>
        <time>2020-03-21T09:20:35Z</time>
      </trkpt>
      <trkpt lat="56.873766335861" lon="14.840475144408">
        <ele>186.4</ele>
        <time>2020-03-21T09:20:42Z</time>
      </trkpt>
      <trkpt lat="56.873796091606" lon="14.840457207142">
        <ele>186.6</ele>
        <time>2020-03-21T09:20:43Z</time>
      </trkpt>
      <trkpt lat="56.873957694638" lon="14.840301639078">
        <ele>187.2</ele>
        <time>2020-03-21T09:20:50Z</time>
      </trkpt>
      <trkpt lat="56.873985774003" lon="14.840285629649">
        <ele>187.6</ele>
        <time>2020-03-21T09:20:51Z</time>
      </trkpt>
      <trkpt lat="56.874060372913" lon="14.840190075989">
        <ele>188.8</ele>
        <time>2020-03-21T09:20:55Z</time>
      </trkpt>
      <trkpt lat="56.874243433609" lon="14.840181694089">
        <ele>189.2</ele>
        <time>2020-03-21T09:21:04Z</time>
      </trkpt>
      <trkpt lat="56.874420962251" lon="14.840119416572">
        <ele>189.4</ele>
        <time>2020-03-21T09:21:11Z</time>
      </trkpt>
      <trkpt lat="56.874558173954" lon="14.839865193545">
        <ele>187.8</ele>
        <time>2020-03-21T09:21:18Z</time>
      </trkpt>
      <trkpt lat="56.874594132305" lon="14.839797048698">
        <ele>186.4</ele>
        <time>2020-03-21T09:21:20Z</time>
      </trkpt>
      <trkpt lat="56.874748610722" lon="14.839563277507">
        <ele>185.2</ele>
        <time>2020-03-21T09:21:27Z</time>
      </trkpt>
      <trkpt lat="56.874822455261" lon="14.839340821881">
        <ele>184.2</ele>
        <time>2020-03-21T09:21:32Z</time>
      </trkpt>
      <trkpt lat="56.874847014228" lon="14.839241915461">
        <ele>183.2</ele>
        <time>2020-03-21T09:21:34Z</time>
      </trkpt>
      <trkpt lat="56.874866208779" lon="14.839197239934">
        <ele>182.8</ele>
        <time>2020-03-21T09:21:35Z</time>
      </trkpt>
      <trkpt lat="56.874960421335" lon="14.838966653865">
        <ele>181.4</ele>
        <time>2020-03-21T09:21:40Z</time>
      </trkpt>
      <trkpt lat="56.874989087433" lon="14.838900604493">
        <ele>180.2</ele>
        <time>2020-03-21T09:21:42Z</time>
      </trkpt>
      <trkpt lat="56.8750052645" lon="14.838879985019">
        <ele>180</ele>
        <time>2020-03-21T09:21:43Z</time>
      </trkpt>
      <trkpt lat="56.875184134246" lon="14.838788119395">
        <ele>179.8</ele>
        <time>2020-03-21T09:21:53Z</time>
      </trkpt>
      <trkpt lat="56.875304079235" lon="14.838638334842">
        <ele>179</ele>
        <time>2020-03-21T09:21:59Z</time>
      </trkpt>
      <trkpt lat="56.875381192715" lon="14.838312781846">
        <ele>178.4</ele>
        <time>2020-03-21T09:22:06Z</time>
      </trkpt>
      <trkpt lat="56.875398543248" lon="14.838281098264">
        <ele>178.2</ele>
        <time>2020-03-21T09:22:07Z</time>
      </trkpt>
      <trkpt lat="56.875433747228" lon="14.838221670593">
        <ele>178.2</ele>
        <time>2020-03-21T09:22:09Z</time>
      </trkpt>
      <trkpt lat="56.875441207119" lon="14.838180431645">
        <ele>178</ele>
        <time>2020-03-21T09:22:10Z</time>
      </trkpt>
      <trkpt lat="56.87547716547" lon="14.838024444486">
        <ele>176.8</ele>
        <time>2020-03-21T09:22:13Z</time>
      </trkpt>
      <trkpt lat="56.875494348365" lon="14.837972309068">
        <ele>176.4</ele>
        <time>2020-03-21T09:22:14Z</time>
      </trkpt>
      <trkpt lat="56.875516644219" lon="14.837929561378">
        <ele>175.8</ele>
        <time>2020-03-21T09:22:15Z</time>
      </trkpt>
      <trkpt lat="56.87555595533" lon="14.837838198668">
        <ele>174.2</ele>
        <time>2020-03-21T09:22:18Z</time>
      </trkpt>
      <trkpt lat="56.875565762153" lon="14.837810454579">
        <ele>173.4</ele>
        <time>2020-03-21T09:22:19Z</time>
      </trkpt>
      <trkpt lat="56.875601888142" lon="14.837739292248">
        <ele>172.8</ele>
        <time>2020-03-21T09:22:21Z</time>
      </trkpt>
      <trkpt lat="56.87563055424" lon="14.83755220824">
        <ele>171.6</ele>
        <time>2020-03-21T09:22:25Z</time>
      </trkpt>
      <trkpt lat="56.87561965777" lon="14.83748766761">
        <ele>171.2</ele>
        <time>2020-03-21T09:22:26Z</time>
      </trkpt>
      <trkpt lat="56.875590404939" lon="14.837410218854">
        <ele>170.4</ele>
        <time>2020-03-21T09:22:28Z</time>
      </trkpt>
      <trkpt lat="56.875571126569" lon="14.837401166402">
        <ele>170.4</ele>
        <time>2020-03-21T09:22:29Z</time>
      </trkpt>
      <trkpt lat="56.875398543248" lon="14.837343918025">
        <ele>169.4</ele>
        <time>2020-03-21T09:22:36Z</time>
      </trkpt>
      <trkpt lat="56.875241047347" lon="14.837350875002">
        <ele>169.4</ele>
        <time>2020-03-21T09:22:44Z</time>
      </trkpt>
      <trkpt lat="56.875160748745" lon="14.837342409283">
        <ele>170</ele>
        <time>2020-03-21T09:22:47Z</time>
      </trkpt>
      <trkpt lat="56.874972155995" lon="14.837495881872">
        <ele>169.2</ele>
        <time>2020-03-21T09:22:53Z</time>
      </trkpt>
      <trkpt lat="56.874788257109" lon="14.837546005634">
        <ele>169.4</ele>
        <time>2020-03-21T09:23:00Z</time>
      </trkpt>
      <trkpt lat="56.87459790416" lon="14.837589423876">
        <ele>169.2</ele>
        <time>2020-03-21T09:23:06Z</time>
      </trkpt>
      <trkpt lat="56.87451659973" lon="14.83761255792">
        <ele>169</ele>
        <time>2020-03-21T09:23:09Z</time>
      </trkpt>
      <trkpt lat="56.874373688335" lon="14.837816573366">
        <ele>169.4</ele>
        <time>2020-03-21T09:23:16Z</time>
      </trkpt>
      <trkpt lat="56.874328928989" lon="14.837928220274">
        <ele>170.6</ele>
        <time>2020-03-21T09:23:20Z</time>
      </trkpt>
      <trkpt lat="56.874309147705" lon="14.838013883292">
        <ele>172</ele>
        <time>2020-03-21T09:23:23Z</time>
      </trkpt>
      <trkpt lat="56.874298418873" lon="14.838074065334">
        <ele>173</ele>
        <time>2020-03-21T09:23:25Z</time>
      </trkpt>
      <trkpt lat="56.874267238205" lon="14.838196524893">
        <ele>174</ele>
        <time>2020-03-21T09:23:28Z</time>
      </trkpt>
      <trkpt lat="56.874207559077" lon="14.838416717406">
        <ele>175.4</ele>
        <time>2020-03-21T09:23:33Z</time>
      </trkpt>
      <trkpt lat="56.87417210364" lon="14.838550995444">
        <ele>176.2</ele>
        <time>2020-03-21T09:23:37Z</time>
      </trkpt>
      <trkpt lat="56.874163135007" lon="14.838588713994">
        <ele>176.4</ele>
        <time>2020-03-21T09:23:38Z</time>
      </trkpt>
      <trkpt lat="56.874137989307" lon="14.838673622641">
        <ele>177.4</ele>
        <time>2020-03-21T09:23:40Z</time>
      </trkpt>
      <trkpt lat="56.874122901887" lon="14.838733134131">
        <ele>178.2</ele>
        <time>2020-03-21T09:23:42Z</time>
      </trkpt>
      <trkpt lat="56.874114352349" lon="14.838745371705">
        <ele>178.4</ele>
        <time>2020-03-21T09:23:43Z</time>
      </trkpt>
      <trkpt lat="56.874106389544" lon="14.838769511577">
        <ele>178.6</ele>
        <time>2020-03-21T09:23:44Z</time>
      </trkpt>
      <trkpt lat="56.874083926052" lon="14.838887361091">
        <ele>179.6</ele>
        <time>2020-03-21T09:23:48Z</time>
      </trkpt>
      <trkpt lat="56.873998263034" lon="14.839099842256">
        <ele>180.8</ele>
        <time>2020-03-21T09:23:53Z</time>
      </trkpt>
      <trkpt lat="56.873970435126" lon="14.839172513329">
        <ele>182.2</ele>
        <time>2020-03-21T09:23:56Z</time>
      </trkpt>
      <trkpt lat="56.873948390729" lon="14.839239568529">
        <ele>183.6</ele>
        <time>2020-03-21T09:23:59Z</time>
      </trkpt>
      <trkpt lat="56.873922071563" lon="14.839325985918">
        <ele>184.6</ele>
        <time>2020-03-21T09:24:02Z</time>
      </trkpt>
      <trkpt lat="56.873912935292" lon="14.839351383075">
        <ele>185.2</ele>
        <time>2020-03-21T09:24:03Z</time>
      </trkpt>
      <trkpt lat="56.873888879239" lon="14.839433525695">
        <ele>185.8</ele>
        <time>2020-03-21T09:24:06Z</time>
      </trkpt>
      <trkpt lat="56.873831882319" lon="14.839612143984">
        <ele>186.8</ele>
        <time>2020-03-21T09:24:12Z</time>
      </trkpt>
      <trkpt lat="56.873814783243" lon="14.839646174498">
        <ele>187.2</ele>
        <time>2020-03-21T09:24:13Z</time>
      </trkpt>
      <trkpt lat="56.873773041381" lon="14.839673834768">
        <ele>187.6</ele>
        <time>2020-03-21T09:24:15Z</time>
      </trkpt>
      <trkpt lat="56.873684025603" lon="14.839686072342">
        <ele>188</ele>
        <time>2020-03-21T09:24:18Z</time>
      </trkpt>
      <trkpt lat="56.873588891038" lon="14.839653802027">
        <ele>186.8</ele>
        <time>2020-03-21T09:24:24Z</time>
      </trkpt>
      <trkpt lat="56.873547568271" lon="14.839646593593">
        <ele>185.4</ele>
        <time>2020-03-21T09:24:26Z</time>
      </trkpt>
      <trkpt lat="56.873527703168" lon="14.839654472579">
        <ele>185.2</ele>
        <time>2020-03-21T09:24:27Z</time>
      </trkpt>
      <trkpt lat="56.8733959397" lon="14.839895703661">
        <ele>185</ele>
        <time>2020-03-21T09:24:33Z</time>
      </trkpt>
      <trkpt lat="56.873314216175" lon="14.840138443485">
        <ele>185</ele>
        <time>2020-03-21T09:24:38Z</time>
      </trkpt>
      <trkpt lat="56.873243472939" lon="14.840132827612">
        <ele>184</ele>
        <time>2020-03-21T09:24:41Z</time>
      </trkpt>
      <trkpt lat="56.873153954247" lon="14.840081111289">
        <ele>183</ele>
        <time>2020-03-21T09:24:45Z</time>
      </trkpt>
      <trkpt lat="56.872971983198" lon="14.839917245144">
        <ele>183.8</ele>
        <time>2020-03-21T09:24:52Z</time>
      </trkpt>
      <trkpt lat="56.872894282985" lon="14.839880867698">
        <ele>183.4</ele>
        <time>2020-03-21T09:24:55Z</time>
      </trkpt>
      <trkpt lat="56.872772661616" lon="14.839902995914">
        <ele>183</ele>
        <time>2020-03-21T09:25:00Z</time>
      </trkpt>
      <trkpt lat="56.872722956949" lon="14.8399360206">
        <ele>183.2</ele>
        <time>2020-03-21T09:25:03Z</time>
      </trkpt>
      <trkpt lat="56.872554732216" lon="14.83998379743">
        <ele>183</ele>
        <time>2020-03-21T09:25:11Z</time>
      </trkpt>
      <trkpt lat="56.872511816888" lon="14.839994190986">
        <ele>183</ele>
        <time>2020-03-21T09:25:13Z</time>
      </trkpt>
      <trkpt lat="56.872444426412" lon="14.840032496269">
        <ele>183.4</ele>
        <time>2020-03-21T09:25:17Z</time>
      </trkpt>
      <trkpt lat="56.872408803337" lon="14.840077590891">
        <ele>183.8</ele>
        <time>2020-03-21T09:25:19Z</time>
      </trkpt>
      <trkpt lat="56.872395308478" lon="14.840083877316">
        <ele>184.2</ele>
        <time>2020-03-21T09:25:20Z</time>
      </trkpt>
      <trkpt lat="56.87232389469" lon="14.840159565873">
        <ele>185.2</ele>
        <time>2020-03-21T09:25:24Z</time>
      </trkpt>
      <trkpt lat="56.872267065408" lon="14.840250425669">
        <ele>185.8</ele>
        <time>2020-03-21T09:25:27Z</time>
      </trkpt>
      <trkpt lat="56.872239321319" lon="14.840298789232">
        <ele>186.2</ele>
        <time>2020-03-21T09:25:29Z</time>
      </trkpt>
      <trkpt lat="56.872101522883" lon="14.840368610459">
        <ele>186.8</ele>
        <time>2020-03-21T09:25:34Z</time>
      </trkpt>
      <trkpt lat="56.871947966475" lon="14.840476904607">
        <ele>186.2</ele>
        <time>2020-03-21T09:25:41Z</time>
      </trkpt>
      <trkpt lat="56.87182768621" lon="14.840640519295">
        <ele>187.2</ele>
        <time>2020-03-21T09:25:46Z</time>
      </trkpt>
      <trkpt lat="56.871793739515" lon="14.840716124033">
        <ele>187.6</ele>
        <time>2020-03-21T09:25:48Z</time>
      </trkpt>
      <trkpt lat="56.871706316298" lon="14.840786112898">
        <ele>188.2</ele>
        <time>2020-03-21T09:25:52Z</time>
      </trkpt>
      <trkpt lat="56.87167848839" lon="14.840768007994">
        <ele>188.4</ele>
        <time>2020-03-21T09:25:53Z</time>
      </trkpt>
      <trkpt lat="56.871534487348" lon="14.840814527539">
        <ele>189</ele>
        <time>2020-03-21T09:25:57Z</time>
      </trkpt>
      <trkpt lat="56.871472461288" lon="14.840868506975">
        <ele>189.4</ele>
        <time>2020-03-21T09:25:59Z</time>
      </trkpt>
      <trkpt lat="56.871441364439" lon="14.840900022919">
        <ele>189.6</ele>
        <time>2020-03-21T09:26:00Z</time>
      </trkpt>
      <trkpt lat="56.871363077493" lon="14.841020554641">
        <ele>189.6</ele>
        <time>2020-03-21T09:26:04Z</time>
      </trkpt>
      <trkpt lat="56.8711663543" lon="14.841002449737">
        <ele>190</ele>
        <time>2020-03-21T09:26:11Z</time>
      </trkpt>
      <trkpt lat="56.87096351232" lon="14.840916116167">
        <ele>189.6</ele>
        <time>2020-03-21T09:26:17Z</time>
      </trkpt>
      <trkpt lat="56.87082018183" lon="14.840689804867">
        <ele>188.6</ele>
        <time>2020-03-21T09:26:24Z</time>
      </trkpt>
      <trkpt lat="56.870799813813" lon="14.840654852344">
        <ele>188.4</ele>
        <time>2020-03-21T09:26:25Z</time>
      </trkpt>
      <trkpt lat="56.870700991212" lon="14.840582013633">
        <ele>187.8</ele>
        <time>2020-03-21T09:26:29Z</time>
      </trkpt>
      <trkpt lat="56.870699231013" lon="14.840551587336">
        <ele>187.2</ele>
        <time>2020-03-21T09:26:30Z</time>
      </trkpt>
      <trkpt lat="56.870704427791" lon="14.840509929293">
        <ele>186.6</ele>
        <time>2020-03-21T09:26:31Z</time>
      </trkpt>
      <trkpt lat="56.870714486071" lon="14.840462320101">
        <ele>186.2</ele>
        <time>2020-03-21T09:26:32Z</time>
      </trkpt>
      <trkpt lat="56.870750444422" lon="14.840191836188">
        <ele>184.8</ele>
        <time>2020-03-21T09:26:38Z</time>
      </trkpt>
      <trkpt lat="56.870735692278" lon="14.840020426333">
        <ele>183.6</ele>
        <time>2020-03-21T09:26:41Z</time>
      </trkpt>
      <trkpt lat="56.870701494126" lon="14.839826133891">
        <ele>182.2</ele>
        <time>2020-03-21T09:26:45Z</time>
      </trkpt>
      <trkpt lat="56.870655309857" lon="14.839694789518">
        <ele>180.8</ele>
        <time>2020-03-21T09:26:48Z</time>
      </trkpt>
      <trkpt lat="56.870604347905" lon="14.839557913091">
        <ele>179.4</ele>
        <time>2020-03-21T09:26:51Z</time>
      </trkpt>
      <trkpt lat="56.870578699291" lon="14.83942556289">
        <ele>178.4</ele>
        <time>2020-03-21T09:26:54Z</time>
      </trkpt>
      <trkpt lat="56.870543411492" lon="14.839299247657">
        <ele>177.2</ele>
        <time>2020-03-21T09:26:57Z</time>
      </trkpt>
      <trkpt lat="56.870468812582" lon="14.839158096461">
        <ele>176</ele>
        <time>2020-03-21T09:27:00Z</time>
      </trkpt>
      <trkpt lat="56.870393375482" lon="14.839055753462">
        <ele>174.6</ele>
        <time>2020-03-21T09:27:03Z</time>
      </trkpt>
      <trkpt lat="56.870298911469" lon="14.839022728776">
        <ele>173.4</ele>
        <time>2020-03-21T09:27:07Z</time>
      </trkpt>
      <trkpt lat="56.870266389697" lon="14.839005294424">
        <ele>172.6</ele>
        <time>2020-03-21T09:27:09Z</time>
      </trkpt>
      <trkpt lat="56.870252894838" lon="14.839048209752">
        <ele>172.2</ele>
        <time>2020-03-21T09:27:11Z</time>
      </trkpt>
      <trkpt lat="56.870234873753" lon="14.839089783976">
        <ele>172</ele>
        <time>2020-03-21T09:27:13Z</time>
      </trkpt>
      <trkpt lat="56.870023733692" lon="14.839074612737">
        <ele>171.6</ele>
        <time>2020-03-21T09:27:22Z</time>
      </trkpt>
      <trkpt lat="56.86996858079" lon="14.839071595253">
        <ele>171.8</ele>
        <time>2020-03-21T09:27:24Z</time>
      </trkpt>
      <trkpt lat="56.869825334119" lon="14.83912884363">
        <ele>172.4</ele>
        <time>2020-03-21T09:27:28Z</time>
      </trkpt>
      <trkpt lat="56.869640764681" lon="14.839278125269">
        <ele>172.8</ele>
        <time>2020-03-21T09:27:36Z</time>
      </trkpt>
      <trkpt lat="56.86952434009" lon="14.839307461919">
        <ele>173.2</ele>
        <time>2020-03-21T09:27:39Z</time>
      </trkpt>
      <trkpt lat="56.869426942412" lon="14.839357418043">
        <ele>173.8</ele>
        <time>2020-03-21T09:27:42Z</time>
      </trkpt>
      <trkpt lat="56.86940028797" lon="14.839385413589">
        <ele>174.2</ele>
        <time>2020-03-21T09:27:44Z</time>
      </trkpt>
      <trkpt lat="56.869393414812" lon="14.839388347254">
        <ele>174.4</ele>
        <time>2020-03-21T09:27:45Z</time>
      </trkpt>
      <trkpt lat="56.869375729003" lon="14.839424054148">
        <ele>175</ele>
        <time>2020-03-21T09:27:47Z</time>
      </trkpt>
      <trkpt lat="56.869296939143" lon="14.839482643629">
        <ele>175</ele>
        <time>2020-03-21T09:27:51Z</time>
      </trkpt>
      <trkpt lat="56.869221082948" lon="14.839493791556">
        <ele>174</ele>
        <time>2020-03-21T09:27:55Z</time>
      </trkpt>
      <trkpt lat="56.869187974443" lon="14.839544418232">
        <ele>174</ele>
        <time>2020-03-21T09:27:57Z</time>
      </trkpt>
      <trkpt lat="56.869132653903" lon="14.839598649125">
        <ele>174.2</ele>
        <time>2020-03-21T09:28:00Z</time>
      </trkpt>
      <trkpt lat="56.86906165921" lon="14.839599990229">
        <ele>174.6</ele>
        <time>2020-03-21T09:28:03Z</time>
      </trkpt>
      <trkpt lat="56.869001980082" lon="14.839634858933">
        <ele>174.4</ele>
        <time>2020-03-21T09:28:06Z</time>
      </trkpt>
      <trkpt lat="56.868965602636" lon="14.839695124794">
        <ele>174.8</ele>
        <time>2020-03-21T09:28:08Z</time>
      </trkpt>
      <trkpt lat="56.86889653578" lon="14.839732759525">
        <ele>175.6</ele>
        <time>2020-03-21T09:28:11Z</time>
      </trkpt>
      <trkpt lat="56.868883543835" lon="14.839761174166">
        <ele>175.8</ele>
        <time>2020-03-21T09:28:12Z</time>
      </trkpt>
      <trkpt lat="56.868835515548" lon="14.839808448082">
        <ele>176.4</ele>
        <time>2020-03-21T09:28:15Z</time>
      </trkpt>
      <trkpt lat="56.868824032345" lon="14.839820601837">
        <ele>176.6</ele>
        <time>2020-03-21T09:28:16Z</time>
      </trkpt>
      <trkpt lat="56.868808190554" lon="14.839820601837">
        <ele>176.8</ele>
        <time>2020-03-21T09:28:17Z</time>
      </trkpt>
      <trkpt lat="56.868603336918" lon="14.839883130811">
        <ele>177.2</ele>
        <time>2020-03-21T09:28:25Z</time>
      </trkpt>
      <trkpt lat="56.868586908394" lon="14.839896877127">
        <ele>176.8</ele>
        <time>2020-03-21T09:28:26Z</time>
      </trkpt>
      <trkpt lat="56.868451373071" lon="14.840023862912">
        <ele>176</ele>
        <time>2020-03-21T09:28:32Z</time>
      </trkpt>
      <trkpt lat="56.868424550991" lon="14.840073316122">
        <ele>175.6</ele>
        <time>2020-03-21T09:28:34Z</time>
      </trkpt>
      <trkpt lat="56.868339055611" lon="14.840197619699">
        <ele>176.4</ele>
        <time>2020-03-21T09:28:39Z</time>
      </trkpt>
      <trkpt lat="56.868310557151" lon="14.840212204205">
        <ele>176.8</ele>
        <time>2020-03-21T09:28:40Z</time>
      </trkpt>
      <trkpt lat="56.868262947959" lon="14.840214886413">
        <ele>177</ele>
        <time>2020-03-21T09:28:42Z</time>
      </trkpt>
      <trkpt lat="56.868228246893" lon="14.840241289398">
        <ele>176.6</ele>
        <time>2020-03-21T09:28:44Z</time>
      </trkpt>
      <trkpt lat="56.868154318535" lon="14.84030063325">
        <ele>175.6</ele>
        <time>2020-03-21T09:28:47Z</time>
      </trkpt>
      <trkpt lat="56.868100171461" lon="14.840357294894">
        <ele>175.6</ele>
        <time>2020-03-21T09:28:50Z</time>
      </trkpt>
      <trkpt lat="56.867942088827" lon="14.840607243152">
        <ele>175.4</ele>
        <time>2020-03-21T09:28:59Z</time>
      </trkpt>
      <trkpt lat="56.867915937299" lon="14.840611015007">
        <ele>175.4</ele>
        <time>2020-03-21T09:29:00Z</time>
      </trkpt>
      <trkpt lat="56.867870172125" lon="14.840599447985">
        <ele>175.6</ele>
        <time>2020-03-21T09:29:02Z</time>
      </trkpt>
      <trkpt lat="56.867834632869" lon="14.840635322517">
        <ele>175.8</ele>
        <time>2020-03-21T09:29:04Z</time>
      </trkpt>
      <trkpt lat="56.867756513561" lon="14.840693576722">
        <ele>176.8</ele>
        <time>2020-03-21T09:29:08Z</time>
      </trkpt>
      <trkpt lat="56.867732708965" lon="14.840701036613">
        <ele>176.8</ele>
        <time>2020-03-21T09:29:09Z</time>
      </trkpt>
      <trkpt lat="56.867660456987" lon="14.840744287217">
        <ele>176.6</ele>
        <time>2020-03-21T09:29:12Z</time>
      </trkpt>
      <trkpt lat="56.867598347108" lon="14.84081276734">
        <ele>175.8</ele>
        <time>2020-03-21T09:29:14Z</time>
      </trkpt>
      <trkpt lat="56.867460548672" lon="14.841036815527">
        <ele>175</ele>
        <time>2020-03-21T09:29:20Z</time>
      </trkpt>
      <trkpt lat="56.867421489018" lon="14.841363122894">
        <ele>176.2</ele>
        <time>2020-03-21T09:29:27Z</time>
      </trkpt>
      <trkpt lat="56.867415956964" lon="14.841418024339">
        <ele>176.4</ele>
        <time>2020-03-21T09:29:28Z</time>
      </trkpt>
      <trkpt lat="56.86741210129" lon="14.841505531375">
        <ele>176.8</ele>
        <time>2020-03-21T09:29:30Z</time>
      </trkpt>
      <trkpt lat="56.867415202593" lon="14.841582393398">
        <ele>177.2</ele>
        <time>2020-03-21T09:29:32Z</time>
      </trkpt>
      <trkpt lat="56.867423081579" lon="14.841685406949">
        <ele>178.2</ele>
        <time>2020-03-21T09:29:35Z</time>
      </trkpt>
      <trkpt lat="56.867417381887" lon="14.841784061912">
        <ele>179.2</ele>
        <time>2020-03-21T09:29:38Z</time>
      </trkpt>
      <trkpt lat="56.867408413254" lon="14.841890176766">
        <ele>180.6</ele>
        <time>2020-03-21T09:29:41Z</time>
      </trkpt>
      <trkpt lat="56.867396091861" lon="14.842079440068">
        <ele>181.8</ele>
        <time>2020-03-21T09:29:46Z</time>
      </trkpt>
      <trkpt lat="56.867405647227" lon="14.842105340139">
        <ele>182</ele>
        <time>2020-03-21T09:29:47Z</time>
      </trkpt>
      <trkpt lat="56.86744227613" lon="14.842119086455">
        <ele>183</ele>
        <time>2020-03-21T09:29:50Z</time>
      </trkpt>
      <trkpt lat="56.867454429885" lon="14.84212704926">
        <ele>183.4</ele>
        <time>2020-03-21T09:29:51Z</time>
      </trkpt>
      <trkpt lat="56.867482425431" lon="14.842140711757">
        <ele>184.2</ele>
        <time>2020-03-21T09:29:53Z</time>
      </trkpt>
      <trkpt lat="56.867506062389" lon="14.842179771411">
        <ele>185.4</ele>
        <time>2020-03-21T09:29:56Z</time>
      </trkpt>
      <trkpt lat="56.867520898352" lon="14.842243306213">
        <ele>186</ele>
        <time>2020-03-21T09:29:59Z</time>
      </trkpt>
      <trkpt lat="56.867541517826" lon="14.842301895694">
        <ele>186.4</ele>
        <time>2020-03-21T09:30:01Z</time>
      </trkpt>
      <trkpt lat="56.86757973929" lon="14.84240197558">
        <ele>187.8</ele>
        <time>2020-03-21T09:30:04Z</time>
      </trkpt>
      <trkpt lat="56.8676794839" lon="14.842574055987">
        <ele>189</ele>
        <time>2020-03-21T09:30:08Z</time>
      </trkpt>
      <trkpt lat="56.867679819176" lon="14.84276575004">
        <ele>189.8</ele>
        <time>2020-03-21T09:30:13Z</time>
      </trkpt>
      <trkpt lat="56.867725081436" lon="14.842819729476">
        <ele>190.2</ele>
        <time>2020-03-21T09:30:14Z</time>
      </trkpt>
      <trkpt lat="56.867711754215" lon="14.842909834901">
        <ele>191.4</ele>
        <time>2020-03-21T09:30:17Z</time>
      </trkpt>
      <trkpt lat="56.867717956821" lon="14.843032797374">
        <ele>192.2</ele>
        <time>2020-03-21T09:30:20Z</time>
      </trkpt>
      <trkpt lat="56.867730864947" lon="14.843062636938">
        <ele>192.4</ele>
        <time>2020-03-21T09:30:21Z</time>
      </trkpt>
      <trkpt lat="56.86773312806" lon="14.843132541984">
        <ele>193.6</ele>
        <time>2020-03-21T09:30:23Z</time>
      </trkpt>
      <trkpt lat="56.867748047842" lon="14.843207140894">
        <ele>194.6</ele>
        <time>2020-03-21T09:30:25Z</time>
      </trkpt>
      <trkpt lat="56.867783838555" lon="14.843299006518">
        <ele>195.8</ele>
        <time>2020-03-21T09:30:28Z</time>
      </trkpt>
      <trkpt lat="56.867805463857" lon="14.843464381405">
        <ele>196.8</ele>
        <time>2020-03-21T09:30:33Z</time>
      </trkpt>
      <trkpt lat="56.867844104416" lon="14.843678622769">
        <ele>198</ele>
        <time>2020-03-21T09:30:39Z</time>
      </trkpt>
      <trkpt lat="56.867870172125" lon="14.84386461713">
        <ele>199.2</ele>
        <time>2020-03-21T09:30:44Z</time>
      </trkpt>
      <trkpt lat="56.86788316407" lon="14.843985484128">
        <ele>200.6</ele>
        <time>2020-03-21T09:30:49Z</time>
      </trkpt>
      <trkpt lat="56.867897497119" lon="14.844058909572">
        <ele>201.8</ele>
        <time>2020-03-21T09:30:52Z</time>
      </trkpt>
      <trkpt lat="56.86787310579" lon="14.844184470434">
        <ele>203.2</ele>
        <time>2020-03-21T09:30:56Z</time>
      </trkpt>
      <trkpt lat="56.867888444667" lon="14.844533241293">
        <ele>203</ele>
        <time>2020-03-21T09:31:05Z</time>
      </trkpt>
      <trkpt lat="56.867885008088" lon="14.84460390071">
        <ele>202</ele>
        <time>2020-03-21T09:31:07Z</time>
      </trkpt>
      <trkpt lat="56.867878302568" lon="14.844693335583">
        <ele>201</ele>
        <time>2020-03-21T09:31:09Z</time>
      </trkpt>
      <trkpt lat="56.867907555399" lon="14.844827362164">
        <ele>199.6</ele>
        <time>2020-03-21T09:31:12Z</time>
      </trkpt>
      <trkpt lat="56.867953404392" lon="14.84496432241">
        <ele>198.6</ele>
        <time>2020-03-21T09:31:16Z</time>
      </trkpt>
      <trkpt lat="56.867994894797" lon="14.845001705684">
        <ele>197.4</ele>
        <time>2020-03-21T09:31:18Z</time>
      </trkpt>
      <trkpt lat="56.868039318867" lon="14.84500874648">
        <ele>196.2</ele>
        <time>2020-03-21T09:31:20Z</time>
      </trkpt>
      <trkpt lat="56.868123976057" lon="14.845021151692">
        <ele>196.2</ele>
        <time>2020-03-21T09:31:23Z</time>
      </trkpt>
      <trkpt lat="56.868211650731" lon="14.844983516961">
        <ele>197.4</ele>
        <time>2020-03-21T09:31:27Z</time>
      </trkpt>
      <trkpt lat="56.868400997852" lon="14.844962729849">
        <ele>196.2</ele>
        <time>2020-03-21T09:31:35Z</time>
      </trkpt>
      <trkpt lat="56.868477105504" lon="14.845298424944">
        <ele>195.4</ele>
        <time>2020-03-21T09:31:45Z</time>
      </trkpt>
      <trkpt lat="56.868501077738" lon="14.84545885451">
        <ele>195</ele>
        <time>2020-03-21T09:31:49Z</time>
      </trkpt>
      <trkpt lat="56.868551872052" lon="14.845696565194">
        <ele>193.8</ele>
        <time>2020-03-21T09:31:54Z</time>
      </trkpt>
      <trkpt lat="56.868588668593" lon="14.845847271756">
        <ele>192.4</ele>
        <time>2020-03-21T09:31:58Z</time>
      </trkpt>
      <trkpt lat="56.868624459306" lon="14.846114989642">
        <ele>191.2</ele>
        <time>2020-03-21T09:32:04Z</time>
      </trkpt>
      <trkpt lat="56.868731244712" lon="14.846338870191">
        <ele>190.6</ele>
        <time>2020-03-21T09:32:11Z</time>
      </trkpt>
      <trkpt lat="56.868740967716" lon="14.846374912361">
        <ele>190.2</ele>
        <time>2020-03-21T09:32:12Z</time>
      </trkpt>
      <trkpt lat="56.868741554449" lon="14.846415899852">
        <ele>190.2</ele>
        <time>2020-03-21T09:32:13Z</time>
      </trkpt>
      <trkpt lat="56.868791678211" lon="14.846657550029">
        <ele>189.2</ele>
        <time>2020-03-21T09:32:19Z</time>
      </trkpt>
      <trkpt lat="56.8689116232" lon="14.846939181869">
        <ele>188.6</ele>
        <time>2020-03-21T09:32:27Z</time>
      </trkpt>
      <trkpt lat="56.868990832155" lon="14.847270518376">
        <ele>189.8</ele>
        <time>2020-03-21T09:32:35Z</time>
      </trkpt>
      <trkpt lat="56.868948168284" lon="14.847623480185">
        <ele>189.4</ele>
        <time>2020-03-21T09:32:43Z</time>
      </trkpt>
      <trkpt lat="56.868931236846" lon="14.847746777934">
        <ele>189.2</ele>
        <time>2020-03-21T09:32:45Z</time>
      </trkpt>
      <trkpt lat="56.868969290672" lon="14.848009718137">
        <ele>189.8</ele>
        <time>2020-03-21T09:32:50Z</time>
      </trkpt>
      <trkpt lat="56.868951269587" lon="14.848092196033">
        <ele>190.2</ele>
        <time>2020-03-21T09:32:52Z</time>
      </trkpt>
      <trkpt lat="56.868842640163" lon="14.848182636734">
        <ele>191</ele>
        <time>2020-03-21T09:32:59Z</time>
      </trkpt>
      <trkpt lat="56.86877248366" lon="14.848238376369">
        <ele>190.2</ele>
        <time>2020-03-21T09:33:02Z</time>
      </trkpt>
      <trkpt lat="56.868728813961" lon="14.848335019676">
        <ele>189.4</ele>
        <time>2020-03-21T09:33:06Z</time>
      </trkpt>
      <trkpt lat="56.868689670488" lon="14.848429651327">
        <ele>189.2</ele>
        <time>2020-03-21T09:33:09Z</time>
      </trkpt>
      <trkpt lat="56.868632086835" lon="14.848489330455">
        <ele>189</ele>
        <time>2020-03-21T09:33:12Z</time>
      </trkpt>
      <trkpt lat="56.868525720524" lon="14.84878395424">
        <ele>188.6</ele>
        <time>2020-03-21T09:33:18Z</time>
      </trkpt>
      <trkpt lat="56.868461179894" lon="14.849043709321">
        <ele>190.2</ele>
        <time>2020-03-21T09:33:24Z</time>
      </trkpt>
      <trkpt lat="56.86843888404" lon="14.84926758987">
        <ele>190.2</ele>
        <time>2020-03-21T09:33:28Z</time>
      </trkpt>
      <trkpt lat="56.86835171228" lon="14.849555759592">
        <ele>189.6</ele>
        <time>2020-03-21T09:33:36Z</time>
      </trkpt>
      <trkpt lat="56.868344755303" lon="14.849570847012">
        <ele>189.4</ele>
        <time>2020-03-21T09:33:37Z</time>
      </trkpt>
      <trkpt lat="56.868330003159" lon="14.849622730973">
        <ele>189</ele>
        <time>2020-03-21T09:33:39Z</time>
      </trkpt>
      <trkpt lat="56.8682745988" lon="14.849731192759">
        <ele>187.8</ele>
        <time>2020-03-21T09:33:42Z</time>
      </trkpt>
      <trkpt lat="56.868193797284" lon="14.849839989821">
        <ele>187.2</ele>
        <time>2020-03-21T09:33:46Z</time>
      </trkpt>
      <trkpt lat="56.86808432967" lon="14.850131931398">
        <ele>188.2</ele>
        <time>2020-03-21T09:33:51Z</time>
      </trkpt>
      <trkpt lat="56.86805834578" lon="14.850169985224">
        <ele>188.6</ele>
        <time>2020-03-21T09:33:52Z</time>
      </trkpt>
      <trkpt lat="56.868030350234" lon="14.85020049534">
        <ele>188.8</ele>
        <time>2020-03-21T09:33:53Z</time>
      </trkpt>
      <trkpt lat="56.867925827941" lon="14.850308370393">
        <ele>190</ele>
        <time>2020-03-21T09:33:58Z</time>
      </trkpt>
      <trkpt lat="56.867869836849" lon="14.850361595458">
        <ele>190.2</ele>
        <time>2020-03-21T09:34:01Z</time>
      </trkpt>
      <trkpt lat="56.867845613158" lon="14.850447090838">
        <ele>190.2</ele>
        <time>2020-03-21T09:34:03Z</time>
      </trkpt>
      <trkpt lat="56.867844104416" lon="14.850793850041">
        <ele>190</ele>
        <time>2020-03-21T09:34:11Z</time>
      </trkpt>
      <trkpt lat="56.867856593447" lon="14.850859145042">
        <ele>189.8</ele>
        <time>2020-03-21T09:34:13Z</time>
      </trkpt>
      <trkpt lat="56.867944938673" lon="14.851172376645">
        <ele>189.4</ele>
        <time>2020-03-21T09:34:22Z</time>
      </trkpt>
      <trkpt lat="56.867971509296" lon="14.851274887282">
        <ele>188.8</ele>
        <time>2020-03-21T09:34:25Z</time>
      </trkpt>
      <trkpt lat="56.868007970561" lon="14.851401873067">
        <ele>187.6</ele>
        <time>2020-03-21T09:34:29Z</time>
      </trkpt>
      <trkpt lat="56.868123473143" lon="14.851501282401">
        <ele>187.6</ele>
        <time>2020-03-21T09:34:37Z</time>
      </trkpt>
      <trkpt lat="56.868172674896" lon="14.851504802799">
        <ele>189.4</ele>
        <time>2020-03-21T09:34:40Z</time>
      </trkpt>
      <trkpt lat="56.868195389845" lon="14.851490385931">
        <ele>191</ele>
        <time>2020-03-21T09:34:42Z</time>
      </trkpt>
      <trkpt lat="56.868223972124" lon="14.851471359018">
        <ele>192</ele>
        <time>2020-03-21T09:34:44Z</time>
      </trkpt>
      <trkpt lat="56.868268563832" lon="14.851441603273">
        <ele>193.2</ele>
        <time>2020-03-21T09:34:47Z</time>
      </trkpt>
      <trkpt lat="56.86843050214" lon="14.851273546178">
        <ele>193.2</ele>
        <time>2020-03-21T09:34:56Z</time>
      </trkpt>
      <trkpt lat="56.868580454331" lon="14.851149661696">
        <ele>192.6</ele>
        <time>2020-03-21T09:35:02Z</time>
      </trkpt>
      <trkpt lat="56.868650191739" lon="14.851089731111">
        <ele>192.2</ele>
        <time>2020-03-21T09:35:05Z</time>
      </trkpt>
      <trkpt lat="56.868791342935" lon="14.851016473305">
        <ele>193.2</ele>
        <time>2020-03-21T09:35:11Z</time>
      </trkpt>
      <trkpt lat="56.868949509388" lon="14.85097163014">
        <ele>194.2</ele>
        <time>2020-03-21T09:35:16Z</time>
      </trkpt>
      <trkpt lat="56.869139107966" lon="14.850910190813">
        <ele>194.4</ele>
        <time>2020-03-21T09:35:22Z</time>
      </trkpt>
      <trkpt lat="56.869325018508" lon="14.850833244971">
        <ele>194.4</ele>
        <time>2020-03-21T09:35:30Z</time>
      </trkpt>
      <trkpt lat="56.86944052109" lon="14.850698212562">
        <ele>195</ele>
        <time>2020-03-21T09:35:37Z</time>
      </trkpt>
      <trkpt lat="56.869459883279" lon="14.850685472074">
        <ele>195.2</ele>
        <time>2020-03-21T09:35:38Z</time>
      </trkpt>
      <trkpt lat="56.869648978943" lon="14.850561587592">
        <ele>194.6</ele>
        <time>2020-03-21T09:35:48Z</time>
      </trkpt>
      <trkpt lat="56.869690134072" lon="14.850529149639">
        <ele>194</ele>
        <time>2020-03-21T09:35:50Z</time>
      </trkpt>
      <trkpt lat="56.869711088822" lon="14.850480869895">
        <ele>194</ele>
        <time>2020-03-21T09:35:51Z</time>
      </trkpt>
      <trkpt lat="56.869789124311" lon="14.850161016591">
        <ele>193.4</ele>
        <time>2020-03-21T09:35:59Z</time>
      </trkpt>
      <trkpt lat="56.869791052148" lon="14.850124303869">
        <ele>193</ele>
        <time>2020-03-21T09:36:00Z</time>
      </trkpt>
      <trkpt lat="56.869749058829" lon="14.849792212991">
        <ele>194</ele>
        <time>2020-03-21T09:36:08Z</time>
      </trkpt>
      <trkpt lat="56.869745203155" lon="14.849758936848">
        <ele>194.2</ele>
        <time>2020-03-21T09:36:09Z</time>
      </trkpt>
      <trkpt lat="56.869638669206" lon="14.849588784278">
        <ele>194.8</ele>
        <time>2020-03-21T09:36:14Z</time>
      </trkpt>
      <trkpt lat="56.869607823814" lon="14.849521729078">
        <ele>194.8</ele>
        <time>2020-03-21T09:36:16Z</time>
      </trkpt>
      <trkpt lat="56.869611679488" lon="14.849439083544">
        <ele>195</ele>
        <time>2020-03-21T09:36:18Z</time>
      </trkpt>
      <trkpt lat="56.869708574252" lon="14.849131886909">
        <ele>194.2</ele>
        <time>2020-03-21T09:36:27Z</time>
      </trkpt>
      <trkpt lat="56.869719386903" lon="14.849096347653">
        <ele>194.2</ele>
        <time>2020-03-21T09:36:28Z</time>
      </trkpt>
      <trkpt lat="56.869784598085" lon="14.848761071653">
        <ele>195.2</ele>
        <time>2020-03-21T09:36:37Z</time>
      </trkpt>
      <trkpt lat="56.869786945017" lon="14.848715977031">
        <ele>195.4</ele>
        <time>2020-03-21T09:36:38Z</time>
      </trkpt>
      <trkpt lat="56.869784514266" lon="14.848674235169">
        <ele>195.8</ele>
        <time>2020-03-21T09:36:39Z</time>
      </trkpt>
      <trkpt lat="56.86973724035" lon="14.848559570777">
        <ele>196.6</ele>
        <time>2020-03-21T09:36:42Z</time>
      </trkpt>
      <trkpt lat="56.869723745491" lon="14.848520008209">
        <ele>196.8</ele>
        <time>2020-03-21T09:36:43Z</time>
      </trkpt>
      <trkpt lat="56.869721398559" lon="14.848388580017">
        <ele>197</ele>
        <time>2020-03-21T09:36:46Z</time>
      </trkpt>
      <trkpt lat="56.869746963354" lon="14.848212476298">
        <ele>195.2</ele>
        <time>2020-03-21T09:36:51Z</time>
      </trkpt>
      <trkpt lat="56.869770013579" lon="14.848077946803">
        <ele>194.2</ele>
        <time>2020-03-21T09:36:55Z</time>
      </trkpt>
      <trkpt lat="56.869837152598" lon="14.84772615846">
        <ele>193.4</ele>
        <time>2020-03-21T09:37:03Z</time>
      </trkpt>
      <trkpt lat="56.869849306353" lon="14.847663126572">
        <ele>193</ele>
        <time>2020-03-21T09:37:05Z</time>
      </trkpt>
      <trkpt lat="56.869898591925" lon="14.847525747231">
        <ele>192.6</ele>
        <time>2020-03-21T09:37:10Z</time>
      </trkpt>
      <trkpt lat="56.869925497824" lon="14.847423236594">
        <ele>193.2</ele>
        <time>2020-03-21T09:37:14Z</time>
      </trkpt>
      <trkpt lat="56.869966150039" lon="14.847361294353">
        <ele>193</ele>
        <time>2020-03-21T09:37:16Z</time>
      </trkpt>
      <trkpt lat="56.870059524405" lon="14.847075806839">
        <ele>192.2</ele>
        <time>2020-03-21T09:37:22Z</time>
      </trkpt>
      <trkpt lat="56.870074611825" lon="14.847043201248">
        <ele>192.4</ele>
        <time>2020-03-21T09:37:23Z</time>
      </trkpt>
      <trkpt lat="56.870262031109" lon="14.846910515771">
        <ele>193</ele>
        <time>2020-03-21T09:37:30Z</time>
      </trkpt>
      <trkpt lat="56.870404271952" lon="14.846675990209">
        <ele>192.8</ele>
        <time>2020-03-21T09:37:39Z</time>
      </trkpt>
      <trkpt lat="56.870523211113" lon="14.84639427455">
        <ele>192.6</ele>
        <time>2020-03-21T09:37:45Z</time>
      </trkpt>
      <trkpt lat="56.870595630729" lon="14.846184224136">
        <ele>191.6</ele>
        <time>2020-03-21T09:37:50Z</time>
      </trkpt>
      <trkpt lat="56.870609377045" lon="14.846155641857">
        <ele>191.2</ele>
        <time>2020-03-21T09:37:51Z</time>
      </trkpt>
      <trkpt lat="56.870783804384" lon="14.846124209732">
        <ele>191.4</ele>
        <time>2020-03-21T09:38:01Z</time>
      </trkpt>
      <trkpt lat="56.870849937575" lon="14.846147930509">
        <ele>191.2</ele>
        <time>2020-03-21T09:38:04Z</time>
      </trkpt>
      <trkpt lat="56.871005086544" lon="14.846112055977">
        <ele>191</ele>
        <time>2020-03-21T09:38:39Z</time>
      </trkpt>
      <trkpt lat="56.871067196423" lon="14.846208866922">
        <ele>191.2</ele>
        <time>2020-03-21T09:38:45Z</time>
      </trkpt>
      <trkpt lat="56.871242210495" lon="14.846206100895">
        <ele>191.2</ele>
        <time>2020-03-21T09:38:58Z</time>
      </trkpt>
      <trkpt lat="56.87142032587" lon="14.846242143065">
        <ele>191.4</ele>
        <time>2020-03-21T09:39:05Z</time>
      </trkpt>
      <trkpt lat="56.871600871996" lon="14.846263097815">
        <ele>191.2</ele>
        <time>2020-03-21T09:39:11Z</time>
      </trkpt>
      <trkpt lat="56.871634986329" lon="14.846272737">
        <ele>191.4</ele>
        <time>2020-03-21T09:39:12Z</time>
      </trkpt>
      <trkpt lat="56.871822070337" lon="14.846284723117">
        <ele>191.4</ele>
        <time>2020-03-21T09:39:17Z</time>
      </trkpt>
      <trkpt lat="56.872029187086" lon="14.84633057211">
        <ele>191.8</ele>
        <time>2020-03-21T09:39:23Z</time>
      </trkpt>
      <trkpt lat="56.87221995913" lon="14.846398633138">
        <ele>191.2</ele>
        <time>2020-03-21T09:39:29Z</time>
      </trkpt>
      <trkpt lat="56.872407462233" lon="14.846471974763">
        <ele>191.4</ele>
        <time>2020-03-21T09:39:36Z</time>
      </trkpt>
      <trkpt lat="56.872606448539" lon="14.846528971683">
        <ele>192</ele>
        <time>2020-03-21T09:39:44Z</time>
      </trkpt>
      <trkpt lat="56.872628744393" lon="14.846639361306">
        <ele>191.4</ele>
        <time>2020-03-21T09:39:47Z</time>
      </trkpt>
      <trkpt lat="56.872664702744" lon="14.846820158889">
        <ele>191.6</ele>
        <time>2020-03-21T09:39:53Z</time>
      </trkpt>
      <trkpt lat="56.872649447686" lon="14.846887717003">
        <ele>191.6</ele>
        <time>2020-03-21T09:39:56Z</time>
      </trkpt>
      <trkpt lat="56.8726834782" lon="14.847105143489">
        <ele>191.4</ele>
        <time>2020-03-21T09:40:02Z</time>
      </trkpt>
      <trkpt lat="56.872668642237" lon="14.847354085919">
        <ele>191.2</ele>
        <time>2020-03-21T09:40:08Z</time>
      </trkpt>
      <trkpt lat="56.872738966378" lon="14.847669580635">
        <ele>191.2</ele>
        <time>2020-03-21T09:40:15Z</time>
      </trkpt>
      <trkpt lat="56.872792107624" lon="14.847859682127">
        <ele>191.4</ele>
        <time>2020-03-21T09:40:21Z</time>
      </trkpt>
      <trkpt lat="56.872797052945" lon="14.847882816171">
        <ele>191.8</ele>
        <time>2020-03-21T09:40:23Z</time>
      </trkpt>
      <trkpt lat="56.872762854793" lon="14.847912069002">
        <ele>192</ele>
        <time>2020-03-21T09:40:28Z</time>
      </trkpt>
      <trkpt lat="56.872705857873" lon="14.847671089377">
        <ele>191.6</ele>
        <time>2020-03-21T09:40:38Z</time>
      </trkpt>
      <trkpt lat="56.872725639157" lon="14.84733137097">
        <ele>191.4</ele>
        <time>2020-03-21T09:40:50Z</time>
      </trkpt>
      <trkpt lat="56.87274382788" lon="14.846954856022">
        <ele>192.2</ele>
        <time>2020-03-21T09:41:00Z</time>
      </trkpt>
      <trkpt lat="56.87273628417" lon="14.846793588266">
        <ele>192</ele>
        <time>2020-03-21T09:41:04Z</time>
      </trkpt>
      <trkpt lat="56.872749946667" lon="14.846722509754">
        <ele>191.8</ele>
        <time>2020-03-21T09:41:07Z</time>
      </trkpt>
      <trkpt lat="56.872732428496" lon="14.846694430389">
        <ele>191.8</ele>
        <time>2020-03-21T09:41:09Z</time>
      </trkpt>
      <trkpt lat="56.872711473746" lon="14.846650173957">
        <ele>191.6</ele>
        <time>2020-03-21T09:41:11Z</time>
      </trkpt>
      <trkpt lat="56.872656823758" lon="14.846584040766">
        <ele>191.8</ele>
        <time>2020-03-21T09:41:15Z</time>
      </trkpt>
      <trkpt lat="56.872628492936" lon="14.846512878435">
        <ele>191.6</ele>
        <time>2020-03-21T09:41:19Z</time>
      </trkpt>
      <trkpt lat="56.872622877063" lon="14.8463481741">
        <ele>192</ele>
        <time>2020-03-21T09:41:23Z</time>
      </trkpt>
      <trkpt lat="56.872691357186" lon="14.846177015702">
        <ele>192.6</ele>
        <time>2020-03-21T09:41:29Z</time>
      </trkpt>
      <trkpt lat="56.872743073509" lon="14.846115660194">
        <ele>193.8</ele>
        <time>2020-03-21T09:41:32Z</time>
      </trkpt>
      <trkpt lat="56.872816163677" lon="14.845793376139">
        <ele>194.6</ele>
        <time>2020-03-21T09:41:39Z</time>
      </trkpt>
      <trkpt lat="56.872836783151" lon="14.84544460528">
        <ele>193</ele>
        <time>2020-03-21T09:41:47Z</time>
      </trkpt>
      <trkpt lat="56.872859581919" lon="14.845299933686">
        <ele>192.6</ele>
        <time>2020-03-21T09:41:50Z</time>
      </trkpt>
      <trkpt lat="56.872883637972" lon="14.845213935392">
        <ele>192.8</ele>
        <time>2020-03-21T09:41:53Z</time>
      </trkpt>
      <trkpt lat="56.8729600809" lon="14.845193651194">
        <ele>191.4</ele>
        <time>2020-03-21T09:41:59Z</time>
      </trkpt>
      <trkpt lat="56.873150685306" lon="14.845221227645">
        <ele>191.6</ele>
        <time>2020-03-21T09:42:07Z</time>
      </trkpt>
      <trkpt lat="56.873326956663" lon="14.845293395804">
        <ele>191.6</ele>
        <time>2020-03-21T09:42:13Z</time>
      </trkpt>
      <trkpt lat="56.873485709849" lon="14.845460698528">
        <ele>191.4</ele>
        <time>2020-03-21T09:42:20Z</time>
      </trkpt>
      <trkpt lat="56.873575228541" lon="14.845619535533">
        <ele>190.2</ele>
        <time>2020-03-21T09:42:25Z</time>
      </trkpt>
      <trkpt lat="56.873692239865" lon="14.845895970595">
        <ele>190.6</ele>
        <time>2020-03-21T09:42:34Z</time>
      </trkpt>
      <trkpt lat="56.873859794046" lon="14.846088838114">
        <ele>190.2</ele>
        <time>2020-03-21T09:42:41Z</time>
      </trkpt>
      <trkpt lat="56.874009327142" lon="14.846326548798">
        <ele>190.2</ele>
        <time>2020-03-21T09:42:49Z</time>
      </trkpt>
      <trkpt lat="56.874145197741" lon="14.846596697435">
        <ele>190.6</ele>
        <time>2020-03-21T09:42:56Z</time>
      </trkpt>
      <trkpt lat="56.874247708378" lon="14.846805909659">
        <ele>191.2</ele>
        <time>2020-03-21T09:43:01Z</time>
      </trkpt>
      <trkpt lat="56.874275033372" lon="14.846907079192">
        <ele>191.6</ele>
        <time>2020-03-21T09:43:03Z</time>
      </trkpt>
      <trkpt lat="56.8741838383" lon="14.847193823991">
        <ele>192.2</ele>
        <time>2020-03-21T09:43:10Z</time>
      </trkpt>
      <trkpt lat="56.874034137566" lon="14.847377722877">
        <ele>192.2</ele>
        <time>2020-03-21T09:43:17Z</time>
      </trkpt>
      <trkpt lat="56.873861051331" lon="14.847549803284">
        <ele>192</ele>
        <time>2020-03-21T09:43:24Z</time>
      </trkpt>
      <trkpt lat="56.873722498524" lon="14.847816431523">
        <ele>191.8</ele>
        <time>2020-03-21T09:43:31Z</time>
      </trkpt>
      <trkpt lat="56.873589393952" lon="14.84807568369">
        <ele>192.2</ele>
        <time>2020-03-21T09:43:38Z</time>
      </trkpt>
      <trkpt lat="56.873555531076" lon="14.848136284827">
        <ele>192.4</ele>
        <time>2020-03-21T09:43:40Z</time>
      </trkpt>
      <trkpt lat="56.87341018893" lon="14.848388663836">
        <ele>192.8</ele>
        <time>2020-03-21T09:43:47Z</time>
      </trkpt>
      <trkpt lat="56.873346654128" lon="14.848489917188">
        <ele>193</ele>
        <time>2020-03-21T09:43:50Z</time>
      </trkpt>
      <trkpt lat="56.873303068248" lon="14.848546914108">
        <ele>193.4</ele>
        <time>2020-03-21T09:43:52Z</time>
      </trkpt>
      <trkpt lat="56.873148925107" lon="14.848790911217">
        <ele>193.2</ele>
        <time>2020-03-21T09:43:59Z</time>
      </trkpt>
      <trkpt lat="56.873061920985" lon="14.849101544431">
        <ele>193.6</ele>
        <time>2020-03-21T09:44:05Z</time>
      </trkpt>
      <trkpt lat="56.873132412764" lon="14.849441346657">
        <ele>194</ele>
        <time>2020-03-21T09:44:11Z</time>
      </trkpt>
      <trkpt lat="56.873153116057" lon="14.849594148694">
        <ele>194</ele>
        <time>2020-03-21T09:44:14Z</time>
      </trkpt>
      <trkpt lat="56.87301372506" lon="14.849837726708">
        <ele>193.8</ele>
        <time>2020-03-21T09:44:21Z</time>
      </trkpt>
      <trkpt lat="56.87285279258" lon="14.850034701358">
        <ele>193.8</ele>
        <time>2020-03-21T09:44:27Z</time>
      </trkpt>
      <trkpt lat="56.872730919754" lon="14.850179792047">
        <ele>193.4</ele>
        <time>2020-03-21T09:44:32Z</time>
      </trkpt>
      <trkpt lat="56.872633270619" lon="14.850309040945">
        <ele>193.2</ele>
        <time>2020-03-21T09:44:37Z</time>
      </trkpt>
      <trkpt lat="56.872637042474" lon="14.850681448762">
        <ele>193.4</ele>
        <time>2020-03-21T09:44:44Z</time>
      </trkpt>
      <trkpt lat="56.87269856562" lon="14.851040613177">
        <ele>193.4</ele>
        <time>2020-03-21T09:44:51Z</time>
      </trkpt>
      <trkpt lat="56.87280333937" lon="14.851341942482">
        <ele>193.2</ele>
        <time>2020-03-21T09:44:58Z</time>
      </trkpt>
      <trkpt lat="56.872930911888" lon="14.851604379771">
        <ele>193.4</ele>
        <time>2020-03-21T09:45:04Z</time>
      </trkpt>
      <trkpt lat="56.873071392532" lon="14.851846532862">
        <ele>194</ele>
        <time>2020-03-21T09:45:11Z</time>
      </trkpt>
      <trkpt lat="56.873128389452" lon="14.85193135769">
        <ele>194.4</ele>
        <time>2020-03-21T09:45:14Z</time>
      </trkpt>
      <trkpt lat="56.873260236739" lon="14.852176025351">
        <ele>195</ele>
        <time>2020-03-21T09:45:22Z</time>
      </trkpt>
      <trkpt lat="56.87332385536" lon="14.852329414121">
        <ele>195.4</ele>
        <time>2020-03-21T09:45:26Z</time>
      </trkpt>
      <trkpt lat="56.873448997127" lon="14.852595790903">
        <ele>195.4</ele>
        <time>2020-03-21T09:45:33Z</time>
      </trkpt>
      <trkpt lat="56.873574222713" lon="14.852878009476">
        <ele>196.4</ele>
        <time>2020-03-21T09:45:40Z</time>
      </trkpt>
      <trkpt lat="56.873591824703" lon="14.852917655863">
        <ele>196.4</ele>
        <time>2020-03-21T09:45:41Z</time>
      </trkpt>
      <trkpt lat="56.873682433042" lon="14.853212531105">
        <ele>196.6</ele>
        <time>2020-03-21T09:45:47Z</time>
      </trkpt>
      <trkpt lat="56.873665166328" lon="14.853559457946">
        <ele>197</ele>
        <time>2020-03-21T09:45:54Z</time>
      </trkpt>
      <trkpt lat="56.873503144201" lon="14.853788367635">
        <ele>196.4</ele>
        <time>2020-03-21T09:46:02Z</time>
      </trkpt>
      <trkpt lat="56.873331818165" lon="14.853950892676">
        <ele>196.2</ele>
        <time>2020-03-21T09:46:09Z</time>
      </trkpt>
      <trkpt lat="56.873178932309" lon="14.85412490092">
        <ele>195.6</ele>
        <time>2020-03-21T09:46:15Z</time>
      </trkpt>
      <trkpt lat="56.873134759696" lon="14.854184747686">
        <ele>195.4</ele>
        <time>2020-03-21T09:46:17Z</time>
      </trkpt>
      <trkpt lat="56.872958823615" lon="14.854381889974">
        <ele>195</ele>
        <time>2020-03-21T09:46:24Z</time>
      </trkpt>
      <trkpt lat="56.872788754864" lon="14.854588084714">
        <ele>194.6</ele>
        <time>2020-03-21T09:46:31Z</time>
      </trkpt>
      <trkpt lat="56.872721699664" lon="14.854691014446">
        <ele>194.4</ele>
        <time>2020-03-21T09:46:34Z</time>
      </trkpt>
      <trkpt lat="56.872570154912" lon="14.8548977121">
        <ele>194</ele>
        <time>2020-03-21T09:46:41Z</time>
      </trkpt>
      <trkpt lat="56.872416514685" lon="14.855089070877">
        <ele>193.4</ele>
        <time>2020-03-21T09:46:48Z</time>
      </trkpt>
      <trkpt lat="56.872396398125" lon="14.855125783599">
        <ele>193.4</ele>
        <time>2020-03-21T09:46:49Z</time>
      </trkpt>
      <trkpt lat="56.872251726531" lon="14.855389394354">
        <ele>193.4</ele>
        <time>2020-03-21T09:46:56Z</time>
      </trkpt>
      <trkpt lat="56.87212356728" lon="14.855624925744">
        <ele>193.4</ele>
        <time>2020-03-21T09:47:02Z</time>
      </trkpt>
      <trkpt lat="56.871988451052" lon="14.855934804587">
        <ele>193.8</ele>
        <time>2020-03-21T09:47:08Z</time>
      </trkpt>
      <trkpt lat="56.871961964248" lon="14.855977217001">
        <ele>194</ele>
        <time>2020-03-21T09:47:09Z</time>
      </trkpt>
      <trkpt lat="56.871891807745" lon="14.856111997953">
        <ele>194.4</ele>
        <time>2020-03-21T09:47:12Z</time>
      </trkpt>
      <trkpt lat="56.871741185002" lon="14.85638717573">
        <ele>195.2</ele>
        <time>2020-03-21T09:47:18Z</time>
      </trkpt>
      <trkpt lat="56.871631465931" lon="14.85659337047">
        <ele>195.6</ele>
        <time>2020-03-21T09:47:23Z</time>
      </trkpt>
      <trkpt lat="56.871495008599" lon="14.856872823016">
        <ele>196.2</ele>
        <time>2020-03-21T09:47:30Z</time>
      </trkpt>
      <trkpt lat="56.87140523845" lon="14.857054961703">
        <ele>196.6</ele>
        <time>2020-03-21T09:47:35Z</time>
      </trkpt>
      <trkpt lat="56.871250843852" lon="14.857243554453">
        <ele>197.4</ele>
        <time>2020-03-21T09:47:42Z</time>
      </trkpt>
      <trkpt lat="56.871202731746" lon="14.857338689018">
        <ele>197.6</ele>
        <time>2020-03-21T09:47:45Z</time>
      </trkpt>
      <trkpt lat="56.871070465364" lon="14.857611100768">
        <ele>198.2</ele>
        <time>2020-03-21T09:47:53Z</time>
      </trkpt>
      <trkpt lat="56.870944401588" lon="14.857904802544">
        <ele>198.6</ele>
        <time>2020-03-21T09:48:00Z</time>
      </trkpt>
      <trkpt lat="56.870811213197" lon="14.858187859307">
        <ele>198.6</ele>
        <time>2020-03-21T09:48:07Z</time>
      </trkpt>
      <trkpt lat="56.87077491957" lon="14.85825298667">
        <ele>198.4</ele>
        <time>2020-03-21T09:48:09Z</time>
      </trkpt>
      <trkpt lat="56.870624129189" lon="14.858524895506">
        <ele>198.8</ele>
        <time>2020-03-21T09:48:16Z</time>
      </trkpt>
      <trkpt lat="56.87049077316" lon="14.858796636704">
        <ele>198.6</ele>
        <time>2020-03-21T09:48:22Z</time>
      </trkpt>
      <trkpt lat="56.870355656932" lon="14.859055469776">
        <ele>198.6</ele>
        <time>2020-03-21T09:48:28Z</time>
      </trkpt>
      <trkpt lat="56.870217187944" lon="14.859308100242">
        <ele>199.2</ele>
        <time>2020-03-21T09:48:35Z</time>
      </trkpt>
      <trkpt lat="56.87009011834" lon="14.859540195053">
        <ele>199</ele>
        <time>2020-03-21T09:48:41Z</time>
      </trkpt>
      <trkpt lat="56.870047873564" lon="14.859682854991">
        <ele>198.8</ele>
        <time>2020-03-21T09:48:44Z</time>
      </trkpt>
      <trkpt lat="56.870063212441" lon="14.85981285826">
        <ele>198.6</ele>
        <time>2020-03-21T09:48:46Z</time>
      </trkpt>
      <trkpt lat="56.870224061102" lon="14.86001737662">
        <ele>198.6</ele>
        <time>2020-03-21T09:48:53Z</time>
      </trkpt>
      <trkpt lat="56.87027535833" lon="14.860096334118">
        <ele>199.2</ele>
        <time>2020-03-21T09:48:57Z</time>
      </trkpt>
      <trkpt lat="56.870255660865" lon="14.86008024087">
        <ele>200</ele>
        <time>2020-03-21T09:48:58Z</time>
      </trkpt>
      <trkpt lat="56.87019656847" lon="14.860030703841">
        <ele>201</ele>
        <time>2020-03-21T09:49:00Z</time>
      </trkpt>
      <trkpt lat="56.870006718435" lon="14.859887792446">
        <ele>200.2</ele>
        <time>2020-03-21T09:49:06Z</time>
      </trkpt>
      <trkpt lat="56.869979141984" lon="14.859859964538">
        <ele>200</ele>
        <time>2020-03-21T09:49:07Z</time>
      </trkpt>
      <trkpt lat="56.869934801733" lon="14.859841943453">
        <ele>199.4</ele>
        <time>2020-03-21T09:49:09Z</time>
      </trkpt>
      <trkpt lat="56.869899765391" lon="14.859904807703">
        <ele>198.8</ele>
        <time>2020-03-21T09:49:11Z</time>
      </trkpt>
      <trkpt lat="56.869779820402" lon="14.860154588323">
        <ele>198</ele>
        <time>2020-03-21T09:49:17Z</time>
      </trkpt>
      <trkpt lat="56.869759787661" lon="14.860197671289">
        <ele>197.8</ele>
        <time>2020-03-21T09:49:18Z</time>
      </trkpt>
      <trkpt lat="56.869636406093" lon="14.860470083039">
        <ele>197.2</ele>
        <time>2020-03-21T09:49:24Z</time>
      </trkpt>
      <trkpt lat="56.869524591547" lon="14.860776441484">
        <ele>196.8</ele>
        <time>2020-03-21T09:49:30Z</time>
      </trkpt>
      <trkpt lat="56.869486286264" lon="14.860875096447">
        <ele>196.6</ele>
        <time>2020-03-21T09:49:32Z</time>
      </trkpt>
      <trkpt lat="56.86939358245" lon="14.861165613101">
        <ele>195.8</ele>
        <time>2020-03-21T09:49:38Z</time>
      </trkpt>
      <trkpt lat="56.869293921659" lon="14.86144062324">
        <ele>195.6</ele>
        <time>2020-03-21T09:49:44Z</time>
      </trkpt>
      <trkpt lat="56.869198619456" lon="14.861742706916">
        <ele>195.2</ele>
        <time>2020-03-21T09:49:50Z</time>
      </trkpt>
      <trkpt lat="56.869108346393" lon="14.862053256311">
        <ele>194.8</ele>
        <time>2020-03-21T09:49:56Z</time>
      </trkpt>
      <trkpt lat="56.869024108298" lon="14.862357267824">
        <ele>194.8</ele>
        <time>2020-03-21T09:50:02Z</time>
      </trkpt>
      <trkpt lat="56.868936098348" lon="14.86264761684">
        <ele>194.8</ele>
        <time>2020-03-21T09:50:08Z</time>
      </trkpt>
      <trkpt lat="56.868881280722" lon="14.862841322549">
        <ele>194.4</ele>
        <time>2020-03-21T09:50:12Z</time>
      </trkpt>
      <trkpt lat="56.868774579135" lon="14.863169306296">
        <ele>194.6</ele>
        <time>2020-03-21T09:50:19Z</time>
      </trkpt>
      <trkpt lat="56.868672655231" lon="14.863501564812">
        <ele>194</ele>
        <time>2020-03-21T09:50:26Z</time>
      </trkpt>
      <trkpt lat="56.868580957245" lon="14.863788477249">
        <ele>194.4</ele>
        <time>2020-03-21T09:50:32Z</time>
      </trkpt>
      <trkpt lat="56.868495378046" lon="14.864078239532">
        <ele>194.2</ele>
        <time>2020-03-21T09:50:38Z</time>
      </trkpt>
      <trkpt lat="56.868401416947" lon="14.864365487245">
        <ele>194.6</ele>
        <time>2020-03-21T09:50:44Z</time>
      </trkpt>
      <trkpt lat="56.868311730617" lon="14.864651645311">
        <ele>194</ele>
        <time>2020-03-21T09:50:50Z</time>
      </trkpt>
      <trkpt lat="56.8682159255" lon="14.864938138653">
        <ele>193.6</ele>
        <time>2020-03-21T09:50:56Z</time>
      </trkpt>
      <trkpt lat="56.868183739004" lon="14.865020700368">
        <ele>193.4</ele>
        <time>2020-03-21T09:50:58Z</time>
      </trkpt>
      <trkpt lat="56.86813043012" lon="14.865159169356">
        <ele>193.4</ele>
        <time>2020-03-21T09:51:01Z</time>
      </trkpt>
      <trkpt lat="56.86802481818" lon="14.865456307711">
        <ele>193.2</ele>
        <time>2020-03-21T09:51:08Z</time>
      </trkpt>
      <trkpt lat="56.867928342511" lon="14.865744225976">
        <ele>193.2</ele>
        <time>2020-03-21T09:51:15Z</time>
      </trkpt>
      <trkpt lat="56.867838153267" lon="14.866051338792">
        <ele>193.2</ele>
        <time>2020-03-21T09:51:22Z</time>
      </trkpt>
      <trkpt lat="56.86773228987" lon="14.866348058052">
        <ele>192.6</ele>
        <time>2020-03-21T09:51:29Z</time>
      </trkpt>
      <trkpt lat="56.867631371794" lon="14.866649806452">
        <ele>193</ele>
        <time>2020-03-21T09:51:37Z</time>
      </trkpt>
      <trkpt lat="56.867535482858" lon="14.866937557079">
        <ele>193</ele>
        <time>2020-03-21T09:51:43Z</time>
      </trkpt>
      <trkpt lat="56.86740958672" lon="14.867221452032">
        <ele>193</ele>
        <time>2020-03-21T09:51:49Z</time>
      </trkpt>
      <trkpt lat="56.867284612591" lon="14.867513058333">
        <ele>192.8</ele>
        <time>2020-03-21T09:51:55Z</time>
      </trkpt>
      <trkpt lat="56.867174642063" lon="14.867724114575">
        <ele>192.4</ele>
        <time>2020-03-21T09:52:00Z</time>
      </trkpt>
      <trkpt lat="56.867031814487" lon="14.868017983989">
        <ele>192.2</ele>
        <time>2020-03-21T09:52:06Z</time>
      </trkpt>
      <trkpt lat="56.867019157818" lon="14.86808914632">
        <ele>192.2</ele>
        <time>2020-03-21T09:52:07Z</time>
      </trkpt>
      <trkpt lat="56.867028964641" lon="14.868190818767">
        <ele>192.4</ele>
        <time>2020-03-21T09:52:09Z</time>
      </trkpt>
      <trkpt lat="56.867201883238" lon="14.86836155807">
        <ele>193.4</ele>
        <time>2020-03-21T09:52:17Z</time>
      </trkpt>
      <trkpt lat="56.86738276464" lon="14.868453172237">
        <ele>193.6</ele>
        <time>2020-03-21T09:52:25Z</time>
      </trkpt>
      <trkpt lat="56.867560209463" lon="14.868556521064">
        <ele>193.6</ele>
        <time>2020-03-21T09:52:32Z</time>
      </trkpt>
      <trkpt lat="56.867712592405" lon="14.868603962618">
        <ele>194.4</ele>
        <time>2020-03-21T09:52:37Z</time>
      </trkpt>
      <trkpt lat="56.867894228178" lon="14.868679902632">
        <ele>194.6</ele>
        <time>2020-03-21T09:52:43Z</time>
      </trkpt>
      <trkpt lat="56.868097237796" lon="14.868775204835">
        <ele>195</ele>
        <time>2020-03-21T09:52:50Z</time>
      </trkpt>
      <trkpt lat="56.868201508632" lon="14.868822311113">
        <ele>195.4</ele>
        <time>2020-03-21T09:52:54Z</time>
      </trkpt>
      <trkpt lat="56.868355987049" lon="14.868906716846">
        <ele>196.6</ele>
        <time>2020-03-21T09:53:00Z</time>
      </trkpt>
      <trkpt lat="56.868382976767" lon="14.868921385171">
        <ele>196.6</ele>
        <time>2020-03-21T09:53:01Z</time>
      </trkpt>
      <trkpt lat="56.868587746584" lon="14.869007299646">
        <ele>197.2</ele>
        <time>2020-03-21T09:53:07Z</time>
      </trkpt>
      <trkpt lat="56.868730993255" lon="14.869072929923">
        <ele>197.6</ele>
        <time>2020-03-21T09:53:12Z</time>
      </trkpt>
      <trkpt lat="56.868922603489" lon="14.869134872164">
        <ele>197.6</ele>
        <time>2020-03-21T09:53:19Z</time>
      </trkpt>
      <trkpt lat="56.869063754685" lon="14.869191701446">
        <ele>198.8</ele>
        <time>2020-03-21T09:53:24Z</time>
      </trkpt>
      <trkpt lat="56.869256370747" lon="14.869285578726">
        <ele>198.6</ele>
        <time>2020-03-21T09:53:31Z</time>
      </trkpt>
      <trkpt lat="56.869282689913" lon="14.869298319214">
        <ele>198.6</ele>
        <time>2020-03-21T09:53:32Z</time>
      </trkpt>
      <trkpt lat="56.869464660962" lon="14.869390184838">
        <ele>198.4</ele>
        <time>2020-03-21T09:53:39Z</time>
      </trkpt>
      <trkpt lat="56.869649733314" lon="14.869463945558">
        <ele>198.2</ele>
        <time>2020-03-21T09:53:46Z</time>
      </trkpt>
      <trkpt lat="56.869835392399" lon="14.869558409571">
        <ele>198.6</ele>
        <time>2020-03-21T09:53:53Z</time>
      </trkpt>
      <trkpt lat="56.870017363448" lon="14.869651197204">
        <ele>199.6</ele>
        <time>2020-03-21T09:54:00Z</time>
      </trkpt>
      <trkpt lat="56.870095566575" lon="14.86970601483">
        <ele>200</ele>
        <time>2020-03-21T09:54:03Z</time>
      </trkpt>
      <trkpt lat="56.870122975388" lon="14.869724203553">
        <ele>199.8</ele>
        <time>2020-03-21T09:54:04Z</time>
      </trkpt>
      <trkpt lat="56.870315088536" lon="14.869828139113">
        <ele>199.4</ele>
        <time>2020-03-21T09:54:11Z</time>
      </trkpt>
      <trkpt lat="56.87044886366" lon="14.869900055815">
        <ele>198.8</ele>
        <time>2020-03-21T09:54:16Z</time>
      </trkpt>
      <trkpt lat="56.87055950474" lon="14.869954873441">
        <ele>199.8</ele>
        <time>2020-03-21T09:54:20Z</time>
      </trkpt>
      <trkpt lat="56.870737871572" lon="14.870050008006">
        <ele>200.6</ele>
        <time>2020-03-21T09:54:27Z</time>
      </trkpt>
      <trkpt lat="56.870790761361" lon="14.870084206158">
        <ele>201</ele>
        <time>2020-03-21T09:54:29Z</time>
      </trkpt>
      <trkpt lat="56.870990418219" lon="14.870184453682">
        <ele>201.8</ele>
        <time>2020-03-21T09:54:36Z</time>
      </trkpt>
      <trkpt lat="56.87118982362" lon="14.870297609332">
        <ele>201.8</ele>
        <time>2020-03-21T09:54:43Z</time>
      </trkpt>
      <trkpt lat="56.871368609547" lon="14.870389223499">
        <ele>201.4</ele>
        <time>2020-03-21T09:54:50Z</time>
      </trkpt>
      <trkpt lat="56.871500624472" lon="14.870428450791">
        <ele>201.6</ele>
        <time>2020-03-21T09:54:55Z</time>
      </trkpt>
      <trkpt lat="56.871703801728" lon="14.870462648943">
        <ele>201.6</ele>
        <time>2020-03-21T09:55:02Z</time>
      </trkpt>
      <trkpt lat="56.871761133924" lon="14.87047547325">
        <ele>202.2</ele>
        <time>2020-03-21T09:55:04Z</time>
      </trkpt>
      <trkpt lat="56.871940506584" lon="14.870501624778">
        <ele>202.4</ele>
        <time>2020-03-21T09:55:10Z</time>
      </trkpt>
      <trkpt lat="56.872145779315" lon="14.870531799618">
        <ele>202.2</ele>
        <time>2020-03-21T09:55:17Z</time>
      </trkpt>
      <trkpt lat="56.872326157803" lon="14.870567255055">
        <ele>202</ele>
        <time>2020-03-21T09:55:23Z</time>
      </trkpt>
      <trkpt lat="56.872517768037" lon="14.870587874529">
        <ele>201.6</ele>
        <time>2020-03-21T09:55:30Z</time>
      </trkpt>
      <trkpt lat="56.872710384099" lon="14.870598854818">
        <ele>201.6</ele>
        <time>2020-03-21T09:55:36Z</time>
      </trkpt>
      <trkpt lat="56.872889756759" lon="14.870630035486">
        <ele>201.6</ele>
        <time>2020-03-21T09:55:42Z</time>
      </trkpt>
      <trkpt lat="56.873085977038" lon="14.870670184787">
        <ele>202.4</ele>
        <time>2020-03-21T09:55:49Z</time>
      </trkpt>
      <trkpt lat="56.873287561733" lon="14.870714022124">
        <ele>202.8</ele>
        <time>2020-03-21T09:55:56Z</time>
      </trkpt>
      <trkpt lat="56.873479507243" lon="14.870749058466">
        <ele>202.8</ele>
        <time>2020-03-21T09:56:03Z</time>
      </trkpt>
      <trkpt lat="56.873597859671" lon="14.870762218049">
        <ele>203.4</ele>
        <time>2020-03-21T09:56:07Z</time>
      </trkpt>
      <trkpt lat="56.873785865688" lon="14.87077051613">
        <ele>203.8</ele>
        <time>2020-03-21T09:56:13Z</time>
      </trkpt>
      <trkpt lat="56.873997424844" lon="14.870789626862">
        <ele>203</ele>
        <time>2020-03-21T09:56:20Z</time>
      </trkpt>
      <trkpt lat="56.874185011766" lon="14.870830279077">
        <ele>203</ele>
        <time>2020-03-21T09:56:26Z</time>
      </trkpt>
      <trkpt lat="56.874371760498" lon="14.870866237428">
        <ele>202.8</ele>
        <time>2020-03-21T09:56:32Z</time>
      </trkpt>
      <trkpt lat="56.874558844506" lon="14.870882330676">
        <ele>203.2</ele>
        <time>2020-03-21T09:56:38Z</time>
      </trkpt>
      <trkpt lat="56.874738971537" lon="14.870916612647">
        <ele>202.6</ele>
        <time>2020-03-21T09:56:44Z</time>
      </trkpt>
      <trkpt lat="56.874928905391" lon="14.870938405587">
        <ele>204</ele>
        <time>2020-03-21T09:56:51Z</time>
      </trkpt>
      <trkpt lat="56.875006354147" lon="14.87095156517">
        <ele>203.8</ele>
        <time>2020-03-21T09:56:54Z</time>
      </trkpt>
      <trkpt lat="56.875199640761" lon="14.870992217385">
        <ele>204</ele>
        <time>2020-03-21T09:57:01Z</time>
      </trkpt>
      <trkpt lat="56.875404410578" lon="14.871035132713">
        <ele>204.2</ele>
        <time>2020-03-21T09:57:08Z</time>
      </trkpt>
      <trkpt lat="56.875602558694" lon="14.871107803786">
        <ele>204</ele>
        <time>2020-03-21T09:57:15Z</time>
      </trkpt>
      <trkpt lat="56.875767263029" lon="14.871149964743">
        <ele>204.4</ele>
        <time>2020-03-21T09:57:21Z</time>
      </trkpt>
      <trkpt lat="56.875969685914" lon="14.871187599474">
        <ele>204.2</ele>
        <time>2020-03-21T09:57:28Z</time>
      </trkpt>
      <trkpt lat="56.876156183189" lon="14.871204447093">
        <ele>204</ele>
        <time>2020-03-21T09:57:34Z</time>
      </trkpt>
      <trkpt lat="56.876349888898" lon="14.871183492343">
        <ele>204</ele>
        <time>2020-03-21T09:57:40Z</time>
      </trkpt>
      <trkpt lat="56.876542840236" lon="14.871207799853">
        <ele>203.8</ele>
        <time>2020-03-21T09:57:46Z</time>
      </trkpt>
      <trkpt lat="56.876725314199" lon="14.87121056588">
        <ele>203.6</ele>
        <time>2020-03-21T09:57:52Z</time>
      </trkpt>
      <trkpt lat="56.876908374895" lon="14.871218444866">
        <ele>203.8</ele>
        <time>2020-03-21T09:57:58Z</time>
      </trkpt>
      <trkpt lat="56.877091687048" lon="14.871269658275">
        <ele>204.4</ele>
        <time>2020-03-21T09:58:04Z</time>
      </trkpt>
      <trkpt lat="56.877286063309" lon="14.871282314944">
        <ele>204.4</ele>
        <time>2020-03-21T09:58:11Z</time>
      </trkpt>
      <trkpt lat="56.877477254448" lon="14.871308550291">
        <ele>204.4</ele>
        <time>2020-03-21T09:58:19Z</time>
      </trkpt>
      <trkpt lat="56.877680850799" lon="14.871307712101">
        <ele>205.2</ele>
        <time>2020-03-21T09:58:27Z</time>
      </trkpt>
      <trkpt lat="56.877743128316" lon="14.871264545316">
        <ele>205.4</ele>
        <time>2020-03-21T09:58:29Z</time>
      </trkpt>
      <trkpt lat="56.877760981763" lon="14.871216768486">
        <ele>205.6</ele>
        <time>2020-03-21T09:58:30Z</time>
      </trkpt>
      <trkpt lat="56.877767352007" lon="14.870867159437">
        <ele>205.2</ele>
        <time>2020-03-21T09:58:36Z</time>
      </trkpt>
      <trkpt lat="56.87774363123" lon="14.870522579528">
        <ele>205.2</ele>
        <time>2020-03-21T09:58:42Z</time>
      </trkpt>
      <trkpt lat="56.877720497186" lon="14.870195936885">
        <ele>204.8</ele>
        <time>2020-03-21T09:58:48Z</time>
      </trkpt>
      <trkpt lat="56.877699877712" lon="14.869979683865">
        <ele>204.6</ele>
        <time>2020-03-21T09:58:52Z</time>
      </trkpt>
      <trkpt lat="56.877714797494" lon="14.869642480028">
        <ele>204</ele>
        <time>2020-03-21T09:58:58Z</time>
      </trkpt>
      <trkpt lat="56.877781182142" lon="14.869288931486">
        <ele>204</ele>
        <time>2020-03-21T09:59:05Z</time>
      </trkpt>
      <trkpt lat="56.877869611187" lon="14.869080808909">
        <ele>203.6</ele>
        <time>2020-03-21T09:59:10Z</time>
      </trkpt>
      <trkpt lat="56.877880842933" lon="14.868748634212">
        <ele>203.4</ele>
        <time>2020-03-21T09:59:17Z</time>
      </trkpt>
      <trkpt lat="56.877850332817" lon="14.868404976312">
        <ele>203.8</ele>
        <time>2020-03-21T09:59:23Z</time>
      </trkpt>
      <trkpt lat="56.877805322014" lon="14.868056037815">
        <ele>203.6</ele>
        <time>2020-03-21T09:59:29Z</time>
      </trkpt>
      <trkpt lat="56.877781685056" lon="14.867705422938">
        <ele>202.8</ele>
        <time>2020-03-21T09:59:35Z</time>
      </trkpt>
      <trkpt lat="56.87780062815" lon="14.867513142152">
        <ele>202.6</ele>
        <time>2020-03-21T09:59:38Z</time>
      </trkpt>
      <trkpt lat="56.877884530969" lon="14.867162611094">
        <ele>201.8</ele>
        <time>2020-03-21T09:59:44Z</time>
      </trkpt>
      <trkpt lat="56.877896936181" lon="14.867102345233">
        <ele>201.4</ele>
        <time>2020-03-21T09:59:45Z</time>
      </trkpt>
      <trkpt lat="56.877954687472" lon="14.866755502211">
        <ele>200.8</ele>
        <time>2020-03-21T09:59:51Z</time>
      </trkpt>
      <trkpt lat="56.877973882023" lon="14.86658291889">
        <ele>200.4</ele>
        <time>2020-03-21T09:59:54Z</time>
      </trkpt>
      <trkpt lat="56.878024341061" lon="14.866259629007">
        <ele>199.8</ele>
        <time>2020-03-21T10:00:00Z</time>
      </trkpt>
      <trkpt lat="56.87806968714" lon="14.866004651609">
        <ele>199.4</ele>
        <time>2020-03-21T10:00:05Z</time>
      </trkpt>
      <trkpt lat="56.878119224169" lon="14.865641212425">
        <ele>199</ele>
        <time>2020-03-21T10:00:12Z</time>
      </trkpt>
      <trkpt lat="56.878184770627" lon="14.865316329981">
        <ele>198.8</ele>
        <time>2020-03-21T10:00:18Z</time>
      </trkpt>
      <trkpt lat="56.878229362335" lon="14.865092365613">
        <ele>198.2</ele>
        <time>2020-03-21T10:00:22Z</time>
      </trkpt>
      <trkpt lat="56.878301530494" lon="14.864792461231">
        <ele>198</ele>
        <time>2020-03-21T10:00:28Z</time>
      </trkpt>
      <trkpt lat="56.878361293441" lon="14.86447403285">
        <ele>198.2</ele>
        <time>2020-03-21T10:00:34Z</time>
      </trkpt>
      <trkpt lat="56.878410914289" lon="14.864146384379">
        <ele>197.2</ele>
        <time>2020-03-21T10:00:40Z</time>
      </trkpt>
      <trkpt lat="56.878448968115" lon="14.863816808071">
        <ele>196.8</ele>
        <time>2020-03-21T10:00:46Z</time>
      </trkpt>
      <trkpt lat="56.878547203983" lon="14.863528889806">
        <ele>197.4</ele>
        <time>2020-03-21T10:00:53Z</time>
      </trkpt>
      <trkpt lat="56.878670753189" lon="14.863238373152">
        <ele>197.8</ele>
        <time>2020-03-21T10:01:00Z</time>
      </trkpt>
      <trkpt lat="56.878699586925" lon="14.863175927997">
        <ele>198</ele>
        <time>2020-03-21T10:01:02Z</time>
      </trkpt>
      <trkpt lat="56.878795978775" lon="14.863085654934">
        <ele>198.4</ele>
        <time>2020-03-21T10:01:07Z</time>
      </trkpt>
      <trkpt lat="56.878827662357" lon="14.862732190211">
        <ele>197.8</ele>
        <time>2020-03-21T10:01:14Z</time>
      </trkpt>
      <trkpt lat="56.878835038429" lon="14.862639821673">
        <ele>197.8</ele>
        <time>2020-03-21T10:01:16Z</time>
      </trkpt>
      <trkpt lat="56.878814921869" lon="14.862358944204">
        <ele>197.2</ele>
        <time>2020-03-21T10:01:22Z</time>
      </trkpt>
      <trkpt lat="56.878880133051" lon="14.86209357325">
        <ele>196.8</ele>
        <time>2020-03-21T10:01:30Z</time>
      </trkpt>
      <trkpt lat="56.879070988914" lon="14.862064404238">
        <ele>196.8</ele>
        <time>2020-03-21T10:01:40Z</time>
      </trkpt>
      <trkpt lat="56.879248769013" lon="14.862080665124">
        <ele>197.2</ele>
        <time>2020-03-21T10:01:47Z</time>
      </trkpt>
      <trkpt lat="56.879451778631" lon="14.861997768133">
        <ele>197.6</ele>
        <time>2020-03-21T10:01:54Z</time>
      </trkpt>
      <trkpt lat="56.879639281734" lon="14.861923169223">
        <ele>197.8</ele>
        <time>2020-03-21T10:02:00Z</time>
      </trkpt>
      <trkpt lat="56.879831311063" lon="14.861806576994">
        <ele>197.8</ele>
        <time>2020-03-21T10:02:06Z</time>
      </trkpt>
      <trkpt lat="56.88001093518" lon="14.861628629257">
        <ele>198</ele>
        <time>2020-03-21T10:02:12Z</time>
      </trkpt>
      <trkpt lat="56.8801936606" lon="14.861497452522">
        <ele>198.4</ele>
        <time>2020-03-21T10:02:18Z</time>
      </trkpt>
      <trkpt lat="56.880363394075" lon="14.861356385145">
        <ele>198.6</ele>
        <time>2020-03-21T10:02:25Z</time>
      </trkpt>
      <trkpt lat="56.880510831696" lon="14.861130409121">
        <ele>198.2</ele>
        <time>2020-03-21T10:02:32Z</time>
      </trkpt>
      <trkpt lat="56.880707722527" lon="14.86113636027">
        <ele>198.6</ele>
        <time>2020-03-21T10:02:39Z</time>
      </trkpt>
      <trkpt lat="56.880833702484" lon="14.861427882752">
        <ele>199</ele>
        <time>2020-03-21T10:02:46Z</time>
      </trkpt>
      <trkpt lat="56.880881479314" lon="14.861461326533">
        <ele>199.2</ele>
        <time>2020-03-21T10:02:48Z</time>
      </trkpt>
      <trkpt lat="56.88108549476" lon="14.861439868869">
        <ele>199.2</ele>
        <time>2020-03-21T10:02:55Z</time>
      </trkpt>
      <trkpt lat="56.881136456712" lon="14.861423188888">
        <ele>199.4</ele>
        <time>2020-03-21T10:02:57Z</time>
      </trkpt>
      <trkpt lat="56.881334940104" lon="14.861341633001">
        <ele>199.4</ele>
        <time>2020-03-21T10:03:04Z</time>
      </trkpt>
      <trkpt lat="56.881463266993" lon="14.861276421819">
        <ele>200.6</ele>
        <time>2020-03-21T10:03:08Z</time>
      </trkpt>
      <trkpt lat="56.881641801463" lon="14.861209953352">
        <ele>200</ele>
        <time>2020-03-21T10:03:14Z</time>
      </trkpt>
      <trkpt lat="56.881844978719" lon="14.861141054134">
        <ele>199.8</ele>
        <time>2020-03-21T10:03:21Z</time>
      </trkpt>
      <trkpt lat="56.882026614492" lon="14.8610751724">
        <ele>200</ele>
        <time>2020-03-21T10:03:27Z</time>
      </trkpt>
      <trkpt lat="56.882204729867" lon="14.861028317579">
        <ele>199.6</ele>
        <time>2020-03-21T10:03:33Z</time>
      </trkpt>
      <trkpt lat="56.88223130049" lon="14.861023456077">
        <ele>199.4</ele>
        <time>2020-03-21T10:03:34Z</time>
      </trkpt>
      <trkpt lat="56.882425090018" lon="14.860946258778">
        <ele>199.2</ele>
        <time>2020-03-21T10:03:42Z</time>
      </trkpt>
      <trkpt lat="56.882606055239" lon="14.860890267686">
        <ele>199.6</ele>
        <time>2020-03-21T10:03:49Z</time>
      </trkpt>
      <trkpt lat="56.882809316314" lon="14.860841904123">
        <ele>198.8</ele>
        <time>2020-03-21T10:03:56Z</time>
      </trkpt>
      <trkpt lat="56.882998076702" lon="14.860835198603">
        <ele>198.6</ele>
        <time>2020-03-21T10:04:02Z</time>
      </trkpt>
      <trkpt lat="56.883177030267" lon="14.860847268539">
        <ele>198.4</ele>
        <time>2020-03-21T10:04:08Z</time>
      </trkpt>
      <trkpt lat="56.883281133465" lon="14.860831594386">
        <ele>198.4</ele>
        <time>2020-03-21T10:04:12Z</time>
      </trkpt>
      <trkpt lat="56.883459165021" lon="14.860764371548">
        <ele>198.8</ele>
        <time>2020-03-21T10:04:18Z</time>
      </trkpt>
      <trkpt lat="56.883594867982" lon="14.860988084459">
        <ele>199</ele>
        <time>2020-03-21T10:04:25Z</time>
      </trkpt>
      <trkpt lat="56.883653625101" lon="14.861157398839">
        <ele>199.4</ele>
        <time>2020-03-21T10:04:29Z</time>
      </trkpt>
      <trkpt lat="56.883772815719" lon="14.861455375384">
        <ele>199.4</ele>
        <time>2020-03-21T10:04:36Z</time>
      </trkpt>
      <trkpt lat="56.883898544219" lon="14.861729714971">
        <ele>199.4</ele>
        <time>2020-03-21T10:04:43Z</time>
      </trkpt>
      <trkpt lat="56.88404262908" lon="14.861973544442">
        <ele>198.8</ele>
        <time>2020-03-21T10:04:48Z</time>
      </trkpt>
      <trkpt lat="56.884189815244" lon="14.86216062845">
        <ele>198.8</ele>
        <time>2020-03-21T10:04:55Z</time>
      </trkpt>
      <trkpt lat="56.884248153268" lon="14.862244028355">
        <ele>198.6</ele>
        <time>2020-03-21T10:04:58Z</time>
      </trkpt>
      <trkpt lat="56.884278495746" lon="14.8626006782">
        <ele>199.2</ele>
        <time>2020-03-21T10:05:04Z</time>
      </trkpt>
      <trkpt lat="56.8842924097" lon="14.862713414755">
        <ele>198.4</ele>
        <time>2020-03-21T10:05:06Z</time>
      </trkpt>
      <trkpt lat="56.884437081294" lon="14.862872670855">
        <ele>199</ele>
        <time>2020-03-21T10:05:13Z</time>
      </trkpt>
      <trkpt lat="56.884618214153" lon="14.862921118237">
        <ele>198.4</ele>
        <time>2020-03-21T10:05:20Z</time>
      </trkpt>
      <trkpt lat="56.88479616189" lon="14.863049696583">
        <ele>198.2</ele>
        <time>2020-03-21T10:05:29Z</time>
      </trkpt>
      <trkpt lat="56.884810243482" lon="14.863065370736">
        <ele>198.2</ele>
        <time>2020-03-21T10:05:30Z</time>
      </trkpt>
      <trkpt lat="56.884832287879" lon="14.86305665356">
        <ele>198.2</ele>
        <time>2020-03-21T10:05:32Z</time>
      </trkpt>
      <trkpt lat="56.884814015337" lon="14.862990101274">
        <ele>198.4</ele>
        <time>2020-03-21T10:05:35Z</time>
      </trkpt>
      <trkpt lat="56.88480789655" lon="14.86267443892">
        <ele>198.4</ele>
        <time>2020-03-21T10:05:43Z</time>
      </trkpt>
      <trkpt lat="56.884807477455" lon="14.862549883886">
        <ele>198.8</ele>
        <time>2020-03-21T10:05:46Z</time>
      </trkpt>
      <trkpt lat="56.884924740236" lon="14.862270850435">
        <ele>198.4</ele>
        <time>2020-03-21T10:05:55Z</time>
      </trkpt>
      <trkpt lat="56.885001350802" lon="14.86196868294">
        <ele>197.6</ele>
        <time>2020-03-21T10:06:03Z</time>
      </trkpt>
      <trkpt lat="56.885021551181" lon="14.861900202817">
        <ele>197.6</ele>
        <time>2020-03-21T10:06:05Z</time>
      </trkpt>
      <trkpt lat="56.885058934455" lon="14.861571213242">
        <ele>198.4</ele>
        <time>2020-03-21T10:06:12Z</time>
      </trkpt>
      <trkpt lat="56.885072429314" lon="14.861209785714">
        <ele>198.8</ele>
        <time>2020-03-21T10:06:19Z</time>
      </trkpt>
      <trkpt lat="56.885122050162" lon="14.860855398982">
        <ele>199.2</ele>
        <time>2020-03-21T10:06:26Z</time>
      </trkpt>
      <trkpt lat="56.885130012967" lon="14.860710056836">
        <ele>199.6</ele>
        <time>2020-03-21T10:06:29Z</time>
      </trkpt>
      <trkpt lat="56.885094892806" lon="14.860375619026">
        <ele>200.2</ele>
        <time>2020-03-21T10:06:36Z</time>
      </trkpt>
      <trkpt lat="56.885111069873" lon="14.860042857596">
        <ele>200.2</ele>
        <time>2020-03-21T10:06:43Z</time>
      </trkpt>
      <trkpt lat="56.885120206144" lon="14.859687465036">
        <ele>200.2</ele>
        <time>2020-03-21T10:06:50Z</time>
      </trkpt>
      <trkpt lat="56.885135964116" lon="14.85955721031">
        <ele>200</ele>
        <time>2020-03-21T10:06:53Z</time>
      </trkpt>
      <trkpt lat="56.88512054142" lon="14.859223359233">
        <ele>198.6</ele>
        <time>2020-03-21T10:07:00Z</time>
      </trkpt>
      <trkpt lat="56.885048792356" lon="14.858964190885">
        <ele>197.6</ele>
        <time>2020-03-21T10:07:05Z</time>
      </trkpt>
      <trkpt lat="56.885062119577" lon="14.858748524598">
        <ele>197</ele>
        <time>2020-03-21T10:07:09Z</time>
      </trkpt>
      <trkpt lat="56.885161864187" lon="14.858649701997">
        <ele>196.4</ele>
        <time>2020-03-21T10:07:13Z</time>
      </trkpt>
      <trkpt lat="56.885355569896" lon="14.85851953109">
        <ele>196.2</ele>
        <time>2020-03-21T10:07:20Z</time>
      </trkpt>
      <trkpt lat="56.885441484371" lon="14.858446943836">
        <ele>195.4</ele>
        <time>2020-03-21T10:07:23Z</time>
      </trkpt>
      <trkpt lat="56.885548940329" lon="14.858531349569">
        <ele>194.4</ele>
        <time>2020-03-21T10:07:27Z</time>
      </trkpt>
      <trkpt lat="56.88572236184" lon="14.858722121613">
        <ele>195</ele>
        <time>2020-03-21T10:07:35Z</time>
      </trkpt>
      <trkpt lat="56.885902656509" lon="14.858772077737">
        <ele>194.8</ele>
        <time>2020-03-21T10:07:41Z</time>
      </trkpt>
      <trkpt lat="56.886106839593" lon="14.85878775189">
        <ele>194.8</ele>
        <time>2020-03-21T10:07:47Z</time>
      </trkpt>
      <trkpt lat="56.886310016849" lon="14.858869475415">
        <ele>195.2</ele>
        <time>2020-03-21T10:07:53Z</time>
      </trkpt>
      <trkpt lat="56.886515876313" lon="14.858921275557">
        <ele>194.8</ele>
        <time>2020-03-21T10:08:00Z</time>
      </trkpt>
      <trkpt lat="56.886704971977" lon="14.858832427417">
        <ele>194.4</ele>
        <time>2020-03-21T10:08:07Z</time>
      </trkpt>
      <trkpt lat="56.886885937198" lon="14.858761097448">
        <ele>193.2</ele>
        <time>2020-03-21T10:08:14Z</time>
      </trkpt>
      <trkpt lat="56.887073691758" lon="14.85870560927">
        <ele>192.6</ele>
        <time>2020-03-21T10:08:22Z</time>
      </trkpt>
      <trkpt lat="56.887165222106" lon="14.858704016709">
        <ele>192.2</ele>
        <time>2020-03-21T10:08:26Z</time>
      </trkpt>
      <trkpt lat="56.887365633335" lon="14.858698317017">
        <ele>192.2</ele>
        <time>2020-03-21T10:08:33Z</time>
      </trkpt>
      <trkpt lat="56.887570654609" lon="14.858686414719">
        <ele>192.6</ele>
        <time>2020-03-21T10:08:40Z</time>
      </trkpt>
      <trkpt lat="56.887758912083" lon="14.858596728389">
        <ele>192.8</ele>
        <time>2020-03-21T10:08:46Z</time>
      </trkpt>
      <trkpt lat="56.887941386046" lon="14.858517100339">
        <ele>192.8</ele>
        <time>2020-03-21T10:08:53Z</time>
      </trkpt>
      <trkpt lat="56.888139115067" lon="14.858410398752">
        <ele>193</ele>
        <time>2020-03-21T10:08:59Z</time>
      </trkpt>
      <trkpt lat="56.888324690333" lon="14.858283329148">
        <ele>192.4</ele>
        <time>2020-03-21T10:09:06Z</time>
      </trkpt>
      <trkpt lat="56.888492244514" lon="14.858102866841">
        <ele>192.2</ele>
        <time>2020-03-21T10:09:12Z</time>
      </trkpt>
      <trkpt lat="56.888642364343" lon="14.857875214437">
        <ele>192.2</ele>
        <time>2020-03-21T10:09:19Z</time>
      </trkpt>
      <trkpt lat="56.888800614615" lon="14.857676898683">
        <ele>192.2</ele>
        <time>2020-03-21T10:09:26Z</time>
      </trkpt>
      <trkpt lat="56.889002283129" lon="14.85761512408">
        <ele>191.8</ele>
        <time>2020-03-21T10:09:34Z</time>
      </trkpt>
      <trkpt lat="56.88905081433" lon="14.85758159648">
        <ele>191</ele>
        <time>2020-03-21T10:09:36Z</time>
      </trkpt>
      <trkpt lat="56.889234880854" lon="14.857515044194">
        <ele>191.4</ele>
        <time>2020-03-21T10:09:43Z</time>
      </trkpt>
      <trkpt lat="56.889420959034" lon="14.857495682005">
        <ele>190.4</ele>
        <time>2020-03-21T10:09:50Z</time>
      </trkpt>
      <trkpt lat="56.889602930083" lon="14.857481265137">
        <ele>190.4</ele>
        <time>2020-03-21T10:09:57Z</time>
      </trkpt>
      <trkpt lat="56.889683396323" lon="14.857407504417">
        <ele>190</ele>
        <time>2020-03-21T10:10:00Z</time>
      </trkpt>
      <trkpt lat="56.889857320748" lon="14.857239698779">
        <ele>190</ele>
        <time>2020-03-21T10:10:08Z</time>
      </trkpt>
      <trkpt lat="56.890049852991" lon="14.857147665517">
        <ele>190.6</ele>
        <time>2020-03-21T10:10:16Z</time>
      </trkpt>
      <trkpt lat="56.890230482936" lon="14.857043059405">
        <ele>190.8</ele>
        <time>2020-03-21T10:10:23Z</time>
      </trkpt>
      <trkpt lat="56.890255796274" lon="14.85704264031">
        <ele>191</ele>
        <time>2020-03-21T10:10:24Z</time>
      </trkpt>
      <trkpt lat="56.89045142982" lon="14.857011292004">
        <ele>191.2</ele>
        <time>2020-03-21T10:10:30Z</time>
      </trkpt>
      <trkpt lat="56.89063583162" lon="14.856992181272">
        <ele>191</ele>
        <time>2020-03-21T10:10:36Z</time>
      </trkpt>
      <trkpt lat="56.890815707194" lon="14.856954462722">
        <ele>191.4</ele>
        <time>2020-03-21T10:10:42Z</time>
      </trkpt>
      <trkpt lat="56.890969263602" lon="14.856935603447">
        <ele>192</ele>
        <time>2020-03-21T10:10:48Z</time>
      </trkpt>
      <trkpt lat="56.891162885492" lon="14.85684482747">
        <ele>192.8</ele>
        <time>2020-03-21T10:10:56Z</time>
      </trkpt>
      <trkpt lat="56.891301941213" lon="14.856588425149">
        <ele>192.8</ele>
        <time>2020-03-21T10:11:04Z</time>
      </trkpt>
      <trkpt lat="56.891473351068" lon="14.856441825718">
        <ele>192.4</ele>
        <time>2020-03-21T10:11:12Z</time>
      </trkpt>
      <trkpt lat="56.891653729556" lon="14.856372423586">
        <ele>192.4</ele>
        <time>2020-03-21T10:11:19Z</time>
      </trkpt>
      <trkpt lat="56.891825726144" lon="14.856539893948">
        <ele>191.4</ele>
        <time>2020-03-21T10:11:25Z</time>
      </trkpt>
      <trkpt lat="56.891984563149" lon="14.856785902713">
        <ele>191.2</ele>
        <time>2020-03-21T10:11:32Z</time>
      </trkpt>
      <trkpt lat="56.892014151256" lon="14.85685991489">
        <ele>191</ele>
        <time>2020-03-21T10:11:34Z</time>
      </trkpt>
      <trkpt lat="56.892099562817" lon="14.857054542608">
        <ele>189.8</ele>
        <time>2020-03-21T10:11:39Z</time>
      </trkpt>
      <trkpt lat="56.892196206124" lon="14.8573536088">
        <ele>189.4</ele>
        <time>2020-03-21T10:11:46Z</time>
      </trkpt>
      <trkpt lat="56.892258064546" lon="14.857664409652">
        <ele>189.8</ele>
        <time>2020-03-21T10:11:53Z</time>
      </trkpt>
      <trkpt lat="56.892414973714" lon="14.85786825746">
        <ele>189.2</ele>
        <time>2020-03-21T10:12:01Z</time>
      </trkpt>
      <trkpt lat="56.892616558409" lon="14.857796843672">
        <ele>189.6</ele>
        <time>2020-03-21T10:12:10Z</time>
      </trkpt>
      <trkpt lat="56.892797188354" lon="14.857684023298">
        <ele>188.8</ele>
        <time>2020-03-21T10:12:16Z</time>
      </trkpt>
      <trkpt lat="56.892831470325" lon="14.857669774068">
        <ele>188.4</ele>
        <time>2020-03-21T10:12:17Z</time>
      </trkpt>
      <trkpt lat="56.89303556959" lon="14.857575561512">
        <ele>188.2</ele>
        <time>2020-03-21T10:12:23Z</time>
      </trkpt>
      <trkpt lat="56.893224497616" lon="14.857481516594">
        <ele>188</ele>
        <time>2020-03-21T10:12:29Z</time>
      </trkpt>
      <trkpt lat="56.893394985462" lon="14.857378838319">
        <ele>187.6</ele>
        <time>2020-03-21T10:12:35Z</time>
      </trkpt>
      <trkpt lat="56.893489281837" lon="14.857343466701">
        <ele>187.4</ele>
        <time>2020-03-21T10:12:38Z</time>
      </trkpt>
      <trkpt lat="56.893669660325" lon="14.857244727919">
        <ele>186.2</ele>
        <time>2020-03-21T10:12:44Z</time>
      </trkpt>
      <trkpt lat="56.893850709365" lon="14.857146659689">
        <ele>185.6</ele>
        <time>2020-03-21T10:12:50Z</time>
      </trkpt>
      <trkpt lat="56.893948861414" lon="14.857097374117">
        <ele>185.2</ele>
        <time>2020-03-21T10:12:53Z</time>
      </trkpt>
      <trkpt lat="56.894135107232" lon="14.857011962556">
        <ele>185.4</ele>
        <time>2020-03-21T10:13:00Z</time>
      </trkpt>
      <trkpt lat="56.894331076054" lon="14.856923701149">
        <ele>184.4</ele>
        <time>2020-03-21T10:13:07Z</time>
      </trkpt>
      <trkpt lat="56.894390503725" lon="14.856893107214">
        <ele>184.2</ele>
        <time>2020-03-21T10:13:09Z</time>
      </trkpt>
      <trkpt lat="56.894574570249" lon="14.856772072578">
        <ele>184</ele>
        <time>2020-03-21T10:13:15Z</time>
      </trkpt>
      <trkpt lat="56.894707674821" lon="14.856642907499">
        <ele>183.2</ele>
        <time>2020-03-21T10:13:20Z</time>
      </trkpt>
      <trkpt lat="56.894881599246" lon="14.856461942278">
        <ele>182.8</ele>
        <time>2020-03-21T10:13:27Z</time>
      </trkpt>
      <trkpt lat="56.894960305287" lon="14.856271924605">
        <ele>182.2</ele>
        <time>2020-03-21T10:13:32Z</time>
      </trkpt>
      <trkpt lat="56.895064157028" lon="14.855941677745">
        <ele>181</ele>
        <time>2020-03-21T10:13:40Z</time>
      </trkpt>
      <trkpt lat="56.895216875246" lon="14.855769262062">
        <ele>180.2</ele>
        <time>2020-03-21T10:13:47Z</time>
      </trkpt>
      <trkpt lat="56.895258533289" lon="14.855742272344">
        <ele>180</ele>
        <time>2020-03-21T10:13:49Z</time>
      </trkpt>
      <trkpt lat="56.895442264537" lon="14.855571700679">
        <ele>179.8</ele>
        <time>2020-03-21T10:13:55Z</time>
      </trkpt>
      <trkpt lat="56.895606130682" lon="14.855431471492">
        <ele>179.6</ele>
        <time>2020-03-21T10:14:00Z</time>
      </trkpt>
      <trkpt lat="56.895777205261" lon="14.855237011412">
        <ele>179.2</ele>
        <time>2020-03-21T10:14:06Z</time>
      </trkpt>
      <trkpt lat="56.895933360058" lon="14.855106589048">
        <ele>179</ele>
        <time>2020-03-21T10:14:12Z</time>
      </trkpt>
      <trkpt lat="56.896148188155" lon="14.855081610986">
        <ele>178.4</ele>
        <time>2020-03-21T10:14:18Z</time>
      </trkpt>
      <trkpt lat="56.896335858896" lon="14.855049508309">
        <ele>178.2</ele>
        <time>2020-03-21T10:14:23Z</time>
      </trkpt>
      <trkpt lat="56.896526463302" lon="14.854981782557">
        <ele>178.2</ele>
        <time>2020-03-21T10:14:29Z</time>
      </trkpt>
      <trkpt lat="56.896710781283" lon="14.854900981041">
        <ele>178</ele>
        <time>2020-03-21T10:14:35Z</time>
      </trkpt>
      <trkpt lat="56.896905157544" lon="14.854815066566">
        <ele>178.4</ele>
        <time>2020-03-21T10:14:42Z</time>
      </trkpt>
      <trkpt lat="56.89708402729" lon="14.854727224254">
        <ele>178.6</ele>
        <time>2020-03-21T10:14:49Z</time>
      </trkpt>
      <trkpt lat="56.897248396349" lon="14.854644830177">
        <ele>177.8</ele>
        <time>2020-03-21T10:14:54Z</time>
      </trkpt>
      <trkpt lat="56.897338250317" lon="14.854630413309">
        <ele>176.8</ele>
        <time>2020-03-21T10:14:57Z</time>
      </trkpt>
      <trkpt lat="56.897530531103" lon="14.854531339251">
        <ele>177</ele>
        <time>2020-03-21T10:15:04Z</time>
      </trkpt>
      <trkpt lat="56.897722141337" lon="14.85444592769">
        <ele>176.2</ele>
        <time>2020-03-21T10:15:11Z</time>
      </trkpt>
      <trkpt lat="56.897779557352" lon="14.854406700398">
        <ele>175.6</ele>
        <time>2020-03-21T10:15:13Z</time>
      </trkpt>
      <trkpt lat="56.89796664136" lon="14.85434869765">
        <ele>175</ele>
        <time>2020-03-21T10:15:19Z</time>
      </trkpt>
      <trkpt lat="56.898131680971" lon="14.854215173983">
        <ele>175</ele>
        <time>2020-03-21T10:15:25Z</time>
      </trkpt>
      <trkpt lat="56.898160682345" lon="14.854187178437">
        <ele>174.6</ele>
        <time>2020-03-21T10:15:26Z</time>
      </trkpt>
      <trkpt lat="56.898331924562" lon="14.853994059461">
        <ele>174.2</ele>
        <time>2020-03-21T10:15:33Z</time>
      </trkpt>
      <trkpt lat="56.898489588101" lon="14.85379884501">
        <ele>174</ele>
        <time>2020-03-21T10:15:40Z</time>
      </trkpt>
      <trkpt lat="56.898647670735" lon="14.853619388531">
        <ele>174.2</ele>
        <time>2020-03-21T10:15:46Z</time>
      </trkpt>
      <trkpt lat="56.89880818412" lon="14.853433058894">
        <ele>174.6</ele>
        <time>2020-03-21T10:15:53Z</time>
      </trkpt>
      <trkpt lat="56.8989774985" lon="14.853230133095">
        <ele>174.4</ele>
        <time>2020-03-21T10:16:00Z</time>
      </trkpt>
      <trkpt lat="56.899145890871" lon="14.85303860668">
        <ele>174</ele>
        <time>2020-03-21T10:16:07Z</time>
      </trkpt>
      <trkpt lat="56.899310595206" lon="14.852864430798">
        <ele>173.8</ele>
        <time>2020-03-21T10:16:13Z</time>
      </trkpt>
      <trkpt lat="56.899369436144" lon="14.852816821606">
        <ele>173.6</ele>
        <time>2020-03-21T10:16:15Z</time>
      </trkpt>
      <trkpt lat="56.8995809953" lon="14.852739456669">
        <ele>173</ele>
        <time>2020-03-21T10:16:21Z</time>
      </trkpt>
      <trkpt lat="56.899699934461" lon="14.852735517176">
        <ele>172.4</ele>
        <time>2020-03-21T10:16:24Z</time>
      </trkpt>
      <trkpt lat="56.899907218848" lon="14.852701402843">
        <ele>171.8</ele>
        <time>2020-03-21T10:16:30Z</time>
      </trkpt>
      <trkpt lat="56.900105534602" lon="14.852681453921">
        <ele>171.8</ele>
        <time>2020-03-21T10:16:36Z</time>
      </trkpt>
      <trkpt lat="56.90030351508" lon="14.852808355887">
        <ele>172.6</ele>
        <time>2020-03-21T10:16:43Z</time>
      </trkpt>
      <trkpt lat="56.90047031489" lon="14.852935844586">
        <ele>172.8</ele>
        <time>2020-03-21T10:16:49Z</time>
      </trkpt>
      <trkpt lat="56.900658991459" lon="14.853077666334">
        <ele>172.4</ele>
        <time>2020-03-21T10:16:56Z</time>
      </trkpt>
      <trkpt lat="56.900826294183" lon="14.853275143898">
        <ele>172.4</ele>
        <time>2020-03-21T10:17:04Z</time>
      </trkpt>
      <trkpt lat="56.900996530572" lon="14.853486116321">
        <ele>171.4</ele>
        <time>2020-03-21T10:17:13Z</time>
      </trkpt>
      <trkpt lat="56.90116768897" lon="14.853660208384">
        <ele>170.6</ele>
        <time>2020-03-21T10:17:19Z</time>
      </trkpt>
      <trkpt lat="56.901308253433" lon="14.853779315183">
        <ele>170</ele>
        <time>2020-03-21T10:17:24Z</time>
      </trkpt>
      <trkpt lat="56.901509586671" lon="14.853885094761">
        <ele>169.6</ele>
        <time>2020-03-21T10:17:29Z</time>
      </trkpt>
      <trkpt lat="56.901667753124" lon="14.854067484905">
        <ele>169.4</ele>
        <time>2020-03-21T10:17:34Z</time>
      </trkpt>
      <trkpt lat="56.901801779705" lon="14.854318858086">
        <ele>170.6</ele>
        <time>2020-03-21T10:17:40Z</time>
      </trkpt>
      <trkpt lat="56.901869924552" lon="14.854445424776">
        <ele>171.2</ele>
        <time>2020-03-21T10:17:43Z</time>
      </trkpt>
      <trkpt lat="56.901998419079" lon="14.854701491821">
        <ele>171.6</ele>
        <time>2020-03-21T10:17:49Z</time>
      </trkpt>
      <trkpt lat="56.902086512848" lon="14.854849516175">
        <ele>172.2</ele>
        <time>2020-03-21T10:17:53Z</time>
      </trkpt>
      <trkpt lat="56.902148119813" lon="14.854964683481">
        <ele>173.4</ele>
        <time>2020-03-21T10:17:56Z</time>
      </trkpt>
      <trkpt lat="56.902263790033" lon="14.855227791322">
        <ele>174.4</ele>
        <time>2020-03-21T10:18:03Z</time>
      </trkpt>
      <trkpt lat="56.902326821921" lon="14.85539559696">
        <ele>175.4</ele>
        <time>2020-03-21T10:18:08Z</time>
      </trkpt>
      <trkpt lat="56.902441067218" lon="14.855681084474">
        <ele>176</ele>
        <time>2020-03-21T10:18:16Z</time>
      </trkpt>
      <trkpt lat="56.902542404389" lon="14.855889374689">
        <ele>176.2</ele>
        <time>2020-03-21T10:18:22Z</time>
      </trkpt>
      <trkpt lat="56.90265966717" lon="14.855727771657">
        <ele>176.2</ele>
        <time>2020-03-21T10:18:31Z</time>
      </trkpt>
      <trkpt lat="56.902674922228" lon="14.85566381776">
        <ele>176</ele>
        <time>2020-03-21T10:18:33Z</time>
      </trkpt>
      <trkpt lat="56.902716831728" lon="14.855608161944">
        <ele>175.6</ele>
        <time>2020-03-21T10:18:36Z</time>
      </trkpt>
      <trkpt lat="56.902890672334" lon="14.855411354932">
        <ele>175.6</ele>
        <time>2020-03-21T10:18:46Z</time>
      </trkpt>
      <trkpt lat="56.903077672523" lon="14.85524472276">
        <ele>175.6</ele>
        <time>2020-03-21T10:18:53Z</time>
      </trkpt>
      <trkpt lat="56.903269115119" lon="14.855121592649">
        <ele>175.4</ele>
        <time>2020-03-21T10:19:00Z</time>
      </trkpt>
      <trkpt lat="56.903446308485" lon="14.855042216056">
        <ele>175.8</ele>
        <time>2020-03-21T10:19:06Z</time>
      </trkpt>
      <trkpt lat="56.903604726395" lon="14.854867201984">
        <ele>175.6</ele>
        <time>2020-03-21T10:19:12Z</time>
      </trkpt>
      <trkpt lat="56.903783009408" lon="14.854668718592">
        <ele>175.2</ele>
        <time>2020-03-21T10:19:20Z</time>
      </trkpt>
      <trkpt lat="56.903915946342" lon="14.854487669552">
        <ele>175.6</ele>
        <time>2020-03-21T10:19:27Z</time>
      </trkpt>
      <trkpt lat="56.904007560509" lon="14.854432684288">
        <ele>176.2</ele>
        <time>2020-03-21T10:19:31Z</time>
      </trkpt>
      <trkpt lat="56.904045446697" lon="14.85446939701">
        <ele>176.6</ele>
        <time>2020-03-21T10:19:33Z</time>
      </trkpt>
      <trkpt lat="56.904174779414" lon="14.854546091395">
        <ele>177.8</ele>
        <time>2020-03-21T10:19:38Z</time>
      </trkpt>
      <trkpt lat="56.904276954775" lon="14.854568806344">
        <ele>177.4</ele>
        <time>2020-03-21T10:19:42Z</time>
      </trkpt>
      <trkpt lat="56.904414669392" lon="14.854322127027">
        <ele>177.2</ele>
        <time>2020-03-21T10:19:48Z</time>
      </trkpt>
      <trkpt lat="56.904455740702" lon="14.854238559484">
        <ele>176.4</ele>
        <time>2020-03-21T10:19:50Z</time>
      </trkpt>
      <trkpt lat="56.904537380408" lon="14.853980564602">
        <ele>175.4</ele>
        <time>2020-03-21T10:19:56Z</time>
      </trkpt>
      <trkpt lat="56.904609464748" lon="14.853643276946">
        <ele>174.4</ele>
        <time>2020-03-21T10:20:02Z</time>
      </trkpt>
      <trkpt lat="56.904615834992" lon="14.853516123523">
        <ele>174</ele>
        <time>2020-03-21T10:20:04Z</time>
      </trkpt>
      <trkpt lat="56.904616924639" lon="14.853337672872">
        <ele>173</ele>
        <time>2020-03-21T10:20:07Z</time>
      </trkpt>
      <trkpt lat="56.904555066217" lon="14.85301597555">
        <ele>171.8</ele>
        <time>2020-03-21T10:20:13Z</time>
      </trkpt>
      <trkpt lat="56.904510223052" lon="14.852662510827">
        <ele>170.8</ele>
        <time>2020-03-21T10:20:19Z</time>
      </trkpt>
      <trkpt lat="56.904517599124" lon="14.852390015258">
        <ele>169.6</ele>
        <time>2020-03-21T10:20:24Z</time>
      </trkpt>
      <trkpt lat="56.904533357096" lon="14.852162027578">
        <ele>168.6</ele>
        <time>2020-03-21T10:20:28Z</time>
      </trkpt>
      <trkpt lat="56.904500583867" lon="14.851965974937">
        <ele>167.4</ele>
        <time>2020-03-21T10:20:32Z</time>
      </trkpt>
      <trkpt lat="56.904458255272" lon="14.851629693109">
        <ele>167.8</ele>
        <time>2020-03-21T10:20:40Z</time>
      </trkpt>
      <trkpt lat="56.904476360176" lon="14.851276144567">
        <ele>167.8</ele>
        <time>2020-03-21T10:20:47Z</time>
      </trkpt>
      <trkpt lat="56.904460350747" lon="14.850915639048">
        <ele>167.8</ele>
        <time>2020-03-21T10:20:54Z</time>
      </trkpt>
      <trkpt lat="56.904376783204" lon="14.850543650326">
        <ele>167.4</ele>
        <time>2020-03-21T10:21:00Z</time>
      </trkpt>
      <trkpt lat="56.904292796566" lon="14.850191526707">
        <ele>167</ele>
        <time>2020-03-21T10:21:06Z</time>
      </trkpt>
      <trkpt lat="56.904239068587" lon="14.850015842083">
        <ele>166.4</ele>
        <time>2020-03-21T10:21:09Z</time>
      </trkpt>
      <trkpt lat="56.904148711705" lon="14.849673944382">
        <ele>166.2</ele>
        <time>2020-03-21T10:21:15Z</time>
      </trkpt>
      <trkpt lat="56.904047625991" lon="14.849355683639">
        <ele>165.8</ele>
        <time>2020-03-21T10:21:21Z</time>
      </trkpt>
      <trkpt lat="56.903916197799" lon="14.849128869425">
        <ele>165.8</ele>
        <time>2020-03-21T10:21:27Z</time>
      </trkpt>
      <trkpt lat="56.903748643618" lon="14.848934409345">
        <ele>165.6</ele>
        <time>2020-03-21T10:21:34Z</time>
      </trkpt>
      <trkpt lat="56.90371243381" lon="14.848848159594">
        <ele>166</ele>
        <time>2020-03-21T10:21:37Z</time>
      </trkpt>
      <trkpt lat="56.903698771313" lon="14.848515314345">
        <ele>166.8</ele>
        <time>2020-03-21T10:21:43Z</time>
      </trkpt>
      <trkpt lat="56.90374931417" lon="14.848196299231">
        <ele>166.8</ele>
        <time>2020-03-21T10:21:48Z</time>
      </trkpt>
      <trkpt lat="56.903808322746" lon="14.847833530599">
        <ele>166.8</ele>
        <time>2020-03-21T10:21:55Z</time>
      </trkpt>
      <trkpt lat="56.903830870057" lon="14.847559777745">
        <ele>167</ele>
        <time>2020-03-21T10:22:00Z</time>
      </trkpt>
      <trkpt lat="56.904012086735" lon="14.847488783052">
        <ele>166</ele>
        <time>2020-03-21T10:22:07Z</time>
      </trkpt>
      <trkpt lat="56.904224232624" lon="14.847505630671">
        <ele>166</ele>
        <time>2020-03-21T10:22:14Z</time>
      </trkpt>
      <trkpt lat="56.90436286925" lon="14.847403622948">
        <ele>166.2</ele>
        <time>2020-03-21T10:22:19Z</time>
      </trkpt>
      <trkpt lat="56.904428750984" lon="14.847069604233">
        <ele>167.2</ele>
        <time>2020-03-21T10:22:26Z</time>
      </trkpt>
      <trkpt lat="56.904424308577" lon="14.846712954388">
        <ele>167</ele>
        <time>2020-03-21T10:22:34Z</time>
      </trkpt>
      <trkpt lat="56.904326575623" lon="14.846419923164">
        <ele>167.2</ele>
        <time>2020-03-21T10:22:40Z</time>
      </trkpt>
      <trkpt lat="56.904252731084" lon="14.846096130367">
        <ele>166.8</ele>
        <time>2020-03-21T10:22:46Z</time>
      </trkpt>
      <trkpt lat="56.904167151885" lon="14.845746605137">
        <ele>166</ele>
        <time>2020-03-21T10:22:52Z</time>
      </trkpt>
      <trkpt lat="56.90402004954" lon="14.845539907483">
        <ele>166</ele>
        <time>2020-03-21T10:22:58Z</time>
      </trkpt>
      <trkpt lat="56.903888202253" lon="14.845288450483">
        <ele>167.6</ele>
        <time>2020-03-21T10:23:05Z</time>
      </trkpt>
      <trkpt lat="56.90384067688" lon="14.84522080855">
        <ele>167.8</ele>
        <time>2020-03-21T10:23:07Z</time>
      </trkpt>
      <trkpt lat="56.903650575388" lon="14.84519817742">
        <ele>167.8</ele>
        <time>2020-03-21T10:23:13Z</time>
      </trkpt>
      <trkpt lat="56.903458713697" lon="14.845121399216">
        <ele>167.6</ele>
        <time>2020-03-21T10:23:20Z</time>
      </trkpt>
      <trkpt lat="56.903280263046" lon="14.845005309901">
        <ele>167.8</ele>
        <time>2020-03-21T10:23:26Z</time>
      </trkpt>
      <trkpt lat="56.903102902042" lon="14.844894165907">
        <ele>167.6</ele>
        <time>2020-03-21T10:23:33Z</time>
      </trkpt>
      <trkpt lat="56.90292118245" lon="14.84488804712">
        <ele>167.4</ele>
        <time>2020-03-21T10:23:39Z</time>
      </trkpt>
      <trkpt lat="56.902728063474" lon="14.844919730702">
        <ele>167.4</ele>
        <time>2020-03-21T10:23:46Z</time>
      </trkpt>
      <trkpt lat="56.902543494036" lon="14.844897770124">
        <ele>167.4</ele>
        <time>2020-03-21T10:23:52Z</time>
      </trkpt>
      <trkpt lat="56.90240401922" lon="14.845060546622">
        <ele>168</ele>
        <time>2020-03-21T10:23:59Z</time>
      </trkpt>
      <trkpt lat="56.902285247697" lon="14.845358858443">
        <ele>167.8</ele>
        <time>2020-03-21T10:24:05Z</time>
      </trkpt>
      <trkpt lat="56.902175612445" lon="14.845622720655">
        <ele>168.2</ele>
        <time>2020-03-21T10:24:11Z</time>
      </trkpt>
      <trkpt lat="56.902005627513" lon="14.845791280664">
        <ele>168.2</ele>
        <time>2020-03-21T10:24:18Z</time>
      </trkpt>
      <trkpt lat="56.901847377241" lon="14.84592991729">
        <ele>168.6</ele>
        <time>2020-03-21T10:24:24Z</time>
      </trkpt>
      <trkpt lat="56.901677392309" lon="14.846117168936">
        <ele>168.4</ele>
        <time>2020-03-21T10:24:31Z</time>
      </trkpt>
      <trkpt lat="56.901591729291" lon="14.846257230485">
        <ele>168.2</ele>
        <time>2020-03-21T10:24:35Z</time>
      </trkpt>
      <trkpt lat="56.901509251395" lon="14.846465101605">
        <ele>168.8</ele>
        <time>2020-03-21T10:24:40Z</time>
      </trkpt>
      <trkpt lat="56.901364328344" lon="14.846732987129">
        <ele>169.4</ele>
        <time>2020-03-21T10:24:47Z</time>
      </trkpt>
      <trkpt lat="56.901253854902" lon="14.846994837685">
        <ele>168.8</ele>
        <time>2020-03-21T10:24:54Z</time>
      </trkpt>
      <trkpt lat="56.901142710908" lon="14.847209498144">
        <ele>167.4</ele>
        <time>2020-03-21T10:24:59Z</time>
      </trkpt>
      <trkpt lat="56.900961829506" lon="14.847363892742">
        <ele>166.6</ele>
        <time>2020-03-21T10:25:05Z</time>
      </trkpt>
      <trkpt lat="56.900760077173" lon="14.847353666824">
        <ele>167.8</ele>
        <time>2020-03-21T10:25:12Z</time>
      </trkpt>
      <trkpt lat="56.900563856894" lon="14.847368418968">
        <ele>168</ele>
        <time>2020-03-21T10:25:18Z</time>
      </trkpt>
      <trkpt lat="56.900361434009" lon="14.847369843891">
        <ele>168</ele>
        <time>2020-03-21T10:25:25Z</time>
      </trkpt>
      <trkpt lat="56.900164794635" lon="14.847363306009">
        <ele>167.6</ele>
        <time>2020-03-21T10:25:31Z</time>
      </trkpt>
      <trkpt lat="56.899973352039" lon="14.847234057111">
        <ele>167</ele>
        <time>2020-03-21T10:25:38Z</time>
      </trkpt>
      <trkpt lat="56.899802780374" lon="14.847050409682">
        <ele>166.8</ele>
        <time>2020-03-21T10:25:45Z</time>
      </trkpt>
      <trkpt lat="56.899670262535" lon="14.846876485257">
        <ele>168.4</ele>
        <time>2020-03-21T10:25:52Z</time>
      </trkpt>
      <trkpt lat="56.899513856281" lon="14.846714714587">
        <ele>168.6</ele>
        <time>2020-03-21T10:25:58Z</time>
      </trkpt>
      <trkpt lat="56.899328281015" lon="14.846637936383">
        <ele>168.6</ele>
        <time>2020-03-21T10:26:04Z</time>
      </trkpt>
      <trkpt lat="56.899140777912" lon="14.846607929181">
        <ele>168.6</ele>
        <time>2020-03-21T10:26:10Z</time>
      </trkpt>
      <trkpt lat="56.898954951189" lon="14.846537353583">
        <ele>167.8</ele>
        <time>2020-03-21T10:26:16Z</time>
      </trkpt>
      <trkpt lat="56.898773483054" lon="14.846505502363">
        <ele>168.4</ele>
        <time>2020-03-21T10:26:23Z</time>
      </trkpt>
      <trkpt lat="56.898591176729" lon="14.846387066116">
        <ele>169.2</ele>
        <time>2020-03-21T10:26:30Z</time>
      </trkpt>
      <trkpt lat="56.898549602505" lon="14.846365105538">
        <ele>169.6</ele>
        <time>2020-03-21T10:26:32Z</time>
      </trkpt>
      <trkpt lat="56.898367799094" lon="14.846245244368">
        <ele>170</ele>
        <time>2020-03-21T10:26:39Z</time>
      </trkpt>
      <trkpt lat="56.898170992082" lon="14.84611934823">
        <ele>169.8</ele>
        <time>2020-03-21T10:26:45Z</time>
      </trkpt>
      <trkpt lat="56.897994385449" lon="14.846050868107">
        <ele>169.8</ele>
        <time>2020-03-21T10:26:52Z</time>
      </trkpt>
      <trkpt lat="56.897903693291" lon="14.846043408216">
        <ele>170.8</ele>
        <time>2020-03-21T10:26:56Z</time>
      </trkpt>
      <trkpt lat="56.897699510207" lon="14.846006527856">
        <ele>171.2</ele>
        <time>2020-03-21T10:27:02Z</time>
      </trkpt>
      <trkpt lat="56.897513851122" lon="14.845891025274">
        <ele>170.4</ele>
        <time>2020-03-21T10:27:08Z</time>
      </trkpt>
      <trkpt lat="56.897401617481" lon="14.84587627313">
        <ele>169.8</ele>
        <time>2020-03-21T10:27:11Z</time>
      </trkpt>
      <trkpt lat="56.89721310855" lon="14.845759429444">
        <ele>168.8</ele>
        <time>2020-03-21T10:27:17Z</time>
      </trkpt>
      <trkpt lat="56.897025018714" lon="14.845652057305">
        <ele>169</ele>
        <time>2020-03-21T10:27:23Z</time>
      </trkpt>
      <trkpt lat="56.896850926651" lon="14.845533704877">
        <ele>169</ele>
        <time>2020-03-21T10:27:30Z</time>
      </trkpt>
      <trkpt lat="56.89672695835" lon="14.845380483745">
        <ele>168.6</ele>
        <time>2020-03-21T10:27:36Z</time>
      </trkpt>
      <trkpt lat="56.896567366974" lon="14.845168673132">
        <ele>169</ele>
        <time>2020-03-21T10:27:43Z</time>
      </trkpt>
      <trkpt lat="56.896393274911" lon="14.84495342594">
        <ele>168.2</ele>
        <time>2020-03-21T10:27:49Z</time>
      </trkpt>
      <trkpt lat="56.896244663824" lon="14.844703729139">
        <ele>168.4</ele>
        <time>2020-03-21T10:27:56Z</time>
      </trkpt>
      <trkpt lat="56.896228402938" lon="14.844456966003">
        <ele>169.6</ele>
        <time>2020-03-21T10:28:03Z</time>
      </trkpt>
      <trkpt lat="56.896233180621" lon="14.844414302132">
        <ele>169.8</ele>
        <time>2020-03-21T10:28:04Z</time>
      </trkpt>
      <trkpt lat="56.896268887515" lon="14.844044241247">
        <ele>169.6</ele>
        <time>2020-03-21T10:28:14Z</time>
      </trkpt>
      <trkpt lat="56.896326471168" lon="14.843898312368">
        <ele>168.8</ele>
        <time>2020-03-21T10:28:18Z</time>
      </trkpt>
      <trkpt lat="56.896328985738" lon="14.843855648497">
        <ele>168.6</ele>
        <time>2020-03-21T10:28:19Z</time>
      </trkpt>
      <trkpt lat="56.896349521393" lon="14.84370033189">
        <ele>168</ele>
        <time>2020-03-21T10:28:23Z</time>
      </trkpt>
      <trkpt lat="56.896401405354" lon="14.843564796567">
        <ele>167.8</ele>
        <time>2020-03-21T10:28:27Z</time>
      </trkpt>
      <trkpt lat="56.896405177209" lon="14.843494807702">
        <ele>168</ele>
        <time>2020-03-21T10:28:30Z</time>
      </trkpt>
      <trkpt lat="56.896454462781" lon="14.843326331512">
        <ele>169</ele>
        <time>2020-03-21T10:28:36Z</time>
      </trkpt>
      <trkpt lat="56.896465610708" lon="14.843261790882">
        <ele>169.4</ele>
        <time>2020-03-21T10:28:38Z</time>
      </trkpt>
      <trkpt lat="56.896473154418" lon="14.843236226087">
        <ele>169.8</ele>
        <time>2020-03-21T10:28:39Z</time>
      </trkpt>
      <trkpt lat="56.896484386164" lon="14.843128853948">
        <ele>170.8</ele>
        <time>2020-03-21T10:28:42Z</time>
      </trkpt>
      <trkpt lat="56.896501233783" lon="14.842927772167">
        <ele>171.4</ele>
        <time>2020-03-21T10:28:47Z</time>
      </trkpt>
      <trkpt lat="56.896606594266" lon="14.842671369846">
        <ele>171</ele>
        <time>2020-03-21T10:28:54Z</time>
      </trkpt>
      <trkpt lat="56.896628554844" lon="14.842600878067">
        <ele>171.2</ele>
        <time>2020-03-21T10:28:56Z</time>
      </trkpt>
      <trkpt lat="56.896680271167" lon="14.842474311377">
        <ele>171.8</ele>
        <time>2020-03-21T10:28:59Z</time>
      </trkpt>
      <trkpt lat="56.896727628902" lon="14.842138364825">
        <ele>170.6</ele>
        <time>2020-03-21T10:29:06Z</time>
      </trkpt>
      <trkpt lat="56.896744308883" lon="14.841785570654">
        <ele>171.2</ele>
        <time>2020-03-21T10:29:15Z</time>
      </trkpt>
      <trkpt lat="56.896770292773" lon="14.841548279065">
        <ele>169.8</ele>
        <time>2020-03-21T10:29:21Z</time>
      </trkpt>
      <trkpt lat="56.896808681875" lon="14.841441326021">
        <ele>169</ele>
        <time>2020-03-21T10:29:24Z</time>
      </trkpt>
      <trkpt lat="56.896811112626" lon="14.841414252484">
        <ele>168.6</ele>
        <time>2020-03-21T10:29:25Z</time>
      </trkpt>
      <trkpt lat="56.896816393223" lon="14.841210320857">
        <ele>167.6</ele>
        <time>2020-03-21T10:29:30Z</time>
      </trkpt>
      <trkpt lat="56.896793678274" lon="14.840870434812">
        <ele>166.8</ele>
        <time>2020-03-21T10:29:37Z</time>
      </trkpt>
      <trkpt lat="56.896786721297" lon="14.840824502">
        <ele>166.8</ele>
        <time>2020-03-21T10:29:38Z</time>
      </trkpt>
      <trkpt lat="56.896795270835" lon="14.840731965824">
        <ele>166.6</ele>
        <time>2020-03-21T10:29:40Z</time>
      </trkpt>
      <trkpt lat="56.89686777427" lon="14.840505067791">
        <ele>167.6</ele>
        <time>2020-03-21T10:29:45Z</time>
      </trkpt>
      <trkpt lat="56.896915048186" lon="14.840160571701">
        <ele>167</ele>
        <time>2020-03-21T10:29:53Z</time>
      </trkpt>
      <trkpt lat="56.896937427859" lon="14.839783721477">
        <ele>167.6</ele>
        <time>2020-03-21T10:30:02Z</time>
      </trkpt>
      <trkpt lat="56.896947653777" lon="14.839670733465">
        <ele>168.6</ele>
        <time>2020-03-21T10:30:05Z</time>
      </trkpt>
      <trkpt lat="56.897036501917" lon="14.839487086036">
        <ele>169.8</ele>
        <time>2020-03-21T10:30:10Z</time>
      </trkpt>
      <trkpt lat="56.897034490261" lon="14.839409385823">
        <ele>170.4</ele>
        <time>2020-03-21T10:30:13Z</time>
      </trkpt>
      <trkpt lat="56.897038429754" lon="14.839377366965">
        <ele>171.2</ele>
        <time>2020-03-21T10:30:14Z</time>
      </trkpt>
      <trkpt lat="56.897043123618" lon="14.839318945122">
        <ele>172.2</ele>
        <time>2020-03-21T10:30:16Z</time>
      </trkpt>
      <trkpt lat="56.897042201609" lon="14.839266893523">
        <ele>173</ele>
        <time>2020-03-21T10:30:18Z</time>
      </trkpt>
      <trkpt lat="56.897043291256" lon="14.839227582412">
        <ele>173.4</ele>
        <time>2020-03-21T10:30:19Z</time>
      </trkpt>
      <trkpt lat="56.897083356738" lon="14.839036978006">
        <ele>174.4</ele>
        <time>2020-03-21T10:30:24Z</time>
      </trkpt>
      <trkpt lat="56.89717455181" lon="14.838807481584">
        <ele>175.4</ele>
        <time>2020-03-21T10:30:30Z</time>
      </trkpt>
      <trkpt lat="56.897240433544" lon="14.838716873245">
        <ele>175.8</ele>
        <time>2020-03-21T10:30:33Z</time>
      </trkpt>
      <trkpt lat="56.897374963039" lon="14.8384524243">
        <ele>176</ele>
        <time>2020-03-21T10:30:41Z</time>
      </trkpt>
      <trkpt lat="56.897398851454" lon="14.838386458747">
        <ele>176.6</ele>
        <time>2020-03-21T10:30:43Z</time>
      </trkpt>
      <trkpt lat="56.897495075666" lon="14.838097115559">
        <ele>177</ele>
        <time>2020-03-21T10:30:52Z</time>
      </trkpt>
      <trkpt lat="56.897658271259" lon="14.837894273579">
        <ele>175.4</ele>
        <time>2020-03-21T10:31:02Z</time>
      </trkpt>
      <trkpt lat="56.897698923474" lon="14.837873151191">
        <ele>175</ele>
        <time>2020-03-21T10:31:04Z</time>
      </trkpt>
      <trkpt lat="56.897722560432" lon="14.837837528116">
        <ele>175.2</ele>
        <time>2020-03-21T10:31:06Z</time>
      </trkpt>
      <trkpt lat="56.897882906179" lon="14.837674500161">
        <ele>175</ele>
        <time>2020-03-21T10:31:14Z</time>
      </trkpt>
      <trkpt lat="56.89795406851" lon="14.837570229325">
        <ele>174.8</ele>
        <time>2020-03-21T10:31:17Z</time>
      </trkpt>
      <trkpt lat="56.898039731528" lon="14.837509292912">
        <ele>174.4</ele>
        <time>2020-03-21T10:31:22Z</time>
      </trkpt>
      <trkpt lat="56.898050376541" lon="14.837488086705">
        <ele>174.2</ele>
        <time>2020-03-21T10:31:23Z</time>
      </trkpt>
      <trkpt lat="56.898072001843" lon="14.837414158347">
        <ele>174</ele>
        <time>2020-03-21T10:31:26Z</time>
      </trkpt>
      <trkpt lat="56.898072337119" lon="14.837213663299">
        <ele>175.6</ele>
        <time>2020-03-21T10:31:32Z</time>
      </trkpt>
      <trkpt lat="56.898063536124" lon="14.837186673581">
        <ele>175.8</ele>
        <time>2020-03-21T10:31:33Z</time>
      </trkpt>
      <trkpt lat="56.898152300445" lon="14.837026411653">
        <ele>176.2</ele>
        <time>2020-03-21T10:31:41Z</time>
      </trkpt>
      <trkpt lat="56.898253721435" lon="14.836778810327">
        <ele>176.4</ele>
        <time>2020-03-21T10:31:49Z</time>
      </trkpt>
      <trkpt lat="56.8983740017" lon="14.836531209001">
        <ele>175.4</ele>
        <time>2020-03-21T10:31:56Z</time>
      </trkpt>
      <trkpt lat="56.898387831835" lon="14.836485108551">
        <ele>175.4</ele>
        <time>2020-03-21T10:31:57Z</time>
      </trkpt>
      <trkpt lat="56.898363356687" lon="14.83616248922">
        <ele>176</ele>
        <time>2020-03-21T10:32:06Z</time>
      </trkpt>
      <trkpt lat="56.89834131229" lon="14.836040867851">
        <ele>176</ele>
        <time>2020-03-21T10:32:09Z</time>
      </trkpt>
      <trkpt lat="56.898392609518" lon="14.835862752476">
        <ele>176.8</ele>
        <time>2020-03-21T10:32:13Z</time>
      </trkpt>
      <trkpt lat="56.89843938052" lon="14.835641051221">
        <ele>175.4</ele>
        <time>2020-03-21T10:32:18Z</time>
      </trkpt>
      <trkpt lat="56.898456563415" lon="14.835493194505">
        <ele>174.4</ele>
        <time>2020-03-21T10:32:21Z</time>
      </trkpt>
      <trkpt lat="56.898531246144" lon="14.835162947645">
        <ele>174.2</ele>
        <time>2020-03-21T10:32:28Z</time>
      </trkpt>
      <trkpt lat="56.898536694379" lon="14.834929344092">
        <ele>175.4</ele>
        <time>2020-03-21T10:32:33Z</time>
      </trkpt>
      <trkpt lat="56.898487576445" lon="14.834776877331">
        <ele>176.8</ele>
        <time>2020-03-21T10:32:37Z</time>
      </trkpt>
      <trkpt lat="56.898477685803" lon="14.834689957028">
        <ele>177.8</ele>
        <time>2020-03-21T10:32:40Z</time>
      </trkpt>
      <trkpt lat="56.898427142946" lon="14.834481247718">
        <ele>179</ele>
        <time>2020-03-21T10:32:46Z</time>
      </trkpt>
      <trkpt lat="56.898445331669" lon="14.834311681881">
        <ele>180.4</ele>
        <time>2020-03-21T10:32:50Z</time>
      </trkpt>
      <trkpt lat="56.89842932224" lon="14.834217385506">
        <ele>180.4</ele>
        <time>2020-03-21T10:32:52Z</time>
      </trkpt>
      <trkpt lat="56.898352460217" lon="14.834005574893">
        <ele>180.4</ele>
        <time>2020-03-21T10:32:57Z</time>
      </trkpt>
      <trkpt lat="56.898347850172" lon="14.833934915476">
        <ele>180.2</ele>
        <time>2020-03-21T10:32:59Z</time>
      </trkpt>
      <trkpt lat="56.898241148585" lon="14.833656720215">
        <ele>179.8</ele>
        <time>2020-03-21T10:33:07Z</time>
      </trkpt>
      <trkpt lat="56.898193623212" lon="14.833480867953">
        <ele>179.8</ele>
        <time>2020-03-21T10:33:13Z</time>
      </trkpt>
      <trkpt lat="56.898133944084" lon="14.833240642699">
        <ele>179.2</ele>
        <time>2020-03-21T10:33:19Z</time>
      </trkpt>
      <trkpt lat="56.8980554895" lon="14.832870246538">
        <ele>179</ele>
        <time>2020-03-21T10:33:28Z</time>
      </trkpt>
      <trkpt lat="56.898009724326" lon="14.832507477906">
        <ele>178.2</ele>
        <time>2020-03-21T10:33:36Z</time>
      </trkpt>
      <trkpt lat="56.897873350813" lon="14.832236742536">
        <ele>177.6</ele>
        <time>2020-03-21T10:33:42Z</time>
      </trkpt>
      <trkpt lat="56.897732367255" lon="14.832193408113">
        <ele>178.2</ele>
        <time>2020-03-21T10:33:49Z</time>
      </trkpt>
      <trkpt lat="56.89754922274" lon="14.832199694538">
        <ele>178</ele>
        <time>2020-03-21T10:33:56Z</time>
      </trkpt>
      <trkpt lat="56.897494908028" lon="14.832219894917">
        <ele>178.2</ele>
        <time>2020-03-21T10:33:59Z</time>
      </trkpt>
      <trkpt lat="56.897485855576" lon="14.832314442749">
        <ele>178</ele>
        <time>2020-03-21T10:34:02Z</time>
      </trkpt>
      <trkpt lat="56.897454004356" lon="14.832465987501">
        <ele>177.8</ele>
        <time>2020-03-21T10:34:06Z</time>
      </trkpt>
      <trkpt lat="56.89740840682" lon="14.832543268619">
        <ele>177.8</ele>
        <time>2020-03-21T10:34:09Z</time>
      </trkpt>
      <trkpt lat="56.897230039988" lon="14.832617699891">
        <ele>177.8</ele>
        <time>2020-03-21T10:34:16Z</time>
      </trkpt>
      <trkpt lat="56.897170779955" lon="14.832573024364">
        <ele>177.8</ele>
        <time>2020-03-21T10:34:20Z</time>
      </trkpt>
      <trkpt lat="56.897007249086" lon="14.832428688046">
        <ele>177.8</ele>
        <time>2020-03-21T10:34:29Z</time>
      </trkpt>
      <trkpt lat="56.896957963514" lon="14.832440338887">
        <ele>178.8</ele>
        <time>2020-03-21T10:34:32Z</time>
      </trkpt>
      <trkpt lat="56.896924938828" lon="14.832434723014">
        <ele>179.2</ele>
        <time>2020-03-21T10:34:34Z</time>
      </trkpt>
      <trkpt lat="56.896837264154" lon="14.832387868193">
        <ele>179.6</ele>
        <time>2020-03-21T10:34:38Z</time>
      </trkpt>
      <trkpt lat="56.896767359108" lon="14.832431454073">
        <ele>179.4</ele>
        <time>2020-03-21T10:34:42Z</time>
      </trkpt>
      <trkpt lat="56.896725617246" lon="14.832411337513">
        <ele>179.2</ele>
        <time>2020-03-21T10:34:46Z</time>
      </trkpt>
      <trkpt lat="56.896619921487" lon="14.832448217873">
        <ele>178.2</ele>
        <time>2020-03-21T10:34:51Z</time>
      </trkpt>
      <trkpt lat="56.896554458848" lon="14.832468502071">
        <ele>177.8</ele>
        <time>2020-03-21T10:34:54Z</time>
      </trkpt>
      <trkpt lat="56.896514980099" lon="14.832406224554">
        <ele>177</ele>
        <time>2020-03-21T10:34:57Z</time>
      </trkpt>
      <trkpt lat="56.896391095617" lon="14.832242526047">
        <ele>176.2</ele>
        <time>2020-03-21T10:35:04Z</time>
      </trkpt>
      <trkpt lat="56.896348599384" lon="14.832202460565">
        <ele>176</ele>
        <time>2020-03-21T10:35:05Z</time>
      </trkpt>
      <trkpt lat="56.896149780716" lon="14.832196509416">
        <ele>176</ele>
        <time>2020-03-21T10:35:11Z</time>
      </trkpt>
      <trkpt lat="56.895955655912" lon="14.832254344526">
        <ele>175.6</ele>
        <time>2020-03-21T10:35:18Z</time>
      </trkpt>
      <trkpt lat="56.895761195832" lon="14.832306144668">
        <ele>175.6</ele>
        <time>2020-03-21T10:35:25Z</time>
      </trkpt>
      <trkpt lat="56.8955912109" lon="14.832444110742">
        <ele>175.8</ele>
        <time>2020-03-21T10:35:32Z</time>
      </trkpt>
      <trkpt lat="56.89540597091" lon="14.832537149832">
        <ele>176</ele>
        <time>2020-03-21T10:35:39Z</time>
      </trkpt>
      <trkpt lat="56.895203212749" lon="14.832495994703">
        <ele>174.8</ele>
        <time>2020-03-21T10:35:46Z</time>
      </trkpt>
      <trkpt lat="56.895136828101" lon="14.832449726615">
        <ele>174</ele>
        <time>2020-03-21T10:35:49Z</time>
      </trkpt>
      <trkpt lat="56.895124758165" lon="14.832375043886">
        <ele>173.6</ele>
        <time>2020-03-21T10:35:51Z</time>
      </trkpt>
      <trkpt lat="56.895132301875" lon="14.832099698471">
        <ele>172.6</ele>
        <time>2020-03-21T10:35:57Z</time>
      </trkpt>
      <trkpt lat="56.895155184462" lon="14.831764925385">
        <ele>172.8</ele>
        <time>2020-03-21T10:36:04Z</time>
      </trkpt>
      <trkpt lat="56.895133642979" lon="14.831496788404">
        <ele>173.6</ele>
        <time>2020-03-21T10:36:10Z</time>
      </trkpt>
      <trkpt lat="56.895090224737" lon="14.831159416929">
        <ele>173.6</ele>
        <time>2020-03-21T10:36:16Z</time>
      </trkpt>
      <trkpt lat="56.895103719596" lon="14.830885915532">
        <ele>172.4</ele>
        <time>2020-03-21T10:36:21Z</time>
      </trkpt>
      <trkpt lat="56.89511763355" lon="14.83062289151">
        <ele>171.2</ele>
        <time>2020-03-21T10:36:26Z</time>
      </trkpt>
      <trkpt lat="56.895117465912" lon="14.830527673126">
        <ele>170.6</ele>
        <time>2020-03-21T10:36:28Z</time>
      </trkpt>
      <trkpt lat="56.895065246675" lon="14.830332793951">
        <ele>169.8</ele>
        <time>2020-03-21T10:36:32Z</time>
      </trkpt>
      <trkpt lat="56.89497011211" lon="14.830015036122">
        <ele>169.2</ele>
        <time>2020-03-21T10:36:38Z</time>
      </trkpt>
      <trkpt lat="56.894931806827" lon="14.829751257729">
        <ele>168.8</ele>
        <time>2020-03-21T10:36:43Z</time>
      </trkpt>
      <trkpt lat="56.894939769632" lon="14.829460573437">
        <ele>167.4</ele>
        <time>2020-03-21T10:36:49Z</time>
      </trkpt>
      <trkpt lat="56.894930298085" lon="14.829349848538">
        <ele>166.8</ele>
        <time>2020-03-21T10:36:51Z</time>
      </trkpt>
      <trkpt lat="56.894912528457" lon="14.829143318522">
        <ele>166.2</ele>
        <time>2020-03-21T10:36:54Z</time>
      </trkpt>
      <trkpt lat="56.894871038052" lon="14.828865374718">
        <ele>167.6</ele>
        <time>2020-03-21T10:36:59Z</time>
      </trkpt>
      <trkpt lat="56.89483013438" lon="14.828769318144">
        <ele>168</ele>
        <time>2020-03-21T10:37:01Z</time>
      </trkpt>
      <trkpt lat="56.894673309031" lon="14.828753057258">
        <ele>168.6</ele>
        <time>2020-03-21T10:37:07Z</time>
      </trkpt>
      <trkpt lat="56.894483039901" lon="14.828808461617">
        <ele>169</ele>
        <time>2020-03-21T10:37:14Z</time>
      </trkpt>
      <trkpt lat="56.894303415784" lon="14.828725648445">
        <ele>167.8</ele>
        <time>2020-03-21T10:37:21Z</time>
      </trkpt>
      <trkpt lat="56.894245161579" lon="14.828699580736">
        <ele>167.6</ele>
        <time>2020-03-21T10:37:23Z</time>
      </trkpt>
      <trkpt lat="56.894053718983" lon="14.828584078154">
        <ele>167</ele>
        <time>2020-03-21T10:37:30Z</time>
      </trkpt>
      <trkpt lat="56.894039637391" lon="14.828547030156">
        <ele>166.8</ele>
        <time>2020-03-21T10:37:31Z</time>
      </trkpt>
      <trkpt lat="56.893973671838" lon="14.828232625087">
        <ele>166.8</ele>
        <time>2020-03-21T10:37:38Z</time>
      </trkpt>
      <trkpt lat="56.893794802092" lon="14.828119050342">
        <ele>167.4</ele>
        <time>2020-03-21T10:37:46Z</time>
      </trkpt>
      <trkpt lat="56.893591541017" lon="14.828018467542">
        <ele>167.6</ele>
        <time>2020-03-21T10:37:53Z</time>
      </trkpt>
      <trkpt lat="56.893383586078" lon="14.827983515019">
        <ele>167.8</ele>
        <time>2020-03-21T10:37:59Z</time>
      </trkpt>
      <trkpt lat="56.893197926993" lon="14.827957866405">
        <ele>168</ele>
        <time>2020-03-21T10:38:05Z</time>
      </trkpt>
      <trkpt lat="56.893039425264" lon="14.827763657782">
        <ele>168.2</ele>
        <time>2020-03-21T10:38:14Z</time>
      </trkpt>
      <trkpt lat="56.892946050898" lon="14.827448163066">
        <ele>168.2</ele>
        <time>2020-03-21T10:38:22Z</time>
      </trkpt>
      <trkpt lat="56.892825602995" lon="14.827118000025">
        <ele>168</ele>
        <time>2020-03-21T10:38:29Z</time>
      </trkpt>
      <trkpt lat="56.892714375182" lon="14.826841648782">
        <ele>168.2</ele>
        <time>2020-03-21T10:38:34Z</time>
      </trkpt>
      <trkpt lat="56.892603315007" lon="14.826527327532">
        <ele>168</ele>
        <time>2020-03-21T10:38:41Z</time>
      </trkpt>
      <trkpt lat="56.892418494112" lon="14.826420374488">
        <ele>166.6</ele>
        <time>2020-03-21T10:38:47Z</time>
      </trkpt>
      <trkpt lat="56.89236166483" lon="14.82639422296">
        <ele>166.6</ele>
        <time>2020-03-21T10:38:49Z</time>
      </trkpt>
      <trkpt lat="56.892170641329" lon="14.826347032863">
        <ele>166.6</ele>
        <time>2020-03-21T10:38:56Z</time>
      </trkpt>
      <trkpt lat="56.891966374426" lon="14.826349715071">
        <ele>166.4</ele>
        <time>2020-03-21T10:39:03Z</time>
      </trkpt>
      <trkpt lat="56.891774177459" lon="14.8263405788">
        <ele>166.2</ele>
        <time>2020-03-21T10:39:09Z</time>
      </trkpt>
      <trkpt lat="56.891591954953" lon="14.826312834711">
        <ele>166.6</ele>
        <time>2020-03-21T10:39:15Z</time>
      </trkpt>
      <trkpt lat="56.891409145714" lon="14.826276624903">
        <ele>166.8</ele>
        <time>2020-03-21T10:39:22Z</time>
      </trkpt>
      <trkpt lat="56.891221642611" lon="14.826249048452">
        <ele>167.4</ele>
        <time>2020-03-21T10:39:27Z</time>
      </trkpt>
      <trkpt lat="56.891028691273" lon="14.826259861103">
        <ele>167.2</ele>
        <time>2020-03-21T10:39:33Z</time>
      </trkpt>
      <trkpt lat="56.890843451283" lon="14.826337393678">
        <ele>167.4</ele>
        <time>2020-03-21T10:39:40Z</time>
      </trkpt>
      <trkpt lat="56.890657540741" lon="14.826446442197">
        <ele>167</ele>
        <time>2020-03-21T10:39:47Z</time>
      </trkpt>
      <trkpt lat="56.890466098145" lon="14.826515928148">
        <ele>166.8</ele>
        <time>2020-03-21T10:39:53Z</time>
      </trkpt>
      <trkpt lat="56.890281193431" lon="14.826541325305">
        <ele>166.6</ele>
        <time>2020-03-21T10:39:59Z</time>
      </trkpt>
      <trkpt lat="56.890260657776" lon="14.826508552076">
        <ele>166.6</ele>
        <time>2020-03-21T10:40:00Z</time>
      </trkpt>
      <trkpt lat="56.890288904779" lon="14.826186854754">
        <ele>166</ele>
        <time>2020-03-21T10:40:06Z</time>
      </trkpt>
      <trkpt lat="56.890352607219" lon="14.825873287875">
        <ele>166</ele>
        <time>2020-03-21T10:40:12Z</time>
      </trkpt>
      <trkpt lat="56.890428211957" lon="14.82556022391">
        <ele>166.8</ele>
        <time>2020-03-21T10:40:19Z</time>
      </trkpt>
      <trkpt lat="56.890577828872" lon="14.825293428033">
        <ele>167.2</ele>
        <time>2020-03-21T10:40:26Z</time>
      </trkpt>
      <trkpt lat="56.890666760831" lon="14.825083461438">
        <ele>167.6</ele>
        <time>2020-03-21T10:40:31Z</time>
      </trkpt>
      <trkpt lat="56.89076994202" lon="14.824784730522">
        <ele>168.2</ele>
        <time>2020-03-21T10:40:38Z</time>
      </trkpt>
      <trkpt lat="56.890803385801" lon="14.824722453005">
        <ele>169</ele>
        <time>2020-03-21T10:40:40Z</time>
      </trkpt>
      <trkpt lat="56.890838338324" lon="14.824666294275">
        <ele>170.2</ele>
        <time>2020-03-21T10:40:42Z</time>
      </trkpt>
      <trkpt lat="56.890906986085" lon="14.824571662624">
        <ele>171.2</ele>
        <time>2020-03-21T10:40:46Z</time>
      </trkpt>
      <trkpt lat="56.891054004611" lon="14.824304280014">
        <ele>171.2</ele>
        <time>2020-03-21T10:40:54Z</time>
      </trkpt>
      <trkpt lat="56.891222313163" lon="14.824139324222">
        <ele>171.2</ele>
        <time>2020-03-21T10:41:01Z</time>
      </trkpt>
      <trkpt lat="56.891316106624" lon="14.823988785298">
        <ele>171</ele>
        <time>2020-03-21T10:41:06Z</time>
      </trkpt>
    </trkseg>
  </trk>
</gpx>